GFSSE_925_spd_000.txt.gz
Wind_Speed
8 10 16 13 13 10 9 9 5 2 2 0 2 2 2 3 2 2 4 5 3 5 6 6 4 4 2 1 1 2 2 5 5 6 5 5 4 4 4 4 3 3 4
8 12 16 14 12 10 9 8 7 3 2 2 1 2 2 1 2 3 3 4 2 3 5 6 6 3 5 3 3 6 5 7 8 8 6 4 6 4 5 6 5 4 7
9 13 15 15 11 10 11 10 5 4 2 3 4 3 3 3 2 2 1 1 2 4 4 6 7 7 6 6 5 6 9 9 6 10 9 7 7 8 6 8 9 5 9
10 13 14 17 15 10 10 5 3 4 4 4 4 3 5 7 2 2 1 3 3 3 4 5 5 8 9 5 7 5 9 10 7 12 9 8 8 9 8 7 10 9 4
10 11 13 16 14 11 9 5 3 5 5 5 6 6 6 7 5 3 5 4 6 4 5 5 6 6 8 9 9 9 8 9 8 12 10 10 10 9 9 9 10 14 11
8 9 11 16 13 11 10 8 4 3 4 5 6 7 7 7 6 3 4 3 6 8 5 6 6 7 8 9 10 10 10 12 10 11 11 11 11 10 10 11 12 13 14
8 8 9 14 14 12 11 8 6 5 3 4 6 6 8 8 8 5 6 8 8 5 6 7 7 8 8 9 10 11 12 12 13 13 13 13 13 13 13 14 15 14 15
8 8 8 12 11 11 8 6 6 5 3 3 5 8 8 9 6 7 7 7 9 7 6 8 10 11 10 9 10 11 12 13 14 14 15 15 14 15 17 17 16 16 17
8 8 7 8 10 10 9 8 7 6 6 4 5 7 8 7 5 3 3 7 9 11 10 9 11 12 12 13 12 12 14 15 15 16 16 16 16 16 16 19 19 19 20
8 8 8 7 8 8 8 10 8 8 8 7 7 7 10 10 9 9 7 10 11 13 13 12 12 12 14 15 16 17 17 18 16 16 17 18 18 20 20 20 22 22 22
9 11 10 9 8 8 8 7 9 9 9 9 8 7 7 7 8 8 10 13 14 14 14 13 13 14 16 18 17 18 18 15 15 16 17 19 21 21 22 23 24 24 25
11 11 12 11 10 9 9 8 7 7 7 7 6 5 5 6 7 9 11 14 15 15 16 15 15 16 17 14 13 16 13 14 17 18 19 22 23 23 24 25 26 27 27
10 10 12 12 12 12 10 8 8 7 7 7 7 6 5 6 6 8 9 10 10 12 11 12 13 13 13 15 17 17 18 18 19 19 21 24 26 25 25 27 28 29 30
9 8 9 11 12 13 12 10 9 8 7 6 5 6 5 5 6 8 9 10 10 11 12 12 13 14 16 17 19 21 21 22 22 22 24 27 30 27 27 28 29 30 32
6 7 9 12 14 13 13 11 10 8 7 6 6 5 5 6 7 9 10 11 11 12 12 13 14 15 17 18 18 20 22 23 25 25 27 28 32 33 30 30 30 31 33
3 5 7 12 14 14 13 12 8 7 7 6 5 6 6 6 7 9 10 11 12 12 12 14 15 17 17 18 20 21 23 24 25 26 27 28 30 35 35 33 33 33 34
3 5 5 8 13 14 12 10 7 5 4 4 4 5 5 6 7 8 10 11 12 12 14 15 16 16 18 18 20 21 22 24 25 26 26 27 26 29 34 35 34 35 36
5 7 6 2 5 10 9 7 5 3 2 1 2 3 4 5 6 7 8 9 12 12 13 14 15 17 18 19 20 21 22 24 25 26 26 27 26 26 26 29 32 32 35
7 8 10 9 7 8 8 7 6 5 5 5 5 5 6 6 6 6 8 9 10 10 11 13 15 16 18 19 19 22 23 24 24 25 26 26 26 27 27 26 30 35 37
10 13 13 13 13 12 12 11 12 11 12 13 14 14 13 14 13 11 11 12 13 13 14 16 17 18 19 20 22 24 23 24 25 23 23 24 22 23 25 25 26 25 29
15 17 17 17 14 12 14 15 14 15 16 16 16 15 15 14 14 14 12 13 14 13 14 15 16 18 18 19 23 25 24 23 18 26 16 24 30 29 28 28 27 26 26
17 19 19 19 18 15 14 14 14 15 15 15 14 15 15 15 15 13 13 11 12 12 14 16 17 19 18 20 21 23 10 19 18 28 34 26 28 31 27 25 25 27 29
17 17 20 20 19 18 17 16 15 14 13 11 12 12 13 13 13 12 12 12 13 13 14 15 16 17 18 19 19 15 10 11 12 26 29 27 25 31 31 29 31 34 33
15 17 19 19 18 17 14 15 14 13 12 11 10 10 9 12 13 13 12 13 12 12 13 14 16 16 16 17 18 17 21 24 13 15 16 28 27 29 33 32 33 36 37
13 15 16 17 18 16 15 14 14 13 10 8 8 8 9 9 11 13 12 12 12 12 12 13 14 15 15 16 18 20 21 21 24 13 17 12 29 29 32 34 36 33 36
12 13 14 16 15 15 15 15 14 12 10 8 9 9 9 9 10 13 12 12 12 12 12 13 14 13 14 15 17 18 18 18 15 15 14 17 19 29 32 33 34 32 31

GFSSE_925_spd_003.txt.gz
Wind_Speed
5 11 16 14 13 11 11 10 8 4 1 2 4 3 4 4 4 5 5 8 4 6 7 7 6 5 7 3 2 2 3 6 9 10 8 7 5 4 6 4 3 5 3
8 11 15 13 12 11 10 9 7 4 3 3 4 2 1 3 4 6 5 5 5 5 6 7 6 7 8 7 3 3 5 7 6 8 10 6 7 7 4 4 5 6 4
7 11 13 13 10 9 10 9 6 3 4 3 3 2 0 1 4 4 3 3 3 5 5 6 7 8 8 8 6 5 5 8 9 9 12 8 8 8 7 6 7 7 6
8 10 11 13 9 8 9 6 3 3 3 2 2 1 2 4 3 1 1 2 3 5 5 7 7 6 8 8 6 6 8 12 9 11 8 8 7 6 7 7 7 8 7
8 9 9 11 11 9 7 4 3 2 2 1 2 3 3 4 5 5 2 3 5 5 5 5 6 5 7 8 8 8 9 10 9 11 8 8 7 6 4 8 9 10 11
8 9 9 12 11 7 6 5 2 2 1 1 1 4 4 6 6 6 1 2 3 7 6 6 6 6 7 7 8 9 10 10 11 12 10 10 9 10 9 9 10 12 14
8 8 8 13 10 8 7 5 3 2 0 1 1 2 4 8 7 8 5 2 6 7 7 6 8 8 8 7 8 8 9 11 12 13 14 12 11 11 12 12 13 14 14
8 8 9 12 11 8 7 5 4 4 1 1 2 4 5 7 5 3 5 3 5 8 9 8 8 10 10 9 9 9 10 11 11 13 14 14 14 13 14 15 17 16 17
8 9 9 10 9 9 8 8 7 6 4 3 4 3 5 7 4 3 1 3 6 7 9 11 10 10 10 11 10 11 14 14 13 15 16 16 16 15 16 17 17 19 20
8 10 10 10 10 10 9 10 8 7 7 7 6 5 6 9 7 7 8 8 10 13 13 12 12 11 12 13 14 15 16 18 16 16 17 18 20 20 21 21 21 21 23
9 10 11 11 10 9 7 9 6 9 9 8 7 5 4 3 4 4 7 11 12 12 13 13 13 14 14 16 15 14 14 14 14 15 17 18 20 21 23 23 24 25 26
11 12 12 11 10 9 8 7 6 7 6 6 5 4 3 3 4 5 8 9 9 9 12 11 12 13 13 11 12 12 11 13 15 18 20 22 24 23 24 26 27 28 29
11 12 12 11 11 10 9 8 7 6 6 6 6 5 3 3 3 4 4 5 6 8 8 9 11 11 12 14 15 15 17 19 20 21 22 25 28 26 27 28 29 30 31
9 10 10 12 12 12 10 8 7 6 6 5 4 4 4 4 4 5 6 6 6 7 9 10 11 12 15 16 17 19 20 21 22 23 25 27 30 31 30 31 31 32 33
8 9 9 11 12 11 11 8 7 6 6 5 3 3 3 4 5 6 7 7 8 9 10 12 14 15 17 17 18 19 21 22 24 25 25 28 30 33 34 32 34 35 35
3 5 6 10 12 12 10 9 7 5 5 4 2 2 3 4 5 6 7 8 9 10 13 14 15 17 17 18 19 20 22 23 24 25 26 27 30 32 35 36 34 35 36
1 1 2 6 10 12 11 9 7 4 2 1 1 1 3 4 5 6 7 9 11 13 13 14 14 14 16 18 19 20 21 22 24 26 27 27 27 28 31 33 34 33 34
3 4 3 2 7 11 10 8 6 4 3 3 3 4 5 6 6 6 8 10 11 11 11 13 15 17 17 18 18 18 19 21 24 26 26 27 25 25 26 28 30 31 32
5 6 9 9 10 11 11 9 8 7 8 8 9 11 11 12 11 9 10 11 11 11 13 15 17 17 19 21 21 21 24 24 25 27 27 28 25 24 25 23 26 28 32
11 12 13 14 14 14 13 12 12 13 14 13 15 14 13 13 13 11 10 12 13 13 14 17 18 17 19 20 22 24 22 26 29 27 22 24 29 32 34 35 30 27 34
14 15 15 15 14 14 14 14 14 14 14 15 15 14 13 13 13 13 12 13 14 14 15 16 17 19 19 20 21 20 25 19 26 22 28 31 30 27 33 35 33 26 29
17 17 17 17 15 14 14 15 15 15 15 14 13 12 12 13 14 13 14 13 14 14 15 17 18 18 17 20 19 20 8 14 20 26 26 26 30 24 29 31 31 33 32
18 18 18 18 19 18 17 17 16 15 13 12 11 10 12 13 13 13 12 12 13 13 15 16 17 17 16 17 19 15 7 8 11 20 25 22 33 33 27 34 35 35 36
16 17 18 18 17 15 14 15 14 13 13 10 8 9 8 11 12 13 12 12 12 12 13 14 15 15 16 16 17 16 20 23 12 12 13 26 24 28 33 30 33 36 39
15 16 17 17 16 15 15 14 14 13 11 8 7 7 8 8 10 12 12 11 11 11 12 13 15 15 16 16 17 19 20 20 21 12 15 12 24 25 27 34 28 35 38
14 15 15 16 16 14 15 14 14 12 10 8 8 7 7 8 8 11 12 11 11 11 13 14 14 14 16 16 17 19 20 17 15 13 13 14 17 25 24 32 31 30 34

GFSSE_925_spd_006.txt.gz
Wind_Speed
12 13 16 14 12 11 10 8 7 6 5 5 6 7 9 9 7 7 7 5 8 7 8 10 8 10 10 8 6 4 4 6 8 10 11 8 5 4 5 4 5 6 3
14 14 16 14 12 11 10 8 6 5 4 6 6 6 5 5 3 5 5 5 6 7 8 8 9 10 10 8 3 3 5 5 7 12 12 8 4 5 2 3 6 5 6
15 14 16 14 10 11 10 7 5 4 4 5 5 4 3 1 1 4 6 5 4 5 7 7 7 6 7 9 6 3 5 4 10 11 10 5 5 9 8 6 6 6 7
15 10 14 15 11 9 9 6 5 5 4 4 4 3 2 2 1 2 3 2 1 5 6 6 7 5 6 5 5 5 6 7 9 10 7 8 7 6 7 6 5 6 7
13 12 15 13 10 9 10 6 6 5 3 2 3 4 1 1 4 3 1 1 3 5 6 4 5 6 5 5 6 7 8 9 11 10 10 9 7 5 5 5 8 7 9
13 11 15 13 12 11 8 7 5 5 3 2 2 4 2 5 4 5 0 1 2 5 6 4 4 4 5 5 6 6 8 8 10 10 11 10 10 9 10 9 9 10 10
14 11 12 16 14 11 10 8 4 4 3 3 1 3 1 6 3 5 4 1 1 5 6 5 5 6 7 8 7 8 8 9 12 13 11 11 11 10 12 12 12 12 13
13 11 11 16 13 12 9 6 4 5 4 3 2 3 1 3 6 3 4 2 1 5 5 8 8 8 8 8 9 10 11 12 12 12 14 15 13 14 15 16 16 16 16
12 11 10 14 14 11 10 9 7 5 5 3 3 2 6 6 2 1 3 4 5 7 8 10 10 10 10 11 12 13 15 15 17 16 16 17 18 17 18 18 18 18 18
10 11 12 13 11 11 11 11 9 8 6 5 4 4 4 6 5 4 5 7 8 10 12 11 11 11 12 12 14 15 15 16 18 17 15 16 16 18 20 20 20 21 21
10 11 12 13 12 13 10 11 9 9 8 7 6 2 2 3 2 1 5 8 11 11 11 11 12 12 13 15 13 11 15 17 16 14 18 20 19 20 22 23 23 24 25
15 14 13 13 13 11 9 8 5 7 4 4 3 3 1 0 3 5 8 7 8 9 11 9 12 13 13 13 13 15 16 18 17 18 19 22 23 23 23 24 25 26 27
18 17 16 15 13 13 11 8 9 9 5 6 5 4 3 2 1 4 6 7 9 10 11 11 15 15 15 15 19 19 18 20 22 25 25 26 26 26 26 27 28 28 29
14 15 17 15 15 13 11 11 9 8 7 6 6 5 3 3 2 2 4 7 8 9 9 13 13 16 18 18 19 19 21 22 23 25 26 27 27 29 28 29 30 31 31
13 12 12 14 14 13 12 9 8 8 8 6 4 2 2 1 2 4 6 7 9 10 12 14 16 17 19 19 19 20 22 23 25 25 26 27 28 29 30 31 30 30 31
9 12 12 13 14 13 12 9 8 5 6 5 3 2 1 2 3 4 6 9 9 12 13 13 15 17 17 17 19 20 20 22 25 26 26 27 29 29 29 29 29 29 29
7 5 6 9 12 13 13 11 8 7 7 6 5 4 3 3 3 5 9 12 13 12 13 13 17 17 19 21 22 23 22 21 24 27 27 30 31 30 29 29 29 27 29
6 6 5 11 14 14 15 12 9 10 9 10 8 9 8 10 10 10 11 11 14 13 16 15 19 20 21 23 24 24 25 28 26 28 29 31 26 23 24 23 26 28 32
8 9 10 11 15 16 17 14 15 14 15 17 18 15 13 13 16 14 14 12 12 14 15 17 19 20 23 25 22 25 25 25 29 28 24 28 34 32 31 31 30 30 27
13 14 16 18 19 19 19 20 21 21 21 20 18 16 15 15 13 12 13 14 14 14 16 17 19 20 19 23 25 22 26 24 26 25 29 34 31 34 31 28 33 28 35
17 19 20 22 21 21 21 24 23 23 20 19 18 14 14 14 15 15 14 14 15 15 15 16 17 19 19 23 21 25 18 17 21 31 35 29 33 28 34 35 31 35 34
18 19 20 21 23 24 24 24 24 22 18 17 16 15 14 15 15 14 14 13 13 13 14 15 17 18 18 22 16 17 5 15 17 25 22 34 22 35 34 34 39 42 36
20 21 20 22 23 24 25 25 23 21 18 15 13 12 12 13 14 13 13 12 12 11 13 14 16 17 18 21 20 11 4 4 15 8 27 19 33 28 34 32 33 32 39
18 20 22 22 22 22 21 22 20 19 17 13 12 10 8 11 12 12 11 10 9 9 11 13 15 16 17 19 20 14 20 23 8 9 6 31 25 27 30 28 34 28 35
18 21 21 23 22 21 20 20 21 19 15 12 10 9 7 7 7 11 9 9 10 11 12 14 15 17 16 18 20 20 23 20 23 9 15 13 24 25 26 30 28 35 34
18 20 21 22 21 20 20 19 18 16 14 12 10 9 9 7 6 11 10 10 10 12 14 15 16 17 18 19 21 21 22 14 16 15 12 15 17 26 25 29 27 34 29

GFSSE_925_spd_009.txt.gz
Wind_Speed
16 20 17 16 16 12 11 11 7 7 6 7 7 8 13 10 7 6 6 7 8 8 7 9 12 12 10 7 6 3 2 4 8 12 11 7 4 3 3 2 5 1 3
19 21 18 17 16 13 12 11 7 6 6 7 6 7 8 5 4 4 5 6 7 6 7 6 7 7 7 7 1 1 3 6 6 11 9 5 4 4 5 6 4 4 2
19 21 20 18 16 14 13 9 8 6 6 8 8 6 5 3 2 6 5 5 6 4 5 4 2 2 3 3 4 3 5 5 8 10 10 3 7 8 10 7 6 7 6
17 20 21 17 16 13 12 10 8 8 7 7 8 5 3 4 3 3 4 3 2 5 5 4 3 2 2 4 3 4 4 5 9 10 3 5 6 2 9 8 6 5 8
15 20 21 20 15 14 15 9 9 9 7 7 10 6 4 4 5 4 1 1 1 3 5 4 3 3 2 2 4 6 7 7 9 9 6 9 6 6 6 8 8 8 9
18 19 20 18 16 16 14 11 9 9 7 5 9 8 3 1 3 6 4 2 1 3 3 4 2 3 3 4 5 5 7 8 12 13 12 12 9 10 10 12 9 10 11
19 19 17 19 17 15 12 11 8 8 7 5 7 8 3 1 0 5 5 4 2 3 4 3 4 5 6 8 8 8 9 10 11 12 14 11 12 10 12 13 13 13 14
20 17 17 18 17 14 13 10 8 8 7 6 5 7 5 2 3 4 6 4 3 3 5 6 7 7 8 8 9 10 11 13 14 15 15 14 14 14 14 15 16 16 17
15 13 15 18 16 15 13 11 9 8 7 6 4 3 8 6 2 2 4 4 4 5 8 10 10 10 10 10 10 12 14 15 16 18 19 18 17 16 17 17 18 18 18
13 12 12 17 17 16 15 13 11 10 8 7 4 3 3 6 5 2 2 5 6 9 11 11 11 11 11 12 13 14 13 15 17 19 17 16 15 17 17 18 19 20 20
16 14 15 14 15 15 14 14 11 10 9 8 5 2 4 6 4 3 4 4 7 8 8 10 9 11 11 12 11 12 12 15 17 18 18 17 16 18 18 21 22 21 22
21 19 19 17 16 14 16 15 11 10 7 6 6 5 4 1 2 3 3 4 5 8 9 10 12 13 14 16 16 17 18 18 17 19 21 22 22 22 23 24 25 26 24
27 24 21 20 17 15 18 14 9 9 6 6 7 6 4 2 2 2 2 3 7 8 9 12 13 12 15 16 16 17 19 20 20 22 23 24 25 25 25 26 27 27 28
26 26 24 21 19 19 15 12 11 11 8 7 7 5 6 4 4 1 2 4 5 5 6 8 12 13 15 15 17 18 18 20 20 20 21 20 21 23 24 26 28 28 29
26 27 25 22 21 18 18 13 10 14 12 8 11 8 4 3 2 1 2 3 4 7 9 9 11 12 14 15 15 17 19 19 21 20 22 22 23 27 27 28 27 27 28
19 23 25 22 21 19 16 14 11 12 9 10 7 5 3 2 1 2 4 9 12 11 10 10 11 13 13 14 16 17 18 18 19 22 22 24 25 22 22 22 25 25 25
14 17 19 20 20 20 17 13 12 11 11 8 8 8 6 6 4 11 12 13 13 10 8 10 12 12 15 17 16 17 19 20 20 24 20 17 21 24 23 23 23 21 20
10 13 14 16 20 21 19 16 14 11 13 13 14 10 12 14 14 10 10 10 9 8 9 11 13 16 16 18 18 19 17 19 18 16 21 25 24 24 25 24 27 19 23
10 10 12 17 19 24 22 20 21 19 17 18 17 16 15 15 12 10 10 10 8 8 12 13 14 16 17 19 19 19 19 15 20 19 27 25 24 29 26 29 26 30 30
12 12 14 20 24 29 26 25 26 25 22 19 17 15 14 13 11 9 9 10 9 10 13 14 15 15 17 20 16 24 13 9 21 23 30 23 30 24 31 31 35 38 37
15 18 21 28 33 32 31 31 29 27 23 20 17 15 14 13 12 11 10 10 10 12 12 13 15 17 18 23 14 22 10 12 10 35 22 21 26 26 30 34 34 34 31
19 22 25 28 28 30 28 27 28 26 20 19 17 15 13 12 12 11 10 10 9 9 11 12 16 16 10 21 14 8 4 8 11 34 22 27 17 33 25 28 32 27 33
21 24 26 28 31 30 28 28 27 25 22 19 14 14 12 11 11 10 9 9 8 8 10 11 14 16 15 19 21 8 4 3 16 8 31 15 34 21 32 27 28 31 24
21 25 27 30 32 32 30 31 30 27 22 16 13 11 10 9 10 9 8 8 8 8 10 12 13 15 18 20 23 14 14 16 4 6 9 33 19 30 29 30 30 23 34
22 23 25 27 27 28 28 26 24 22 19 17 14 11 7 7 8 8 8 7 9 10 11 13 15 16 17 18 17 23 23 21 18 6 12 9 26 25 29 28 26 31 28
25 27 28 29 26 25 26 23 23 21 19 17 14 12 9 5 6 8 9 9 9 10 12 13 15 16 18 18 20 22 21 13 16 11 12 14 16 24 23 26 27 27 29

GFSSE_925_spd_012.txt.gz
Wind_Speed
17 22 21 18 17 14 14 14 11 9 8 8 8 11 13 11 8 6 7 6 7 7 5 5 8 9 9 7 5 2 1 3 7 9 11 7 5 5 5 4 8 6 5
21 23 20 18 18 15 15 14 11 8 8 9 9 13 10 8 6 2 4 5 6 5 3 1 5 4 5 5 1 1 2 6 9 9 8 5 4 5 7 8 6 7 4
22 24 19 21 19 17 16 13 10 8 9 10 10 9 9 6 5 6 6 5 3 3 3 1 3 2 1 0 1 1 2 6 7 7 9 2 5 6 10 9 9 7 9
22 25 22 21 19 17 15 12 9 9 10 11 10 8 7 7 6 5 4 2 0 2 3 1 1 3 5 5 5 6 6 5 8 9 7 5 6 5 6 10 9 7 8
22 23 23 21 19 16 15 12 10 9 9 10 12 8 8 8 8 6 4 3 2 2 3 3 2 2 2 3 4 6 7 8 11 10 9 9 7 6 6 9 10 10 9
20 23 23 21 19 17 16 12 10 10 9 9 12 8 6 5 7 9 5 5 3 3 3 4 3 3 4 5 6 6 8 8 9 11 12 12 12 10 9 11 12 10 10
21 22 22 21 18 18 15 12 10 10 9 8 10 10 6 2 2 6 8 6 2 2 2 3 3 5 6 7 8 8 9 11 12 13 12 12 11 11 11 12 13 14 13
22 23 23 21 19 18 15 13 10 11 9 8 9 10 7 4 2 6 5 4 3 2 3 5 6 7 8 9 9 10 10 12 13 14 14 15 14 12 13 13 15 15 15
23 23 23 21 20 17 15 13 11 11 10 8 7 9 9 5 4 4 5 4 3 4 5 7 9 8 8 9 10 11 11 12 14 15 15 14 12 11 12 14 15 15 15
23 21 20 22 21 19 17 14 13 13 12 9 7 5 5 7 5 3 3 3 4 6 7 7 6 6 7 8 9 10 11 12 14 15 15 15 14 13 14 15 15 16 17
23 21 19 21 21 20 18 16 15 14 11 10 7 5 5 7 7 5 3 2 2 3 3 4 5 7 9 11 12 13 14 16 16 17 18 18 19 19 17 16 19 20 20
26 25 23 21 21 20 19 18 16 14 12 10 8 8 7 6 4 5 1 2 2 3 4 5 7 8 9 11 12 13 14 14 15 18 19 18 20 20 20 22 23 23 23
30 28 27 24 22 21 21 18 16 13 12 11 10 9 7 5 4 3 2 5 5 6 7 6 6 9 9 9 9 11 13 13 13 14 17 17 17 17 17 20 21 21 23
27 28 28 27 25 24 22 20 18 15 12 12 11 10 8 6 5 2 2 3 2 4 5 5 5 7 7 8 10 12 12 12 13 14 15 16 16 16 17 18 19 21 22
31 33 29 28 27 25 23 19 17 14 14 11 12 10 8 7 4 2 2 3 5 5 7 6 6 8 9 10 11 12 13 14 14 15 16 15 14 13 15 18 19 20 16
24 34 31 29 25 26 25 20 15 16 14 11 10 9 6 4 5 5 6 9 8 7 6 7 8 10 11 12 13 13 14 15 16 13 12 15 14 16 16 18 20 19 21
24 30 32 29 26 25 24 19 14 15 14 14 14 10 8 6 8 9 8 6 6 5 5 6 9 11 12 13 14 14 14 15 10 11 15 16 15 18 17 18 17 20 21
20 23 30 28 27 24 23 20 17 17 17 18 15 11 7 9 9 4 4 5 4 5 8 10 12 12 14 16 16 15 18 9 9 11 19 16 19 17 19 17 21 21 23
16 21 23 24 27 26 24 21 19 21 20 19 15 11 13 11 9 6 6 6 5 7 9 10 11 12 16 17 15 18 14 6 9 15 22 16 24 15 21 23 27 24 21
15 15 18 19 27 30 27 24 24 25 23 18 16 15 13 10 8 7 7 6 7 7 9 10 10 11 13 19 12 21 7 4 8 17 17 26 19 18 26 25 29 29 24
13 15 18 26 32 35 32 30 29 27 23 20 17 16 14 11 9 8 8 7 7 8 9 10 10 13 11 21 10 16 5 10 5 29 14 28 15 27 26 25 27 28 28
15 17 23 30 33 34 32 30 29 28 22 21 18 16 13 11 10 9 8 8 7 7 8 10 12 12 8 17 9 4 4 6 7 28 13 21 18 22 22 32 27 25 28
18 21 29 32 32 31 32 30 29 26 25 22 18 16 12 10 9 8 7 7 7 8 9 9 11 12 11 12 12 9 4 3 11 5 22 12 34 19 33 27 27 26 22
21 24 29 30 31 31 31 32 32 28 25 20 18 16 13 9 8 7 6 6 7 7 7 8 10 12 14 13 7 13 9 10 3 6 9 29 16 28 26 26 27 24 29
25 28 31 33 32 31 29 30 29 28 21 20 18 15 11 8 7 6 6 6 6 7 8 9 11 13 14 14 15 17 16 16 11 5 10 8 26 27 27 27 26 29 30
26 29 31 33 31 28 28 28 27 25 24 22 17 14 9 6 5 5 5 5 6 7 9 11 13 14 15 15 17 17 16 8 12 8 8 11 15 22 22 27 26 29 24

GFSSE_925_spd_015.txt.gz
Wind_Speed
16 23 20 17 17 15 14 13 11 9 7 7 7 11 13 12 9 6 7 7 5 3 3 5 7 8 8 7 5 3 1 2 7 11 11 9 6 4 5 5 5 7 5
18 25 22 19 17 16 15 14 11 8 8 8 9 13 14 9 8 3 4 6 3 2 2 2 5 5 5 5 1 1 2 5 8 10 9 9 4 4 5 7 7 6 6
22 25 22 20 18 16 15 13 11 8 8 9 9 11 8 7 4 4 6 4 1 3 3 2 1 0 1 0 0 1 2 4 7 8 10 5 5 6 8 9 8 6 9
22 24 21 21 18 16 15 12 9 8 10 10 10 9 7 6 6 5 5 4 1 2 3 2 0 2 4 4 4 5 6 7 9 10 10 8 9 6 7 8 9 7 8
23 22 21 22 20 17 15 12 9 9 9 11 9 9 8 9 8 6 7 5 1 2 3 3 3 2 3 2 4 5 6 7 9 11 10 10 11 9 8 7 8 9 10
23 22 21 21 19 16 15 13 10 9 9 11 10 9 8 7 10 9 7 3 2 2 3 3 3 3 3 4 5 7 7 8 9 10 11 10 11 11 9 9 11 11 10
22 22 22 21 19 17 15 13 11 10 10 10 11 9 7 4 4 9 8 6 3 1 1 2 2 3 5 5 6 5 7 8 11 12 12 12 11 11 11 11 11 12 13
21 22 22 20 20 17 16 14 12 11 9 9 11 10 7 5 1 6 7 5 3 2 2 3 4 5 6 7 6 7 9 10 11 12 12 12 11 10 11 12 12 13 14
20 22 22 22 21 20 17 15 12 11 11 8 9 11 9 6 3 6 5 4 4 3 4 5 6 6 6 7 7 7 8 9 11 12 12 13 12 12 11 12 13 14 15
21 22 23 23 22 21 19 16 13 13 11 9 7 8 9 9 6 4 5 3 3 4 5 5 4 5 6 8 9 10 11 12 13 13 15 15 15 15 15 14 14 15 15
23 24 24 24 24 22 19 17 15 14 12 10 8 6 7 9 8 5 3 1 1 3 3 5 6 6 9 10 11 12 12 13 11 12 13 14 13 14 17 18 17 18 19
24 27 25 24 25 23 21 19 17 15 13 12 9 7 7 7 6 5 2 2 2 4 5 7 9 8 7 7 7 7 9 9 9 9 9 11 13 12 13 13 13 14 16
29 27 27 26 25 24 23 20 18 16 14 12 10 10 8 6 5 4 2 2 5 8 7 4 3 5 3 4 5 7 8 9 8 8 9 10 11 11 11 12 13 14 14
26 30 29 28 26 25 23 21 19 16 14 13 12 11 8 6 5 3 1 1 1 2 0 3 3 4 6 8 9 9 10 10 11 10 9 9 9 11 13 13 14 15 17
28 30 33 30 28 26 24 21 19 16 14 13 13 10 8 7 6 3 6 2 3 5 2 4 6 7 9 10 11 11 11 11 10 8 8 9 9 12 14 14 13 16 17
31 33 34 33 31 27 25 22 20 17 15 13 11 11 8 7 7 4 6 5 4 3 5 6 8 10 12 13 13 12 12 10 6 8 10 9 11 10 13 14 16 17 18
30 28 35 34 32 29 27 22 20 19 16 12 12 12 12 6 5 6 6 4 5 5 6 8 9 10 12 13 13 12 14 7 5 9 11 10 13 12 11 17 18 18 18
22 23 28 33 30 28 26 22 19 17 17 17 19 13 8 7 7 6 4 5 5 6 9 11 12 12 14 16 16 14 16 4 5 17 11 12 12 11 13 15 18 18 16
18 20 25 30 29 28 26 23 21 19 23 21 16 14 12 8 8 5 7 7 6 8 9 10 11 12 16 19 18 17 14 3 2 7 14 17 12 14 16 17 21 19 16
11 14 22 26 28 29 30 25 26 26 23 20 17 15 10 11 9 8 8 8 8 8 9 10 10 11 11 20 16 19 9 3 6 6 18 16 13 16 17 17 25 22 19
14 17 20 27 30 33 32 31 29 28 23 20 17 15 14 12 9 9 9 7 8 9 10 11 10 12 12 20 11 17 6 7 12 9 22 17 17 17 22 21 27 25 23
18 18 21 26 34 35 35 30 32 29 22 21 19 17 15 12 10 9 8 8 8 8 9 10 12 10 10 15 9 4 4 7 3 22 15 20 15 23 26 32 27 26 23
18 20 24 29 34 34 33 30 32 26 25 22 19 18 14 11 9 8 7 7 7 7 8 9 11 12 10 11 9 7 3 3 7 5 12 11 24 17 27 31 29 27 21
20 22 26 31 33 33 33 33 34 29 24 21 20 18 14 10 8 7 6 6 6 6 7 8 9 10 9 8 6 9 5 9 3 5 5 23 13 26 26 29 29 24 27
23 27 29 33 32 33 32 29 30 30 23 25 21 18 14 10 7 5 5 5 5 6 6 7 8 9 9 8 9 8 8 13 9 5 10 9 26 25 26 26 23 30 25
25 29 32 33 32 31 30 29 30 31 31 27 22 18 13 9 7 4 4 4 5 4 5 7 8 9 10 11 13 12 11 5 8 7 5 12 15 25 26 32 27 26 27

GFSSE_925_spd_018.txt.gz
Wind_Speed
13 23 19 17 16 14 13 13 10 8 6 6 7 9 10 11 9 8 6 6 4 3 3 5 8 9 7 9 7 6 4 2 5 10 9 9 5 4 4 5 5 6 4
21 25 20 17 17 16 14 13 10 8 7 6 8 12 11 7 7 5 5 4 3 3 0 4 6 5 7 7 5 3 2 3 5 7 9 8 4 3 4 5 5 6 5
23 27 22 20 18 16 14 13 10 7 8 7 11 12 9 7 4 4 4 3 3 5 4 2 2 3 2 2 2 3 3 4 5 7 9 6 4 5 5 9 7 6 6
24 26 24 21 19 17 15 12 10 8 8 8 9 9 7 6 5 6 5 3 3 3 4 3 1 1 2 2 3 3 3 4 6 8 9 7 6 6 6 5 7 7 6
24 25 22 21 19 16 15 12 9 9 9 9 9 8 7 7 9 8 7 4 2 3 4 4 4 4 4 3 3 3 4 4 5 7 8 7 8 8 6 8 5 7 8
23 23 21 21 18 16 14 12 10 9 9 11 9 11 10 9 9 6 6 5 1 2 3 3 4 4 3 2 2 4 5 6 7 8 8 8 8 7 6 7 7 9 10
22 20 21 21 19 15 14 12 10 9 9 10 9 9 8 5 5 10 8 5 2 1 1 2 3 3 4 4 5 7 6 6 9 9 9 9 8 8 8 8 9 9 10
21 20 20 20 18 15 14 12 10 9 8 9 11 9 6 4 2 5 8 4 2 1 2 3 4 5 6 6 6 7 7 7 8 9 10 10 9 9 9 9 10 11 12
18 19 20 20 19 16 15 13 11 9 8 7 10 9 7 5 1 4 4 3 1 2 4 5 5 5 5 6 7 8 10 10 11 12 12 13 13 12 11 11 11 12 13
17 19 20 20 20 19 17 14 12 11 9 7 8 10 9 6 4 3 3 2 0 2 3 4 4 5 6 7 9 10 11 11 11 11 12 11 11 11 13 14 15 15 15
17 20 20 20 21 20 18 15 13 12 10 8 7 6 7 7 6 4 3 2 1 2 2 4 6 7 6 7 7 7 7 7 7 6 6 7 9 9 10 11 11 11 14
21 23 21 21 21 21 20 17 16 13 12 10 9 7 5 6 6 4 3 2 2 3 5 5 6 6 7 6 5 6 7 8 7 7 7 7 8 9 9 9 10 11 12
22 23 24 24 22 23 21 19 17 15 13 12 10 8 6 5 4 4 3 0 3 4 5 3 1 4 4 5 6 7 8 8 7 6 6 6 6 8 8 9 9 11 14
20 22 24 25 24 24 23 20 18 16 14 13 11 9 8 5 5 4 3 0 1 2 2 3 4 5 6 8 8 8 9 9 7 5 5 4 9 10 10 9 11 13 13
20 24 26 27 27 25 24 21 19 17 15 13 12 10 8 6 6 4 4 2 3 2 2 4 5 6 7 8 9 9 10 7 4 5 5 5 5 9 11 12 12 14 13
24 27 28 30 29 27 26 24 20 17 15 13 12 11 8 6 6 5 6 5 3 4 5 6 7 8 10 10 10 9 10 4 3 5 5 6 6 7 13 14 13 15 12
24 26 28 31 32 31 28 25 21 19 17 14 11 10 11 10 9 8 7 5 4 5 6 7 7 8 10 11 11 8 10 2 5 5 6 5 5 6 8 14 15 16 13
21 21 20 25 33 33 30 25 23 20 18 15 16 15 13 13 11 7 6 6 6 5 7 9 11 12 14 15 14 11 12 3 3 8 8 8 8 8 8 12 16 16 14
20 19 17 21 29 32 28 25 22 19 20 21 21 19 17 14 10 8 7 6 6 7 9 10 12 13 15 18 17 14 14 4 6 1 8 8 9 10 9 14 19 20 17
13 15 15 21 27 29 28 27 23 24 25 24 22 20 16 13 10 9 8 7 6 7 10 11 10 12 13 19 15 18 10 2 6 5 7 13 10 12 13 17 22 24 20
12 13 18 25 29 33 33 31 28 30 27 23 20 17 16 14 12 10 9 7 7 9 11 11 11 13 15 20 13 18 5 5 9 8 15 22 11 15 19 26 27 26 25
16 15 20 27 32 35 36 31 31 34 27 24 21 19 18 15 13 11 8 8 8 9 9 12 13 11 10 16 11 4 4 6 4 16 24 8 16 19 28 23 30 30 26
19 20 22 29 34 34 35 33 32 29 28 25 22 21 18 15 13 10 8 8 8 9 11 11 11 12 11 10 10 7 3 2 7 6 10 18 11 25 19 29 30 27 27
22 21 23 28 34 33 37 38 41 32 24 23 25 22 19 14 12 9 8 7 8 9 9 9 9 10 9 9 7 8 4 8 3 5 4 18 14 24 23 30 26 30 30
22 23 25 28 32 35 37 38 35 28 21 29 26 23 19 15 11 9 7 7 7 7 8 7 7 8 8 6 7 7 8 11 9 5 8 7 26 25 27 21 30 24 25
21 24 27 30 33 36 36 33 32 31 30 31 26 23 19 14 11 8 6 6 6 6 6 6 7 8 8 8 9 7 7 4 6 5 4 13 16 19 27 30 18 24 23

GFSSE_925_spd_021.txt.gz
Wind_Speed
18 23 22 17 15 14 14 13 10 8 7 7 8 8 11 10 9 8 6 5 5 5 5 8 10 7 7 9 9 8 6 4 5 7 7 7 4 1 1 3 4 3 5
25 25 21 18 18 15 15 13 10 8 5 6 8 10 10 8 7 4 5 4 5 5 4 3 6 9 11 9 7 5 3 2 3 5 8 7 3 3 2 3 4 5 4
28 27 22 19 19 18 14 13 10 8 6 8 10 12 10 7 4 4 3 4 4 6 4 2 1 2 3 4 3 3 2 2 4 5 6 5 2 2 4 6 6 6 5
28 27 22 22 19 17 15 12 9 8 8 10 11 11 8 6 5 7 5 4 4 4 4 3 1 0 0 0 1 2 2 2 4 6 5 4 5 4 4 4 4 6 6
27 24 23 21 19 17 15 12 9 8 8 9 10 11 8 6 6 7 5 3 4 5 6 5 4 4 5 4 3 4 3 3 4 5 6 5 5 5 6 6 5 7 8
25 24 22 20 19 16 14 12 10 10 10 10 10 10 7 7 6 5 5 2 1 4 5 5 5 5 5 4 3 4 4 5 6 6 7 7 7 6 7 7 7 6 9
22 21 19 19 18 15 14 12 10 10 10 11 10 11 7 4 5 8 6 5 0 3 4 4 5 5 5 5 4 4 5 5 6 7 7 7 8 8 8 8 8 10 10
22 21 19 19 18 14 13 12 11 10 10 11 10 9 6 3 2 5 7 3 1 2 3 4 4 4 4 4 5 5 5 6 7 8 9 9 9 8 9 9 9 11 12
18 19 20 18 17 15 13 12 11 9 9 9 11 9 6 3 2 6 6 3 1 1 3 3 4 4 4 5 5 6 7 7 8 9 11 10 9 9 9 12 13 13 13
17 18 19 20 18 16 14 13 11 10 9 8 10 10 8 5 3 4 4 3 2 1 2 3 4 5 5 6 6 6 7 7 6 7 6 6 8 9 8 8 9 11 13
15 18 20 20 20 19 16 15 12 11 10 8 8 8 8 7 6 4 5 3 2 1 2 3 5 5 5 6 6 6 6 6 5 5 6 7 7 8 8 9 9 9 11
17 19 21 21 21 20 19 17 14 13 12 10 8 6 6 6 7 5 4 3 1 0 2 3 3 3 3 4 5 6 7 6 6 5 5 5 6 7 7 8 9 10 12
18 19 22 22 22 21 20 19 17 15 14 11 9 7 6 7 7 5 3 2 0 2 1 1 2 4 5 5 6 6 6 6 5 4 3 4 6 7 7 8 10 10 10
18 20 22 24 24 22 22 21 19 17 15 13 11 10 8 7 6 6 5 4 3 3 2 3 4 5 6 7 6 6 7 6 4 2 2 1 4 8 9 9 10 11 10
17 19 23 24 26 25 24 22 21 19 16 14 13 12 10 8 8 6 6 5 4 4 2 3 4 5 6 7 7 7 6 4 3 1 2 2 6 10 10 10 11 11 9
21 21 22 25 27 27 26 26 23 21 17 16 15 14 12 9 10 10 9 7 4 3 2 3 4 6 7 8 7 5 6 3 1 1 2 2 2 5 10 10 11 12 10
24 20 22 25 28 30 29 26 24 22 19 17 18 15 13 13 13 12 9 8 5 3 3 4 4 6 7 8 8 5 6 1 2 3 2 2 2 3 5 10 12 13 13
23 22 20 21 27 31 31 29 26 24 22 20 17 18 18 16 14 13 10 8 6 5 4 5 6 7 10 12 11 7 7 4 4 4 5 5 6 5 5 8 12 15 15
26 26 23 20 24 29 31 28 26 24 23 21 20 22 21 19 16 14 12 10 7 6 6 6 8 9 12 14 12 10 12 5 8 3 3 5 6 7 9 10 15 19 19
22 21 20 20 24 25 31 31 26 24 24 24 26 25 23 19 17 15 13 10 7 6 7 6 7 8 11 15 11 13 4 2 8 5 3 10 11 8 11 14 19 22 24
18 18 18 22 26 31 36 34 28 28 28 27 27 24 22 20 19 16 14 11 7 6 7 7 5 7 13 17 11 9 5 3 4 8 8 20 4 11 15 18 20 23 23
21 19 19 23 28 31 33 31 28 31 27 31 27 25 23 21 19 16 13 10 7 7 7 8 9 6 8 15 7 2 4 3 4 10 11 5 13 11 20 20 26 25 21
21 23 22 26 29 31 34 35 33 29 30 26 25 24 22 20 18 15 12 10 8 7 8 8 9 8 6 9 12 6 2 2 9 6 11 12 10 17 18 20 21 21 22
28 23 22 27 31 34 37 38 44 32 26 22 30 26 23 20 18 15 12 10 8 8 7 7 7 8 8 7 4 8 2 3 3 5 4 12 10 20 19 20 20 21 19
27 28 25 28 31 34 37 40 36 26 23 34 29 27 23 20 17 14 11 10 8 7 7 6 6 7 7 5 5 3 3 5 5 6 9 11 23 20 21 16 24 17 18
25 26 28 30 30 35 37 38 36 38 36 36 33 29 24 21 18 14 11 9 7 6 5 5 6 6 6 6 5 3 3 3 7 7 7 16 18 19 26 22 13 19 18

GFSSE_925_spd_024.txt.gz
Wind_Speed
12 19 23 18 17 16 15 13 11 9 8 7 7 8 10 9 8 7 7 7 7 5 8 11 7 6 4 8 9 7 4 4 5 7 8 9 4 2 1 2 4 4 6
20 20 21 18 17 17 16 13 11 9 6 7 8 10 9 8 7 7 4 5 6 4 4 7 9 12 11 9 7 5 4 3 4 6 7 8 5 2 3 2 5 4 4
21 21 20 18 18 16 15 13 10 8 7 9 10 11 10 8 3 3 4 5 5 6 2 0 5 6 6 5 3 3 2 3 5 7 7 4 3 5 3 6 6 6 5
20 19 19 20 19 17 14 13 11 9 9 10 13 12 7 3 6 6 6 5 5 6 5 3 1 2 2 2 2 3 3 3 5 6 5 5 4 8 6 6 6 7 7
20 18 18 21 20 15 14 12 10 10 10 11 15 11 8 6 7 6 4 4 5 6 6 6 6 5 5 4 3 4 4 4 6 6 6 6 6 6 7 8 8 6 10
18 17 18 21 18 15 13 12 10 10 11 13 14 12 6 6 6 6 5 2 3 5 6 6 5 5 5 4 3 3 3 5 5 5 5 6 5 8 7 8 9 8 7
18 17 17 19 18 15 14 12 11 11 12 12 12 12 8 8 6 8 7 4 2 4 4 4 4 4 4 4 4 4 3 4 4 5 5 6 6 9 8 8 9 10 10
17 16 16 17 19 15 14 13 12 12 12 11 13 10 6 4 1 7 9 4 2 3 3 3 4 3 3 3 3 4 5 5 6 7 7 8 9 9 9 9 11 12 12
15 15 16 16 16 14 13 13 12 11 12 13 11 9 6 3 4 9 7 4 3 2 3 3 3 3 3 4 4 4 6 7 7 8 8 8 10 9 11 11 10 11 13
15 15 15 16 15 14 13 13 12 11 10 12 13 11 8 4 5 7 6 4 3 2 2 2 3 3 3 5 4 5 6 7 5 5 5 6 8 9 9 9 9 10 11
15 15 16 16 16 15 13 13 12 11 10 10 11 11 8 6 5 5 7 5 3 2 1 1 3 2 3 5 6 6 6 5 5 5 5 7 6 6 6 7 8 9 12
16 17 16 17 16 15 14 13 13 11 11 10 9 9 8 7 7 7 6 5 3 2 2 2 2 4 4 4 5 7 5 6 5 4 5 5 6 5 5 7 7 8 10
14 16 18 18 17 17 15 14 14 13 12 11 10 9 9 8 7 6 5 4 3 3 1 1 3 4 4 5 6 6 5 5 5 4 5 2 4 5 5 7 8 9 9
13 16 18 20 20 20 17 17 15 15 14 13 12 11 10 10 8 7 6 5 5 4 1 2 2 4 5 5 5 5 6 5 4 3 5 2 5 7 7 8 10 8 9
14 16 18 20 21 22 21 18 17 16 16 14 14 13 12 11 10 9 6 5 5 3 2 1 3 4 5 5 5 5 5 5 4 2 1 2 4 7 8 9 10 10 9
15 16 17 20 22 21 22 20 19 18 16 15 14 15 13 12 12 12 10 9 6 4 2 2 3 3 4 5 5 5 5 4 3 1 1 1 1 3 8 9 10 10 10
15 16 17 18 20 22 22 21 21 20 18 16 16 16 14 13 13 15 13 10 7 4 3 2 3 3 4 5 6 5 5 3 2 1 2 1 1 2 3 8 10 11 12
15 14 14 15 20 22 23 23 22 21 20 18 18 17 18 18 17 17 13 11 7 5 4 3 2 3 5 7 7 6 5 5 4 3 3 2 1 1 6 8 10 12 14
19 17 16 14 17 21 23 23 23 22 22 20 21 21 22 21 20 17 15 13 8 6 4 3 3 4 6 8 8 7 9 7 7 5 3 1 3 4 5 9 13 15 18
21 19 18 17 16 18 20 22 22 22 20 21 25 25 25 24 22 19 16 11 9 6 5 4 4 5 7 10 8 8 3 2 5 6 4 3 6 4 6 8 11 14 15
17 18 18 17 17 20 23 25 25 23 20 20 26 27 26 25 23 20 16 12 9 7 6 5 3 5 7 11 7 5 3 1 4 6 5 8 4 6 6 11 13 16 16
20 19 19 19 20 24 24 24 22 19 19 18 23 28 24 25 22 18 15 12 10 9 7 6 5 3 5 9 6 4 3 3 1 6 8 1 8 6 13 13 17 17 17
22 20 20 20 22 24 23 23 21 18 19 16 20 27 25 23 21 18 15 13 11 9 7 6 6 5 4 4 6 5 2 2 10 4 5 9 5 13 15 17 17 17 19
24 21 21 21 24 26 28 26 29 26 25 22 24 28 26 22 19 16 15 13 11 9 8 6 5 4 3 3 2 4 2 5 3 5 4 9 10 14 19 18 18 22 17
26 23 23 23 25 26 30 27 28 24 20 24 26 31 28 23 17 15 14 13 11 9 7 6 5 3 3 2 3 4 5 6 7 6 9 9 19 18 18 13 23 17 18
23 22 24 26 27 27 28 28 30 30 29 29 31 32 29 22 15 13 13 12 10 9 7 6 4 3 1 1 3 4 5 5 8 9 9 15 18 21 17 22 13 18 19

GFSSE_925_spd_027.txt.gz
Wind_Speed
14 19 21 17 14 15 13 11 9 8 8 8 7 9 9 9 9 8 8 8 6 7 10 11 7 4 5 10 10 9 7 6 6 8 9 11 7 5 4 3 3 5 2
21 21 22 16 17 15 14 12 11 9 7 8 9 11 11 10 9 7 7 8 7 6 8 10 11 14 12 11 9 7 6 6 7 9 9 7 7 6 6 4 7 5 5
20 22 21 19 17 16 14 12 10 8 7 8 9 13 12 10 8 5 6 7 7 7 6 8 8 8 8 7 5 5 5 6 7 8 8 6 4 7 5 6 7 5 4
19 20 19 19 17 16 14 11 9 8 9 9 12 11 9 7 9 8 7 8 8 8 8 6 7 7 6 6 6 6 5 5 6 7 8 6 5 6 6 6 6 8 6
17 18 20 19 17 15 12 10 9 9 10 12 13 9 7 9 10 8 7 7 8 9 9 8 7 7 6 5 5 6 6 5 6 6 6 5 5 7 7 6 6 7 6
16 16 19 21 19 14 12 10 8 9 11 14 12 10 8 7 6 5 5 5 7 7 8 7 7 6 5 5 4 2 2 5 5 4 5 6 5 10 9 8 7 7 7
16 17 17 20 16 13 12 11 9 9 11 12 12 9 6 5 6 5 5 0 4 5 5 5 4 4 4 4 4 4 4 5 7 5 6 7 5 11 9 8 9 9 9
18 15 16 17 14 12 11 11 10 11 11 11 11 8 5 5 4 8 8 4 4 4 3 3 3 4 3 3 3 4 5 7 7 7 8 8 9 10 10 10 10 10 11
16 16 16 17 17 13 11 11 11 11 13 11 12 8 6 2 2 12 10 6 4 3 3 3 3 3 2 4 4 5 6 8 5 7 7 5 9 9 9 7 9 9 11
15 15 16 17 17 16 13 13 12 11 12 14 14 12 8 4 7 9 7 7 5 3 3 2 3 3 4 5 5 6 7 6 7 6 6 6 9 9 8 8 9 10 12
14 16 17 19 18 17 16 14 13 12 12 14 15 14 10 7 7 7 8 5 4 3 1 2 3 2 4 6 7 8 7 6 7 6 5 9 8 7 6 7 9 10 10
16 18 18 19 19 18 18 18 14 12 11 11 13 12 11 9 9 8 7 6 4 2 1 1 2 5 6 4 6 8 6 6 5 5 5 5 7 5 6 8 9 10 10
16 17 18 18 18 19 19 19 16 15 13 13 12 12 11 11 9 8 6 5 4 4 1 2 3 3 4 5 5 5 6 6 5 5 6 5 6 5 6 8 10 8 10
17 18 18 18 18 18 18 18 17 16 15 14 13 13 12 12 11 10 9 9 5 4 2 2 1 3 4 5 5 6 6 6 5 4 4 1 4 6 7 9 10 8 10
16 17 19 20 20 19 19 18 17 17 16 15 14 14 13 12 12 11 8 7 6 4 3 1 2 3 4 6 6 7 7 6 4 3 3 1 2 5 7 9 9 9 10
17 18 19 20 21 20 20 18 18 17 17 17 16 16 15 13 12 10 10 8 8 6 3 2 2 3 5 6 7 7 6 5 4 3 2 3 2 1 5 7 8 9 10
19 19 20 20 21 21 21 20 19 18 18 20 17 17 17 14 13 13 13 12 8 6 3 1 2 4 5 6 7 6 6 5 3 3 2 1 4 5 4 5 6 8 10
19 17 20 20 21 22 22 21 20 19 19 20 18 19 18 16 17 16 15 13 10 7 5 3 2 3 4 6 7 6 6 5 4 3 2 1 1 2 8 10 12 11 13
25 22 20 21 23 24 24 23 22 21 20 21 18 19 18 18 18 17 16 13 10 7 5 3 3 3 4 6 8 6 7 6 5 4 4 3 4 4 5 9 13 13 13
29 26 24 24 23 22 22 24 23 20 22 22 20 18 19 19 22 20 17 13 10 8 6 4 4 3 4 7 7 6 3 2 3 5 6 5 6 7 6 9 10 11 13
32 32 30 27 26 24 24 25 24 23 24 21 18 19 19 21 22 20 18 13 10 8 7 5 4 4 5 9 6 6 4 2 4 6 6 6 10 6 8 9 11 14 13
29 29 30 29 26 26 24 24 23 23 22 20 18 20 22 24 23 21 16 12 11 11 8 6 4 3 4 8 5 4 2 3 2 2 8 6 7 8 9 10 15 14 14
32 30 29 30 26 27 25 24 21 23 21 18 19 19 21 24 25 20 16 13 12 10 9 6 5 4 3 3 6 4 2 2 9 4 5 6 8 10 12 15 16 16 16
30 30 28 27 26 27 27 27 31 27 24 21 25 20 21 23 24 20 16 13 12 11 9 7 6 4 2 2 1 3 1 3 2 4 3 9 13 10 17 17 19 17 20
27 28 26 25 26 26 29 29 30 23 22 25 25 25 21 24 24 21 14 12 12 11 9 7 6 4 3 1 1 2 3 5 8 6 7 8 16 17 18 18 15 21 17
24 21 25 25 26 27 28 28 29 26 28 29 27 25 25 27 24 20 17 13 12 12 9 8 6 4 2 1 2 3 4 4 7 8 7 12 15 18 18 20 19 16 17

GFSSE_925_spd_030.txt.gz
Wind_Speed
20 27 23 18 15 15 14 13 12 11 10 9 10 12 12 12 12 12 12 10 10 12 12 16 11 7 12 14 13 11 10 8 8 9 9 9 11 9 8 6 5 7 4
24 27 23 18 17 16 14 12 11 10 10 9 10 11 12 12 11 11 11 10 10 11 12 12 15 16 16 14 11 9 8 7 8 9 9 6 6 9 7 6 9 3 4
26 25 22 19 18 17 15 13 11 9 10 11 12 13 13 12 11 11 11 10 11 10 11 12 11 11 11 10 8 6 6 6 8 9 10 12 3 7 7 5 6 7 3
27 23 21 19 18 17 15 12 10 9 11 12 16 13 11 10 11 12 12 11 12 12 11 10 9 8 6 7 7 7 7 8 9 10 12 6 6 7 9 5 4 6 4
25 24 22 20 18 17 14 12 11 12 11 14 14 12 11 13 12 12 11 11 12 13 12 11 10 9 8 7 7 6 6 7 6 10 8 8 6 9 8 7 4 4 4
23 26 21 20 14 14 14 12 11 12 13 15 12 12 13 11 9 9 9 10 11 11 11 10 9 9 8 8 6 4 5 7 6 7 4 7 5 9 8 6 7 6 5
25 26 24 22 17 13 12 12 11 12 14 15 13 11 9 7 6 6 4 7 8 9 9 8 8 8 7 7 5 5 5 6 6 7 5 5 5 9 9 7 7 8 9
23 23 26 22 17 13 13 12 12 13 15 14 13 10 9 7 6 7 5 5 7 7 7 7 7 6 6 5 4 4 6 7 4 4 6 4 6 8 9 9 9 9 9
22 23 24 22 18 15 14 13 13 13 14 14 13 10 8 5 5 12 9 7 6 6 6 6 6 5 5 5 5 6 7 7 9 8 2 3 8 9 8 9 9 12 13
20 23 22 22 21 18 16 14 14 14 14 14 14 11 8 7 11 13 10 8 7 6 5 6 5 5 5 6 7 8 7 8 10 6 5 6 7 7 7 8 10 10 11
19 21 25 24 21 18 15 17 16 15 16 16 15 13 10 8 10 10 9 8 7 6 5 4 5 4 5 6 9 9 8 6 6 5 6 6 8 6 8 9 11 10 12
19 20 23 24 23 20 19 16 16 15 16 18 17 15 12 12 12 12 10 8 7 6 4 4 5 7 6 6 6 6 4 4 7 4 4 5 5 5 8 10 10 10 11
20 20 20 24 28 24 20 18 17 16 15 15 15 15 15 14 14 13 9 10 8 6 5 6 6 3 3 4 4 5 7 4 4 5 4 4 8 7 7 9 9 9 9
24 23 22 21 24 26 23 19 22 23 18 19 18 17 15 15 15 14 10 11 11 8 5 7 4 2 3 2 6 5 5 5 3 5 3 3 6 7 7 9 9 9 9
23 26 25 24 24 27 24 22 23 23 21 21 21 19 18 17 14 16 17 18 12 9 7 5 4 3 2 3 3 4 4 4 2 4 3 2 2 6 7 8 8 9 9
18 24 26 26 27 24 27 24 24 23 23 21 22 20 18 18 16 16 17 12 11 11 9 7 4 1 0 3 3 4 4 3 1 1 3 3 2 1 2 4 7 8 9
20 23 26 28 27 27 27 26 26 21 23 23 18 22 20 18 19 17 14 13 13 10 7 5 2 0 1 3 3 5 3 4 1 1 2 3 3 4 4 6 7 9 10
24 24 27 31 31 29 29 28 26 24 23 24 19 22 22 19 21 19 18 15 14 12 10 6 4 3 1 3 4 2 4 3 2 4 4 3 2 2 5 8 11 11 10
27 24 28 31 35 33 30 29 27 25 27 25 24 24 24 23 20 21 20 17 13 11 9 6 4 4 1 4 4 3 5 7 4 5 3 5 5 6 6 6 11 11 11
32 26 28 24 32 33 34 30 30 27 27 25 27 26 29 26 24 24 21 18 16 13 11 8 5 4 4 6 4 4 4 0 4 5 5 5 4 8 9 8 8 9 12
24 27 23 32 32 31 29 30 30 30 30 29 29 30 32 30 29 25 23 21 17 14 12 9 8 5 5 7 4 3 5 3 3 4 6 6 5 7 5 5 8 13 17
26 25 31 27 35 37 33 30 28 27 30 31 31 28 30 30 28 27 26 22 19 17 14 12 7 6 4 8 4 2 2 1 2 3 7 5 5 5 6 9 14 19 14
29 32 30 32 29 37 34 31 24 29 28 27 27 28 27 26 27 28 24 23 19 16 15 12 10 7 6 4 6 3 2 1 4 1 4 3 6 7 11 15 15 14 17
29 32 35 28 33 29 36 31 37 29 26 26 33 30 26 26 28 27 25 21 20 17 15 12 10 9 7 6 3 3 1 1 1 4 2 6 15 7 14 13 20 22 21
25 23 36 37 30 32 37 33 38 28 24 30 30 29 28 27 29 28 26 23 21 17 14 13 11 8 8 6 4 2 1 4 7 5 4 4 17 21 19 21 18 19 24
21 30 22 31 36 28 35 32 36 34 32 33 33 31 33 31 31 28 25 23 22 17 16 14 11 9 6 5 4 2 2 2 1 2 2 4 12 17 16 23 21 19 22

GFSSE_925_spd_033.txt.gz
Wind_Speed
27 27 23 20 19 19 18 17 15 14 13 14 15 15 15 15 14 13 12 11 12 13 13 12 11 14 17 15 13 10 9 8 9 9 9 10 11 9 8 8 5 7 4
31 27 23 20 21 19 18 16 14 14 13 13 14 15 14 14 13 12 12 11 12 12 13 17 17 18 16 14 11 8 7 9 11 11 9 6 7 7 6 6 6 3 3
31 26 23 22 22 20 18 16 15 14 14 14 15 15 14 13 12 12 12 12 12 12 13 12 14 14 13 9 7 6 7 10 11 10 9 9 7 6 6 4 5 5 2
32 27 24 23 23 21 19 17 14 15 16 16 17 16 14 13 13 13 13 13 13 12 12 12 11 10 8 9 8 9 11 12 11 9 9 7 7 8 7 4 3 3 4
30 27 25 24 22 21 19 17 17 18 19 20 18 15 14 15 14 14 14 14 14 13 12 12 11 10 10 10 8 8 10 9 8 6 8 7 5 8 7 6 5 3 2
29 27 26 23 21 20 19 18 19 19 19 18 16 19 18 15 14 13 13 13 14 14 13 11 11 11 11 10 9 8 9 7 7 9 7 4 5 7 7 5 4 5 3
31 28 26 23 20 19 18 17 19 20 22 18 18 17 16 14 12 11 11 12 12 12 11 10 10 10 10 10 8 7 6 5 4 6 4 5 4 7 6 7 8 9 8
33 29 27 23 20 18 18 17 18 20 22 19 18 16 15 13 12 12 9 11 11 11 11 11 10 10 8 7 6 5 6 6 5 3 4 1 4 6 7 8 8 10 12
34 31 29 25 20 17 18 17 18 22 21 20 17 15 12 11 13 13 10 10 10 10 10 10 9 8 8 7 7 7 6 7 6 8 5 7 7 7 7 8 10 10 11
28 28 29 26 21 20 19 18 19 20 22 20 17 13 11 9 15 15 12 10 9 10 10 9 9 8 8 9 9 6 7 8 7 5 5 7 6 7 8 9 9 10 11
27 25 29 26 23 21 20 19 18 19 19 20 18 16 12 12 16 15 12 11 10 10 9 8 8 8 7 7 7 4 4 6 3 3 3 5 9 10 8 9 10 10 10
27 27 28 27 25 22 20 19 19 19 19 20 19 18 15 14 15 13 12 10 10 10 8 8 9 7 6 5 4 2 2 2 3 2 3 5 6 9 8 9 10 10 10
26 27 30 29 27 26 22 21 20 19 20 21 20 18 17 16 16 13 13 11 11 9 9 10 8 5 3 3 3 2 4 3 2 2 2 3 8 8 8 9 8 9 10
29 28 29 31 30 30 26 22 21 20 20 20 21 19 20 16 22 18 13 13 12 10 9 8 8 4 4 2 2 2 2 3 1 1 2 2 8 8 8 8 8 8 9
31 33 32 31 34 35 29 26 22 22 22 22 21 21 22 21 21 18 16 16 15 12 11 9 8 6 3 2 1 1 1 3 1 1 2 1 3 7 7 7 7 8 8
33 35 35 33 32 37 32 29 25 27 25 25 25 24 22 24 19 22 21 21 19 15 13 12 9 5 3 1 1 1 0 2 1 1 2 1 1 3 3 5 6 7 7
20 35 39 37 36 36 35 31 27 33 31 30 30 27 25 23 22 22 26 24 17 15 14 12 8 5 3 1 2 1 2 1 2 3 4 4 2 3 3 3 5 7 7
23 21 40 39 39 38 36 32 30 34 32 33 31 29 26 25 27 28 27 20 16 16 14 12 8 5 2 0 0 2 2 3 3 4 4 3 2 1 2 4 6 8 7
34 27 35 41 41 40 37 34 34 34 34 34 30 30 30 28 30 27 24 20 20 18 15 11 8 5 3 0 1 2 3 4 6 8 6 5 3 4 4 7 7 7 7
38 36 31 40 44 44 40 36 36 33 33 35 35 31 35 32 28 27 24 22 22 20 17 13 9 7 3 1 2 2 3 2 6 7 6 6 4 5 6 5 5 7 11
35 34 38 31 39 40 33 31 34 32 34 33 35 33 36 35 33 29 26 25 24 22 18 15 13 8 4 2 1 2 5 3 3 5 6 7 6 4 4 5 6 10 16
24 26 28 24 36 43 38 36 33 38 36 37 35 33 38 39 35 32 29 28 26 22 20 17 14 11 5 4 2 2 2 1 3 5 8 8 5 3 5 5 10 14 15
27 27 28 24 21 34 36 37 30 34 28 29 33 37 40 40 36 31 31 31 27 24 23 19 15 12 9 5 4 3 2 3 2 0 6 6 3 3 4 7 9 14 17
21 28 30 32 31 28 37 39 41 34 26 25 40 41 42 39 34 30 33 31 28 24 22 19 16 13 11 10 6 3 2 3 2 3 2 6 5 2 9 15 18 16 14
30 28 25 34 37 34 39 39 39 31 31 33 36 39 39 34 32 33 33 31 28 26 23 21 18 15 12 12 8 5 4 4 3 3 3 4 9 17 20 15 17 21 14
5 11 20 22 35 40 33 39 39 37 36 35 35 36 35 33 33 34 34 32 29 27 25 21 17 14 12 11 9 7 6 4 4 3 2 4 8 12 12 20 14 12 14

GFSSE_925_spd_036.txt.gz
Wind_Speed
24 25 22 21 21 20 19 19 18 17 17 18 16 15 15 14 12 10 10 11 12 11 10 11 11 18 15 13 10 8 8 8 9 10 11 11 10 9 7 7 9 5 4
33 27 24 22 21 21 20 19 18 16 16 17 17 15 14 13 11 10 11 11 12 14 14 15 18 16 13 11 8 7 7 11 12 11 9 8 9 7 5 6 4 4 4
33 28 23 23 23 22 21 20 19 18 17 17 16 15 14 12 11 11 11 11 12 11 13 15 14 13 11 7 5 6 11 12 11 9 9 8 9 6 4 4 5 5 4
32 28 24 24 24 21 20 19 19 18 17 17 17 16 14 12 11 12 13 13 12 11 12 12 11 11 8 6 9 11 13 11 10 8 8 9 9 7 6 4 3 3 2
32 28 25 24 24 22 20 18 18 19 19 20 18 16 14 13 13 13 13 14 13 12 11 10 10 8 8 9 9 10 10 8 7 8 6 10 6 7 5 5 6 3 2
32 29 27 25 24 21 19 18 19 20 21 19 19 17 17 15 13 13 13 13 13 13 12 11 11 11 10 10 9 9 7 5 6 5 7 6 6 7 6 4 5 4 3
32 28 27 25 23 20 19 21 23 22 20 17 17 19 17 15 14 13 13 13 12 12 11 11 11 11 11 10 8 6 4 4 4 6 7 5 5 7 8 7 6 7 5
32 30 28 24 22 20 19 22 23 24 22 20 22 19 16 15 13 11 11 12 11 10 10 10 12 11 9 8 7 5 6 5 5 8 6 7 4 6 7 9 11 12 14
30 31 29 25 22 21 20 21 23 25 22 23 22 19 17 15 13 12 11 11 10 11 11 11 9 9 8 8 7 6 5 5 6 6 7 8 7 7 8 8 9 11 12
31 32 31 28 24 22 20 20 23 25 23 23 22 20 17 16 16 13 12 11 10 11 11 9 9 8 9 8 7 7 6 8 8 7 6 7 7 9 8 8 10 10 9
30 33 32 30 26 23 21 20 22 26 24 22 20 16 14 15 19 16 13 12 11 11 10 9 9 9 8 7 7 7 3 5 5 5 6 9 10 9 9 9 11 11 8
25 30 31 30 27 24 23 22 23 25 25 24 21 19 16 15 19 18 14 12 12 11 9 9 9 7 6 5 5 4 2 3 4 4 5 7 9 8 9 9 9 9 8
32 31 33 31 28 27 26 24 24 24 24 24 23 22 18 18 19 18 16 14 13 12 11 10 8 6 4 4 4 3 3 3 4 4 5 7 9 8 9 8 7 8 8
33 34 33 32 32 30 28 28 27 26 26 26 25 24 22 21 21 19 18 16 15 13 13 12 9 6 5 3 2 2 2 3 3 5 6 6 9 8 8 7 7 8 7
31 35 35 35 34 34 32 30 29 28 27 26 27 26 25 24 23 22 20 18 17 15 14 12 11 9 6 3 2 1 2 3 4 5 6 5 8 8 8 7 7 7 7
32 34 36 38 37 36 36 34 31 29 28 28 28 29 28 27 24 26 23 20 19 17 15 14 12 9 6 4 3 2 1 2 4 5 6 6 6 6 6 7 6 5 5
26 36 38 38 40 40 39 37 34 31 29 29 29 27 29 30 26 28 25 23 21 18 17 16 13 9 6 4 3 3 4 3 4 6 6 6 5 5 6 4 4 4 4
23 22 35 38 42 43 42 41 37 34 31 31 30 30 30 31 29 28 27 26 25 21 20 17 13 10 7 5 4 5 5 4 4 7 7 5 3 4 2 1 2 2 4
32 29 23 34 42 44 43 42 40 35 34 34 33 33 33 33 32 29 28 28 27 24 21 17 15 11 8 5 5 5 5 5 7 8 8 6 4 2 2 2 4 3 4
37 33 30 31 40 46 40 41 38 37 34 35 36 39 38 36 34 31 29 32 28 25 21 18 15 12 8 6 6 5 5 3 7 9 8 8 6 4 3 3 4 4 8
36 37 34 31 37 39 36 31 34 37 35 37 37 40 40 39 36 34 36 33 29 26 23 19 16 13 8 6 7 4 6 5 6 8 9 10 8 7 5 4 3 7 10
22 24 36 32 35 41 37 39 32 40 38 41 39 41 40 40 39 38 38 34 30 27 23 22 19 15 7 8 5 4 1 3 7 8 10 10 8 7 6 4 5 7 10
29 28 23 27 32 38 36 35 29 28 25 32 37 39 41 43 42 39 38 36 32 30 27 25 22 17 12 9 8 4 2 4 0 4 8 9 8 6 6 4 7 11 10
32 27 25 25 25 29 38 36 36 32 22 30 40 44 43 43 45 43 40 37 35 32 28 27 24 19 14 11 7 4 3 4 3 1 4 10 5 6 5 11 13 12 15
26 25 21 22 23 27 32 41 39 32 34 36 38 42 43 41 44 42 39 38 37 33 30 28 25 21 17 14 9 7 4 3 4 3 2 3 7 10 13 12 16 9 10
4 5 5 12 21 21 26 38 43 34 31 33 36 37 39 40 40 40 38 38 38 35 32 29 24 21 18 14 12 10 7 4 4 4 2 3 6 9 8 17 11 7 9

GFSSE_925_spd_039.txt.gz
Wind_Speed
18 24 22 20 20 20 19 18 17 17 16 15 13 12 12 10 9 9 9 8 9 8 10 12 13 16 13 11 9 8 8 8 9 9 9 10 10 8 8 8 9 6 5
28 26 23 21 19 18 18 18 17 18 17 17 13 12 11 10 9 9 9 10 10 10 9 11 17 14 12 10 8 8 9 11 10 10 9 10 9 8 7 8 7 5 4
32 26 24 22 20 20 19 19 19 19 17 17 15 12 12 10 9 10 10 11 11 13 14 14 15 13 10 7 6 9 11 10 9 10 9 10 11 8 6 6 6 5 4
31 27 24 22 22 21 20 18 18 17 17 17 16 13 12 10 10 11 10 11 10 10 12 12 11 10 8 7 10 11 10 9 8 10 11 11 12 8 8 5 4 3 2
31 28 25 23 22 20 19 18 17 17 17 16 16 15 11 11 11 12 12 11 10 9 9 9 8 7 7 9 11 10 8 7 6 6 10 9 9 7 6 7 7 4 2
31 28 26 24 22 20 18 17 17 17 17 18 16 14 13 12 12 12 12 12 11 9 8 8 7 9 10 11 9 7 5 4 4 5 7 8 10 8 7 8 10 9 5
31 27 26 24 22 20 17 17 18 18 19 18 16 15 15 13 12 12 12 11 11 10 9 9 9 10 11 9 6 4 3 3 4 8 8 8 8 9 8 8 10 12 9
30 27 25 23 21 19 17 18 20 21 19 18 19 18 16 14 13 12 12 11 10 9 9 9 9 9 8 6 4 3 3 4 7 7 7 8 6 8 9 10 11 12 12
28 27 25 23 21 19 17 20 22 20 19 18 21 19 17 15 12 12 12 11 10 9 9 9 8 7 6 5 4 5 4 5 6 7 7 8 7 10 8 8 10 12 13
27 27 26 24 22 20 19 21 21 22 20 21 21 20 18 15 13 11 12 11 10 10 10 9 7 7 7 5 3 4 5 6 6 6 6 8 9 9 9 10 10 10 11
26 29 28 27 25 22 20 21 22 22 21 22 21 20 18 18 16 14 13 12 12 11 10 9 8 8 7 6 5 4 4 4 4 6 8 8 9 9 9 10 10 9 8
25 26 25 29 28 24 22 22 23 24 24 23 22 20 19 18 19 18 14 13 13 12 11 10 9 8 6 4 4 2 1 3 4 6 7 7 9 8 8 9 9 9 9
25 28 28 31 30 28 26 24 25 27 26 25 23 20 18 17 21 20 17 15 15 13 12 12 11 9 6 5 4 2 1 3 5 6 9 8 8 8 8 8 8 8 8
31 32 31 33 33 31 29 29 27 28 29 28 26 23 22 20 22 22 19 17 17 15 14 12 11 9 6 5 4 3 3 3 4 5 7 8 8 7 7 8 8 8 8
24 30 34 34 35 34 33 31 31 31 31 30 29 27 25 24 24 23 20 18 17 16 15 14 12 9 7 5 4 3 3 5 6 6 7 7 8 8 8 8 7 7 6
30 33 34 35 36 36 36 34 34 33 32 31 31 30 30 27 25 23 21 20 18 16 15 15 14 11 8 6 5 4 3 5 6 7 7 7 6 7 7 7 5 5 5
29 33 34 37 37 38 39 37 35 34 33 33 33 32 32 31 28 26 25 23 21 19 17 16 15 12 9 7 6 6 5 5 6 7 7 6 6 6 6 5 5 4 4
22 27 32 36 37 39 40 40 38 36 36 35 34 32 33 33 31 29 28 26 23 21 19 18 16 13 10 8 7 7 7 6 7 8 8 7 5 6 5 3 1 2 4
28 27 26 33 36 40 41 39 40 40 37 36 33 33 33 32 32 31 28 28 26 24 21 21 18 14 11 8 7 8 7 7 7 10 10 8 7 5 4 3 2 0 1
29 30 28 30 35 40 40 36 36 35 37 36 34 36 33 33 32 33 30 29 30 27 24 22 20 15 11 10 8 8 8 6 9 10 10 9 8 6 5 4 2 2 4
23 28 29 28 32 37 33 31 30 35 38 40 38 39 37 36 36 35 33 32 32 32 29 26 21 16 13 11 9 5 6 6 7 10 11 11 10 9 8 6 5 5 7
27 23 23 28 29 38 36 37 33 36 35 44 42 40 40 39 38 38 38 37 35 35 31 29 26 19 12 14 6 4 1 3 8 10 11 11 11 11 10 8 7 7 8
32 32 28 22 24 33 38 34 28 26 24 35 35 39 41 41 41 43 42 40 40 39 37 34 29 24 17 15 13 5 2 4 2 7 10 11 11 11 9 8 6 8 10
28 30 27 25 25 23 35 33 34 31 26 33 39 42 42 39 42 43 44 41 43 42 40 37 31 27 22 16 12 12 7 5 3 1 5 9 10 11 10 8 9 10 11
18 20 21 21 19 21 25 34 35 33 28 32 36 40 42 41 41 44 45 44 45 43 41 36 33 29 26 22 14 10 8 6 5 3 2 3 11 12 12 10 9 8 8
8 10 15 18 20 18 18 26 36 33 29 29 33 34 41 41 41 42 44 46 44 44 41 37 36 32 29 24 22 16 12 6 5 4 2 3 4 6 10 10 10 8 7

GFSSE_925_spd_042.txt.gz
Wind_Speed
17 21 20 19 18 18 18 17 18 17 16 13 13 11 9 9 8 8 8 7 6 7 10 11 15 15 14 11 11 9 9 9 9 10 11 11 10 10 9 9 8 8 7
23 23 21 20 18 18 16 17 16 14 14 12 9 10 9 7 7 7 7 7 8 8 11 10 16 15 13 11 10 11 11 11 11 10 11 11 10 8 9 9 9 7 7
30 25 22 21 20 18 16 15 15 15 12 13 10 8 7 7 8 9 9 8 10 10 11 15 16 12 11 8 9 12 11 12 11 10 12 12 12 8 7 8 7 6 6
30 25 24 22 20 18 17 16 16 15 13 13 10 9 9 8 9 11 11 9 11 14 15 14 12 11 9 10 12 11 10 10 11 12 11 12 12 8 7 6 5 5 4
29 26 25 22 20 19 18 17 15 14 13 13 12 11 9 9 11 12 12 11 11 11 11 10 10 8 9 12 11 10 8 8 8 10 9 10 10 5 6 6 6 5 4
27 26 24 22 22 21 18 16 16 15 14 13 12 11 10 11 11 12 13 12 11 10 9 8 7 9 11 11 9 7 6 5 4 6 8 11 10 11 10 9 10 10 12
27 25 23 22 21 19 17 17 17 16 15 15 14 12 12 12 12 12 12 11 10 9 8 9 10 11 11 9 6 5 4 4 7 8 8 9 9 10 11 12 15 17 16
27 25 23 21 20 18 16 16 17 18 18 16 14 14 13 12 12 12 12 12 10 10 9 10 11 9 8 6 4 4 4 4 7 7 8 8 7 10 9 12 13 14 13
26 25 24 22 19 17 15 15 17 18 18 16 16 16 14 12 11 11 11 11 10 9 10 10 8 7 6 5 5 5 5 7 7 7 7 7 9 9 8 11 12 12 13
25 24 24 22 21 18 16 17 19 18 18 16 18 17 14 11 10 10 10 10 10 10 10 10 8 7 6 5 5 6 7 7 6 7 8 8 8 8 10 11 11 10 11
24 25 24 23 22 20 18 19 21 17 17 17 19 18 16 13 11 9 10 10 10 10 10 9 8 7 6 6 7 7 6 6 5 6 8 8 9 8 10 9 10 9 10
21 23 26 25 24 22 21 20 21 21 20 20 21 20 18 16 14 13 10 10 10 10 9 9 8 8 6 4 4 4 3 4 5 8 9 8 8 8 9 8 9 10 10
21 23 26 23 26 25 24 22 23 25 24 22 23 21 20 18 17 16 13 12 12 12 11 10 9 7 6 5 3 3 3 4 5 7 9 9 8 7 7 8 9 9 9
23 23 22 25 29 28 26 25 25 27 27 26 25 24 21 19 18 20 18 15 14 13 12 11 10 9 7 5 4 3 3 4 6 8 10 8 8 7 7 8 8 8 8
19 23 25 26 28 31 30 28 27 28 29 28 27 26 24 21 19 22 21 18 16 15 14 12 12 10 7 6 5 3 3 5 6 7 9 8 8 8 8 8 7 7 7
23 24 24 28 29 31 33 32 30 30 30 30 30 29 27 24 22 23 22 20 18 17 15 14 13 11 9 7 6 4 4 6 7 8 8 8 7 8 8 7 6 6 6
28 30 32 33 31 32 34 34 33 33 32 32 32 30 30 28 26 25 24 23 20 18 17 16 15 13 11 9 7 6 5 6 7 8 9 8 8 8 7 6 6 5 5
22 27 33 33 33 34 36 36 36 35 35 34 33 33 32 32 31 28 28 25 22 21 20 18 17 16 13 10 8 8 8 7 8 9 9 9 8 8 7 5 3 4 4
23 24 28 33 34 37 37 38 37 37 36 36 35 35 35 35 34 33 31 27 26 24 24 22 21 19 15 12 10 9 8 8 9 10 10 9 8 8 7 5 3 4 3
21 23 25 27 33 35 37 35 35 37 38 38 37 36 36 36 35 36 34 31 30 29 27 26 24 20 15 13 11 10 9 9 10 11 12 11 10 9 8 6 4 4 3
23 23 23 28 33 35 29 28 29 30 37 39 41 38 36 35 36 36 36 35 34 35 33 30 27 22 16 16 11 6 7 7 9 12 14 14 13 11 10 9 8 8 6
29 27 28 26 29 34 32 34 28 32 31 41 41 41 39 38 37 37 38 38 37 36 36 34 32 25 17 19 8 5 1 4 10 12 14 15 15 14 13 11 10 9 8
23 28 28 27 24 29 35 35 30 22 25 26 32 37 42 41 39 39 40 39 39 39 41 39 36 32 24 23 16 7 2 4 3 9 14 14 15 15 14 13 12 10 10
21 20 22 25 28 25 29 33 30 29 26 27 34 43 43 43 41 41 42 41 41 41 43 43 40 35 28 21 21 18 8 5 3 1 7 12 14 15 15 14 12 11 12
16 18 20 19 22 23 27 34 33 28 26 28 32 34 37 42 43 43 44 43 44 43 44 44 44 39 34 28 25 15 15 10 8 3 3 5 12 14 15 14 13 12 11
21 19 18 13 16 19 22 27 34 34 31 28 30 31 36 39 40 42 43 44 46 46 46 46 44 40 37 29 30 19 17 8 9 6 2 3 6 11 16 16 14 11 10

GFSSE_925_spd_045.txt.gz
Wind_Speed
16 22 21 18 18 18 17 16 16 16 14 13 12 11 10 9 9 9 8 6 6 8 9 12 14 15 13 11 11 10 10 10 10 10 10 10 11 10 10 9 9 8 8
26 23 21 18 18 18 17 17 17 16 14 11 10 10 9 8 8 7 6 6 6 7 9 14 15 14 12 11 11 11 11 11 11 11 11 11 10 10 10 10 9 7 8
29 23 21 19 19 18 16 17 16 15 12 10 7 8 8 7 7 8 8 7 8 9 9 16 16 13 12 11 11 12 12 12 12 13 13 11 10 8 8 9 8 7 6
29 24 21 20 20 19 14 14 15 14 12 13 8 5 6 6 8 9 9 12 15 16 19 16 13 12 12 12 12 12 12 12 13 12 12 11 9 8 7 7 6 5 5
26 26 22 21 19 16 17 15 15 14 13 11 9 7 7 7 9 9 10 10 14 14 13 12 11 11 12 13 11 11 11 10 11 10 11 11 8 4 5 5 4 4 3
24 23 23 21 19 18 16 16 14 13 13 11 9 9 8 9 11 11 10 10 10 10 10 10 9 11 11 11 9 8 8 7 8 9 10 10 9 9 9 10 9 13 14
23 22 21 20 20 19 19 16 15 14 13 11 11 10 10 10 11 12 12 10 10 9 9 9 11 12 11 8 7 6 6 7 8 8 9 9 9 10 11 13 12 14 13
22 22 21 19 20 20 19 17 16 16 13 14 12 11 11 11 11 12 12 11 10 9 10 11 11 10 9 7 5 5 5 6 8 8 8 7 9 9 10 12 10 11 12
22 21 20 20 20 18 16 15 15 15 15 15 12 13 13 12 12 11 11 11 10 10 11 11 10 8 7 5 5 5 6 7 7 8 8 7 8 8 9 10 11 11 12
22 22 22 21 19 17 16 14 15 15 18 15 14 15 12 11 11 11 11 10 10 10 10 10 8 7 6 5 6 7 7 7 7 8 8 7 7 9 10 10 9 9 11
19 22 23 21 20 19 16 15 18 17 16 15 15 16 13 11 10 10 10 11 10 10 9 9 7 6 6 7 7 7 7 6 6 7 7 6 8 9 9 8 8 9 10
17 19 22 22 22 20 18 17 20 19 17 17 17 17 16 14 12 10 10 10 11 10 9 9 8 7 6 6 6 6 5 5 5 8 8 7 7 8 7 8 8 9 9
15 18 18 22 22 21 20 19 21 22 21 19 20 21 19 17 14 14 12 12 13 12 11 10 9 8 6 5 4 4 4 5 6 8 8 9 8 7 6 8 8 9 8
16 18 18 20 21 24 22 22 22 23 24 23 23 23 22 20 18 17 16 15 15 15 14 12 11 9 8 6 4 4 4 5 7 10 9 10 8 7 7 8 8 8 8
16 18 22 21 21 25 26 25 24 25 26 26 25 25 25 23 21 20 19 18 17 16 16 14 13 11 9 7 5 5 5 6 8 10 9 9 8 9 8 8 7 6 6
19 18 19 25 26 26 29 29 27 27 27 28 27 28 27 26 22 20 21 21 19 18 16 15 15 14 11 9 7 6 6 8 9 10 12 9 9 9 9 7 6 6 5
21 21 23 26 26 29 29 30 31 31 30 30 30 30 30 28 26 23 23 24 21 19 18 17 16 15 14 12 9 8 8 9 10 11 11 11 10 10 9 7 7 6 6
20 21 24 27 28 30 33 31 34 35 33 32 31 31 32 32 29 27 26 26 24 22 21 20 19 18 16 14 11 10 10 10 11 12 12 12 12 12 10 8 7 7 6
22 24 23 24 27 30 31 33 31 34 35 35 34 33 34 33 32 31 30 28 27 26 24 22 22 21 19 15 12 12 11 12 12 13 13 13 13 13 12 9 9 8 6
22 21 23 27 26 29 30 28 29 29 35 36 37 35 35 33 34 34 33 32 31 29 28 26 25 23 20 17 13 11 11 12 13 14 15 15 15 15 14 12 10 9 8
23 24 24 25 30 28 24 25 27 30 31 35 41 39 37 36 35 35 38 36 35 35 34 30 28 25 20 19 12 7 9 11 13 15 17 18 17 16 15 14 13 12 10
22 24 26 27 27 31 29 28 29 29 28 32 30 37 40 39 38 37 38 41 40 38 35 35 34 27 22 23 9 5 3 6 13 16 19 20 19 19 17 16 15 14 13
12 17 19 23 27 29 30 29 26 24 24 22 27 31 39 43 41 40 40 42 42 41 41 41 40 36 26 26 20 7 3 5 4 11 17 19 20 21 20 19 17 15 13
17 12 10 13 18 24 27 26 28 28 27 28 27 34 31 38 43 43 42 42 43 43 43 44 43 42 31 26 27 24 13 7 4 3 10 19 20 21 21 20 18 16 13
20 20 17 13 11 15 21 26 26 28 29 28 29 29 30 33 39 42 43 43 44 44 45 45 45 44 44 29 30 14 19 11 9 2 3 6 17 19 20 20 19 17 14
24 22 21 19 15 11 11 18 24 24 25 22 28 29 29 34 37 39 41 45 45 46 47 49 47 46 45 38 35 25 20 8 9 6 1 3 5 8 18 20 17 15 13

GFSSE_925_spd_048.txt.gz
Wind_Speed
14 19 20 18 18 16 16 16 15 15 14 12 10 9 9 8 7 5 5 5 6 7 9 13 12 12 10 10 10 10 10 10 10 9 9 10 10 10 9 8 9 6 7
20 20 21 18 17 18 16 18 15 15 13 10 10 9 8 8 8 6 5 5 5 8 10 15 14 12 11 10 10 9 9 9 10 10 11 11 11 9 8 9 10 7 7
21 20 20 17 18 18 17 18 17 15 12 8 7 8 8 7 6 6 4 7 6 9 13 16 14 12 11 11 10 10 10 11 11 12 14 9 8 8 7 8 8 6 5
19 20 19 19 20 19 18 18 16 13 10 9 7 7 7 7 8 8 8 9 10 10 17 14 11 10 11 11 10 10 10 11 11 12 8 8 8 7 6 6 5 4 4
18 18 18 19 20 18 15 14 14 13 12 10 8 6 7 8 10 10 10 15 16 17 14 12 11 11 11 10 9 9 9 10 10 9 8 6 5 4 4 4 3 4 2
17 16 17 20 19 16 15 13 12 13 13 11 9 7 7 9 10 10 9 11 12 11 10 10 9 11 11 9 8 8 7 7 8 7 7 7 8 9 11 10 14 15 13
15 15 16 19 16 15 14 13 12 12 11 10 8 8 8 9 10 10 8 8 8 8 9 10 10 10 9 8 6 6 6 7 6 6 7 7 8 10 11 12 11 11 14
15 15 16 16 17 16 15 14 12 12 12 11 10 9 10 10 10 10 9 9 9 8 8 10 10 9 7 6 5 4 5 7 6 5 5 6 8 9 10 10 8 8 9
14 16 15 15 16 16 16 16 14 14 11 13 11 10 11 11 11 10 10 9 8 9 9 10 9 7 6 5 4 4 6 7 4 4 4 5 6 7 8 10 10 9 10
14 15 15 15 14 14 13 15 15 14 14 14 11 12 11 10 10 10 11 10 9 9 10 9 7 6 5 4 4 6 6 6 3 4 3 3 6 8 10 9 8 8 9
13 14 14 14 14 13 12 12 14 16 17 15 12 13 11 10 10 10 10 11 11 10 10 9 8 6 5 5 6 6 6 3 4 3 3 5 6 8 8 7 7 7 9
12 14 14 14 14 13 12 11 13 14 15 13 13 15 13 11 10 10 10 12 12 10 10 9 8 7 7 6 5 5 3 3 3 3 4 7 7 7 6 7 7 7 8
12 13 14 14 14 14 13 12 13 14 15 15 15 16 15 13 11 10 9 10 11 12 10 10 9 7 7 6 5 4 4 4 4 4 5 8 8 7 6 7 7 7 7
13 14 14 15 16 17 15 15 14 15 15 15 16 18 16 15 14 14 13 12 12 12 12 11 10 9 8 7 6 6 5 5 5 5 6 10 8 7 6 7 7 7 7
14 15 16 16 17 17 18 16 16 16 17 17 17 18 18 17 16 16 15 14 14 14 14 14 12 10 9 7 6 6 6 5 6 6 7 12 10 8 8 7 7 6 6
16 15 16 18 18 18 18 19 18 17 17 18 19 20 22 20 18 17 17 17 16 16 15 14 13 11 10 8 8 7 7 6 6 7 6 7 10 10 9 8 6 6 5
13 15 18 19 20 21 20 22 21 19 18 19 20 20 21 22 20 19 18 18 19 18 16 15 14 12 11 10 9 8 7 7 8 8 8 7 8 11 10 8 7 7 6
15 15 16 18 20 23 23 24 28 21 20 19 20 20 23 24 23 21 19 19 19 18 18 17 16 14 13 12 10 9 8 8 9 10 10 10 10 9 11 9 8 8 7
18 18 19 20 22 23 23 24 28 28 21 22 22 22 22 24 25 23 22 21 20 20 19 18 17 16 15 13 12 10 9 9 10 11 11 12 12 12 11 13 11 12 9
15 16 18 18 21 22 22 22 25 29 30 23 23 23 23 25 26 27 24 23 23 23 22 21 19 17 16 14 12 10 10 10 11 12 13 13 13 14 13 12 12 11 12
13 15 16 17 19 21 22 21 24 26 32 29 29 25 24 25 26 28 28 26 26 26 26 24 22 20 16 15 10 9 9 11 13 14 14 15 15 15 14 14 13 11 11
10 13 15 17 19 20 23 24 25 24 26 25 26 29 27 26 27 29 30 30 29 28 28 27 26 20 19 20 12 9 4 9 15 17 17 18 17 16 16 15 14 13 11
9 6 8 12 16 18 20 21 23 23 22 20 25 28 31 34 30 32 32 30 31 31 30 31 29 27 22 20 22 11 4 6 9 13 19 18 18 18 17 16 16 14 12
10 9 8 6 8 12 16 19 24 25 26 26 27 25 26 28 32 31 32 30 30 31 31 33 32 32 24 22 20 23 11 1 4 3 10 17 18 19 18 17 15 13 13
9 9 9 8 7 6 9 15 21 25 26 25 25 25 26 26 30 34 32 32 31 31 34 31 32 33 36 27 25 14 18 11 8 4 3 7 15 17 17 17 15 14 13
11 11 10 9 8 7 6 7 16 23 23 23 22 23 24 23 24 29 32 33 34 32 30 33 32 31 34 32 26 23 22 14 17 12 6 4 7 12 15 17 16 15 15

GFSSE_925_spd_051.txt.gz
Wind_Speed
15 20 23 19 16 15 13 13 13 12 12 10 8 7 6 6 4 4 4 5 6 7 10 10 10 10 11 10 10 10 10 10 9 9 9 10 10 10 9 10 8 8 8
19 19 21 18 15 14 13 14 14 13 10 7 7 7 6 5 4 4 4 4 5 5 12 13 11 11 11 11 10 9 9 10 10 11 13 13 11 10 9 10 11 9 8
18 19 19 17 14 15 15 14 14 13 9 7 5 6 6 5 4 5 3 5 5 7 13 13 11 10 10 10 10 9 9 10 13 14 11 8 8 8 9 9 9 7 6
17 18 17 17 15 15 16 14 13 11 7 7 6 7 6 6 7 6 7 7 8 11 15 11 9 10 10 10 10 10 10 11 13 10 7 7 7 8 7 7 7 5 5
16 16 17 16 17 16 14 13 12 9 9 6 5 5 6 8 9 10 14 15 17 16 12 9 9 10 10 10 9 9 10 11 12 9 7 6 8 7 6 5 8 5 4
16 15 16 16 17 15 13 13 10 10 10 7 3 4 7 9 9 9 11 14 14 11 9 8 9 10 10 9 8 7 7 9 8 6 7 9 11 12 14 15 15 19 12
15 15 14 16 17 14 12 11 10 10 10 7 5 4 7 9 9 6 8 9 9 8 7 8 9 9 8 7 6 6 5 7 5 6 8 12 10 11 13 12 11 13 13
14 13 15 17 13 12 12 11 10 9 9 8 7 5 8 9 9 8 7 7 7 7 7 8 8 7 6 5 4 4 5 7 4 5 6 10 9 10 10 11 11 9 10
12 13 15 15 14 14 13 11 10 10 11 8 8 6 8 9 10 9 8 10 7 7 8 8 7 5 4 3 3 4 6 6 3 4 6 8 6 8 9 10 10 10 10
12 13 14 14 15 13 12 13 12 11 10 9 9 8 9 8 9 9 9 9 8 8 8 7 6 5 4 3 4 5 6 6 3 4 5 6 6 9 8 9 8 8 10
11 12 13 14 14 14 13 12 14 13 12 12 9 10 9 8 8 7 8 8 9 8 8 7 6 5 4 4 4 5 6 1 2 2 3 4 8 8 7 6 6 7 8
10 13 13 12 13 12 12 10 12 11 13 14 10 12 11 10 10 9 9 10 11 9 9 9 7 5 6 4 5 5 1 3 2 3 4 5 7 5 5 6 7 7 7
12 11 11 12 12 13 12 11 11 13 13 14 13 14 13 12 11 11 9 11 11 12 9 10 9 8 6 6 5 5 3 3 3 3 5 5 6 5 6 6 6 6 6
12 13 13 12 13 13 12 13 12 14 14 14 15 16 15 13 12 12 12 12 13 13 13 11 10 10 9 8 7 6 5 5 4 4 7 8 8 7 6 6 6 6 6
13 14 15 14 13 13 15 14 14 15 15 15 15 17 17 15 15 14 14 13 13 13 14 14 13 11 11 9 8 7 7 6 5 5 6 9 11 8 7 8 7 7 6
14 13 13 13 15 15 17 16 15 15 14 15 16 17 20 18 17 16 15 15 14 15 15 15 15 13 12 10 10 8 8 7 7 7 7 8 12 9 9 9 7 6 6
14 14 15 15 17 18 18 17 17 16 15 16 17 18 20 22 19 18 17 17 17 16 16 15 15 15 14 12 11 10 9 9 8 9 9 9 11 12 11 10 9 8 7
11 11 13 15 16 18 18 17 18 18 18 17 17 18 20 22 23 22 21 20 18 18 17 18 17 16 15 15 13 12 11 10 10 10 11 10 10 10 15 12 11 9 9
18 18 17 16 17 19 20 20 22 22 19 18 18 19 20 21 22 24 23 22 21 21 22 20 19 19 18 16 15 14 12 11 11 12 13 13 13 13 11 15 15 12 11
15 16 17 18 19 20 20 20 20 25 25 23 21 22 21 22 25 26 24 23 22 22 23 22 22 21 19 17 15 13 12 12 12 14 14 15 15 16 15 14 18 17 16
13 14 16 16 17 18 19 21 18 22 29 26 31 23 23 24 24 26 26 25 25 25 26 26 24 22 20 17 14 11 11 12 15 16 16 17 17 17 18 17 14 15 16
9 11 13 16 17 19 20 20 20 20 22 27 27 30 24 26 28 28 29 30 29 29 28 28 27 23 21 21 15 12 4 10 18 19 18 19 19 19 20 20 19 17 13
4 4 5 10 13 16 18 19 21 19 21 20 22 26 26 29 28 28 29 30 28 28 29 31 29 29 24 24 25 10 4 5 9 16 21 19 19 20 20 21 21 20 19
5 5 5 5 6 10 15 17 19 20 20 21 23 21 22 24 27 32 29 30 29 28 29 31 32 31 25 25 22 28 20 5 3 3 11 18 19 20 21 21 21 21 19
7 8 7 7 6 5 7 12 16 20 22 22 22 23 24 22 24 26 30 28 31 30 31 31 30 33 35 27 28 17 22 13 10 4 4 7 17 21 21 22 22 21 22
7 8 9 9 9 7 7 7 10 15 18 20 21 21 21 20 21 22 25 30 30 31 32 33 33 32 33 34 27 27 23 15 17 9 4 6 10 15 22 20 20 21 19

GFSSE_925_spd_054.txt.gz
Wind_Speed
19 27 21 19 17 15 14 14 12 11 11 12 11 10 9 8 7 7 7 8 8 9 11 12 12 13 13 13 13 12 11 13 13 13 12 12 13 12 11 15 10 11 12
21 27 22 19 17 15 14 13 13 13 9 7 5 4 7 6 6 6 6 7 8 10 13 13 13 13 12 12 12 11 12 14 15 16 17 15 13 12 12 11 10 11 10
22 22 22 17 16 15 15 15 14 12 8 7 5 3 6 6 6 6 7 8 9 13 15 13 13 12 12 12 11 11 14 16 14 11 10 12 13 12 12 12 10 9 9
24 21 21 19 16 16 15 14 13 9 6 6 6 8 7 8 7 9 9 10 11 16 13 11 11 12 12 12 12 12 14 15 13 13 12 10 10 10 10 10 7 7 8
22 22 20 18 17 16 15 13 13 7 6 7 7 8 9 10 12 15 15 12 16 14 11 10 11 12 12 12 12 13 15 13 13 11 8 7 10 10 9 14 14 10 9
20 22 19 17 18 16 13 13 11 10 7 5 4 7 11 10 12 14 16 17 16 11 10 9 11 11 11 10 10 10 12 12 13 9 11 12 14 16 16 17 21 19 20
24 20 18 17 17 17 14 12 10 9 7 5 2 6 10 10 9 11 13 12 11 9 9 10 10 10 9 8 9 9 11 12 12 9 7 12 12 14 13 13 13 13 14
19 18 19 17 16 15 13 11 10 10 8 6 4 6 10 10 8 9 10 9 7 7 8 9 9 8 7 6 6 8 9 8 10 5 5 9 10 11 11 12 12 12 12
18 18 18 19 14 13 13 12 11 10 9 9 6 6 10 11 12 8 9 8 8 8 9 9 8 6 5 4 5 6 8 7 8 7 5 7 9 10 10 11 12 12 12
13 17 17 16 14 14 13 12 9 9 10 9 7 6 9 10 10 8 9 11 9 8 9 9 7 5 4 3 5 7 9 7 6 4 5 6 9 9 8 9 10 10 11
13 14 18 18 17 16 14 15 12 10 10 9 9 7 8 7 9 7 9 8 9 9 9 8 6 4 3 4 5 7 8 4 3 4 6 5 9 8 7 7 8 8 9
11 13 15 18 15 17 17 13 14 14 14 13 10 10 9 10 7 9 9 9 10 9 8 8 6 5 5 4 5 7 5 2 3 3 4 4 8 6 6 7 8 8 9
9 10 13 13 14 15 13 11 11 15 14 16 13 11 13 15 13 12 11 10 13 12 12 10 8 8 8 8 5 5 3 6 4 5 4 4 6 6 6 7 8 8 8
12 8 9 11 13 14 15 14 13 20 16 18 21 18 12 17 17 14 11 11 15 13 13 11 9 9 8 10 8 7 9 9 7 7 8 7 8 8 7 7 8 8 8
17 12 13 12 11 15 16 15 16 18 19 16 19 19 18 18 18 15 16 15 12 18 14 20 12 11 13 11 10 10 9 10 11 9 9 9 11 9 8 9 9 8 8
13 15 17 16 18 15 18 17 16 14 15 16 17 18 19 19 19 18 18 20 17 17 17 18 15 17 15 13 14 13 11 11 11 11 10 11 12 12 10 10 10 9 8
21 20 22 18 18 20 15 18 17 16 17 18 19 18 20 21 19 20 21 20 21 20 20 18 17 17 17 16 16 15 14 14 14 13 11 12 12 15 12 13 12 11 10
8 4 16 22 19 17 20 19 25 19 15 16 16 19 22 24 25 22 23 24 19 21 22 22 20 19 18 18 18 17 17 16 14 15 16 12 13 14 17 16 14 13 12
11 12 12 11 14 19 19 17 19 20 21 17 18 20 20 25 27 29 26 25 25 22 24 24 23 22 21 19 19 18 20 17 18 17 17 17 14 14 15 19 18 17 15
7 7 14 14 17 18 14 20 23 24 21 24 22 19 23 24 27 28 30 28 26 27 26 28 26 24 24 22 20 20 20 19 18 20 20 20 20 17 16 17 20 21 21
9 10 9 10 12 12 15 18 19 25 25 25 26 29 22 26 28 28 31 32 30 31 33 31 30 26 25 23 21 18 15 19 21 21 22 23 23 25 23 20 22 22 24
6 7 8 10 13 15 17 20 17 17 26 30 29 31 34 22 28 32 30 35 35 34 32 32 33 30 30 30 20 12 3 10 23 26 25 25 26 27 26 25 22 21 24
7 7 7 10 14 15 13 14 18 19 17 21 23 24 28 30 29 19 29 32 32 32 34 34 36 34 28 32 32 12 3 5 6 19 31 28 28 28 28 28 27 22 22
5 4 5 6 8 8 11 16 16 17 18 15 21 22 22 22 24 26 33 25 32 30 32 33 33 35 28 26 34 36 21 5 4 2 13 30 29 28 30 29 30 29 27
3 5 7 7 8 7 8 8 12 15 17 20 22 20 20 22 23 25 27 25 33 31 32 33 33 33 36 27 30 26 30 22 14 3 3 8 25 29 27 31 31 30 30
6 7 8 9 9 9 8 8 9 10 14 17 19 19 20 22 20 22 25 27 27 32 33 33 33 31 32 36 29 31 27 19 16 8 2 3 8 19 30 24 27 28 29

GFSSE_925_spd_057.txt.gz
Wind_Speed
26 24 22 19 19 18 17 15 13 12 11 12 12 12 11 10 9 9 10 11 11 14 14 14 14 14 15 14 13 14 14 16 17 18 14 14 14 14 17 12 11 13 12
30 25 23 21 20 18 17 16 15 15 12 10 8 7 9 8 8 9 9 11 13 15 15 15 14 14 13 13 13 14 16 17 17 18 16 15 15 13 12 12 12 12 11
31 26 23 21 20 18 17 17 17 13 10 9 8 5 7 8 9 9 10 11 15 16 15 14 14 13 12 12 13 16 16 15 12 11 13 14 13 12 11 11 12 11 10
32 26 23 19 18 18 18 17 16 10 8 7 7 8 9 10 10 12 12 13 17 15 14 13 13 14 13 12 15 17 15 14 15 12 8 10 10 10 9 8 10 9 8
28 26 24 21 18 19 18 16 14 9 9 9 10 11 13 13 14 13 14 16 16 13 13 13 14 14 13 14 16 16 14 13 11 13 11 10 11 13 18 17 12 8 9
28 23 22 19 18 17 16 18 13 9 8 9 10 13 13 14 16 16 17 17 15 13 12 13 14 13 13 12 14 14 15 13 13 10 11 13 16 14 16 18 15 17 15
28 23 21 18 19 18 17 14 12 10 8 6 8 13 13 13 14 15 16 15 12 10 10 12 12 12 11 12 12 13 12 12 12 8 11 12 12 11 12 12 11 11 13
30 24 20 20 19 19 15 14 10 11 9 5 7 12 13 11 12 13 13 12 9 8 9 11 11 10 10 10 11 13 10 9 10 7 8 10 10 11 10 11 11 11 11
25 23 23 21 19 17 15 12 12 11 10 8 6 10 15 13 10 13 12 11 8 8 9 11 10 9 8 8 10 12 8 8 11 8 7 6 8 10 10 10 11 10 11
22 19 22 21 19 18 15 13 12 11 12 9 7 7 12 14 13 11 12 11 10 9 10 10 9 8 7 8 10 13 11 11 8 6 6 8 9 9 9 9 9 9 10
24 21 23 19 17 17 16 15 13 11 12 11 9 7 11 12 12 10 13 13 11 11 11 10 8 7 6 7 9 13 11 8 8 7 7 9 8 9 8 8 8 8 9
22 23 21 18 19 20 20 19 17 15 14 13 13 10 12 11 11 11 12 12 12 13 12 10 8 7 7 7 8 11 9 5 6 8 9 8 8 8 7 8 7 8 9
14 16 25 20 17 21 23 21 19 18 16 16 13 11 13 14 12 12 12 12 13 14 14 13 11 10 10 9 9 11 8 7 6 7 8 8 7 8 9 9 8 9 9
11 9 13 21 20 21 21 20 14 15 16 19 18 14 15 18 18 16 14 13 15 16 15 14 12 11 12 10 11 10 10 10 10 10 10 9 8 9 11 11 11 10 9
14 13 15 16 18 21 20 17 15 16 16 15 22 19 15 18 23 20 15 14 14 17 16 15 13 12 14 12 11 11 12 11 13 11 12 11 10 9 11 12 12 11 11
18 13 17 18 17 15 21 19 18 22 20 17 18 22 23 17 21 23 18 17 16 16 17 18 17 16 16 16 15 15 14 13 14 13 14 14 13 12 12 12 13 13 12
21 19 17 21 25 21 18 18 17 18 16 20 20 16 22 21 21 23 21 21 21 19 17 20 20 21 21 22 18 18 18 16 16 18 16 16 16 15 15 15 15 14 14
14 24 20 21 20 25 24 19 21 18 19 16 19 20 22 24 25 24 25 24 21 24 23 22 21 22 24 24 21 21 20 19 18 19 18 18 18 18 18 18 19 17 17
7 8 11 21 21 16 20 25 21 25 23 20 19 20 23 25 26 29 29 28 27 25 27 28 28 27 25 25 23 23 22 23 23 21 21 22 21 21 20 20 23 21 20
5 2 2 5 16 18 15 18 23 23 24 28 24 25 25 23 27 31 32 33 30 29 29 28 32 32 30 28 25 24 25 24 26 26 25 25 26 24 23 22 26 26 24
4 0 1 3 3 2 7 17 25 27 29 26 28 31 28 25 24 30 35 34 34 33 34 35 31 32 32 29 20 20 23 24 27 30 28 27 28 28 26 26 26 27 27
8 4 4 6 9 7 8 8 4 11 21 29 29 31 29 30 30 22 27 34 34 37 35 35 36 33 34 31 18 4 2 10 26 31 30 31 32 31 31 30 30 28 28
9 9 8 7 7 10 13 14 13 9 5 10 17 22 24 25 26 29 27 25 32 35 37 37 37 38 28 32 34 15 2 6 3 22 38 36 36 35 35 35 32 30 29
7 5 5 5 7 6 8 8 9 11 11 13 12 13 19 24 24 21 21 26 32 29 32 36 35 36 36 26 29 37 25 6 4 2 12 33 38 35 35 35 34 31 30
5 4 6 6 6 8 6 7 8 9 11 13 15 17 14 14 18 24 22 22 23 25 28 30 30 29 35 30 31 26 31 21 11 3 4 6 27 36 34 33 34 33 31
6 5 6 7 7 7 8 6 7 8 9 10 11 13 15 16 13 14 22 23 25 24 24 25 29 29 28 31 27 31 28 16 22 9 3 4 6 13 27 27 30 33 30

GFSSE_925_spd_060.txt.gz
Wind_Speed
25 25 23 21 19 18 18 17 15 15 14 13 13 13 10 9 9 10 11 12 14 14 13 13 13 13 13 13 13 14 16 17 17 16 14 14 14 14 12 11 12 11 10
31 27 24 21 20 18 17 17 17 16 14 12 10 7 9 8 9 10 11 13 14 15 14 13 12 12 12 13 14 16 16 17 17 16 15 14 13 12 11 11 11 10 9
30 28 24 22 21 19 18 19 19 15 12 11 9 5 7 8 10 10 12 15 16 15 13 12 12 11 12 14 15 16 15 12 12 13 13 12 12 10 11 11 10 8 7
30 28 25 23 21 20 20 19 17 12 11 9 8 6 9 9 11 11 13 16 15 14 12 12 12 11 12 14 15 14 13 12 9 8 10 10 9 6 9 10 8 7 5
30 27 24 22 20 20 20 19 15 12 7 8 11 12 11 12 13 13 13 17 14 12 11 13 12 13 14 15 15 12 10 9 10 10 10 9 13 16 15 9 7 8 11
29 26 23 21 19 20 19 17 14 8 9 10 13 17 14 15 15 14 17 15 12 10 11 13 13 14 15 16 14 11 11 12 13 12 16 15 12 14 14 13 14 11 12
28 26 23 19 19 19 18 16 12 10 9 10 13 16 15 15 17 16 16 14 11 9 9 12 12 13 14 16 13 11 12 13 13 12 11 11 8 8 8 8 8 8 9
28 25 22 19 20 18 17 14 12 10 8 8 12 14 14 14 15 15 16 13 10 8 10 11 11 11 12 14 13 11 11 10 10 8 9 9 9 8 8 8 8 7 8
27 26 23 23 20 19 17 15 11 11 8 8 11 15 12 11 13 13 14 11 9 9 10 12 11 10 10 11 13 10 7 10 9 8 7 6 6 8 7 8 7 7 8
27 24 24 24 23 21 18 16 14 13 11 7 9 13 15 14 13 13 12 10 9 9 10 11 10 9 9 10 13 11 8 11 9 8 7 6 6 9 8 8 8 8 8
24 23 24 24 23 22 20 17 16 15 13 10 8 10 14 15 14 13 13 11 10 9 9 10 9 8 8 9 12 13 10 9 10 9 8 7 7 8 7 7 8 7 7
23 25 24 24 23 23 20 18 17 15 14 13 11 11 13 14 14 13 12 14 12 11 10 10 8 7 7 8 11 13 10 7 11 11 10 9 8 7 6 7 7 8 8
24 25 25 23 21 23 23 21 19 17 15 14 13 13 12 13 13 12 13 14 13 14 14 12 11 10 8 9 10 12 10 8 9 12 11 10 8 8 8 8 7 8 8
20 23 23 23 22 24 23 23 21 19 18 17 16 15 15 16 15 14 14 14 13 15 16 15 14 11 11 11 10 12 11 10 9 11 13 12 10 8 9 10 9 9 9
17 17 21 25 23 25 25 23 22 19 18 17 18 17 16 18 18 17 16 15 15 17 18 17 16 15 15 16 14 15 13 15 14 14 15 15 12 11 10 12 11 10 10
18 18 17 18 24 26 27 25 22 18 15 17 17 17 20 19 22 21 21 20 18 18 19 19 19 18 16 18 19 17 16 17 17 16 17 18 17 14 12 13 13 13 12
20 19 23 22 21 22 23 24 22 19 19 20 21 21 22 22 23 23 23 25 21 19 19 20 21 20 21 20 22 20 20 20 20 20 20 21 20 18 17 15 16 15 15
19 22 17 18 25 22 21 23 23 20 21 21 25 24 23 25 25 25 26 29 26 23 24 25 24 25 25 26 27 27 24 22 23 23 23 22 23 22 20 18 19 19 18
14 19 24 21 18 23 23 23 22 23 22 19 20 25 26 22 25 28 28 29 28 27 27 28 29 29 28 29 29 29 28 26 25 24 25 25 25 26 25 22 21 23 21
12 10 10 16 20 19 20 21 26 24 25 26 23 23 26 25 28 30 30 31 30 29 29 28 31 31 30 30 28 30 29 28 27 27 29 28 28 29 28 26 24 26 25
12 11 10 8 6 10 18 21 20 23 29 28 30 31 27 25 25 26 31 33 33 31 32 32 31 31 33 33 24 26 29 29 29 31 30 32 33 33 33 31 29 28 28
8 5 4 4 2 3 5 8 9 12 20 28 30 29 26 28 29 28 28 27 29 35 35 34 35 34 32 30 17 2 3 14 31 35 34 36 37 36 36 36 33 31 30
7 6 4 3 4 2 0 5 8 9 8 9 11 16 17 18 23 26 26 27 29 28 32 33 35 34 27 26 29 15 0 5 2 14 35 40 40 40 39 38 37 35 33
7 5 5 4 5 5 3 3 2 4 7 9 10 12 12 13 16 20 23 25 24 24 28 29 30 32 32 23 21 34 29 9 4 4 11 24 37 37 38 38 37 36 36
6 5 5 5 5 5 5 4 4 3 4 5 6 8 10 13 13 13 16 21 24 22 22 22 22 25 27 28 26 20 29 24 12 7 9 8 15 27 39 37 37 36 37
7 6 5 5 5 4 4 4 4 4 4 3 4 6 7 5 1 3 6 12 18 21 21 21 20 20 23 25 25 26 21 11 19 16 7 11 6 10 24 34 37 37 38

GFSSE_925_spd_063.txt.gz
Wind_Speed
20 24 22 20 19 17 16 14 13 12 11 11 11 11 10 10 11 11 12 12 11 12 12 12 12 12 13 15 14 15 14 14 13 12 12 14 12 11 11 11 8 8 8
31 26 23 21 19 17 16 15 14 13 13 12 10 9 8 9 10 11 11 12 12 12 11 11 11 12 13 13 14 15 15 14 14 14 12 12 11 10 9 7 7 8 7
29 26 23 21 19 18 16 16 15 14 14 12 7 5 7 9 10 11 12 12 12 11 10 10 10 11 12 13 14 13 11 11 12 12 11 11 10 8 9 8 7 6 5
28 27 23 21 20 18 18 18 16 12 11 10 5 5 9 10 11 13 13 13 11 9 9 10 10 11 12 13 12 10 10 8 8 10 9 8 6 6 7 6 5 4 4
29 27 24 22 20 19 20 18 14 10 6 6 6 9 9 11 12 14 15 12 9 7 8 10 10 11 12 12 11 9 7 7 8 7 9 13 12 12 7 5 6 9 11
29 26 24 21 19 20 19 16 12 7 5 9 12 11 12 11 13 12 16 12 8 6 8 10 11 12 13 12 10 8 9 9 9 12 13 11 13 11 11 11 9 8 12
28 24 20 18 19 20 18 15 10 6 6 10 14 12 12 13 12 14 13 11 8 6 8 10 10 11 12 10 9 7 10 9 10 11 10 8 6 4 4 4 5 4 6
29 25 21 17 18 18 17 14 10 7 8 11 15 12 12 12 12 12 12 9 7 5 7 8 9 10 11 9 8 7 8 8 9 6 6 5 4 4 4 4 4 3 4
27 26 22 19 18 16 16 12 10 7 6 9 15 14 11 11 12 10 10 8 6 5 6 7 7 7 8 8 7 6 5 6 6 4 4 2 2 4 3 3 3 3 3
25 24 23 22 21 17 16 13 11 9 7 7 12 14 13 12 12 11 10 8 6 5 5 6 6 5 6 7 7 7 5 7 7 5 4 2 3 4 4 3 3 3 3
24 23 23 25 23 21 18 16 13 12 10 8 7 12 13 13 12 12 11 10 9 8 7 7 6 5 5 7 8 7 6 7 8 8 7 5 4 5 4 4 3 3 2
22 22 23 24 24 23 21 18 17 15 13 11 9 10 13 13 12 11 12 12 11 10 9 9 8 7 7 8 9 10 9 8 9 9 9 8 6 6 5 5 5 5 4
24 22 23 24 23 23 22 20 18 16 14 13 12 11 11 12 12 13 12 14 14 12 11 11 11 10 9 9 10 11 12 9 8 12 12 11 9 8 8 8 6 5 5
23 23 23 24 24 24 22 21 19 18 17 16 15 13 13 13 13 13 13 13 15 14 13 14 13 12 11 11 11 13 14 13 11 12 13 14 12 10 9 9 8 7 6
22 22 23 24 23 23 24 22 21 20 19 17 16 16 15 15 16 14 14 14 15 14 15 16 16 16 15 14 15 15 15 16 14 14 15 16 16 14 11 10 10 9 8
22 23 24 24 23 23 24 23 23 22 19 16 16 17 18 16 17 18 17 18 17 16 16 17 18 18 18 18 18 19 19 19 18 17 17 18 18 17 15 12 12 12 11
24 22 22 23 27 27 26 25 24 23 21 18 16 16 18 19 19 20 20 21 21 19 19 19 19 20 21 21 21 20 22 21 21 21 20 19 20 21 20 16 14 14 13
19 21 23 22 21 22 27 27 27 24 23 20 19 19 20 22 23 24 25 25 24 24 23 22 22 23 25 25 25 25 25 25 24 24 24 23 23 24 23 21 18 16 16
20 20 19 19 20 23 21 22 23 24 24 23 23 23 23 25 26 28 29 28 26 27 28 28 28 27 28 29 30 29 29 30 30 27 28 27 26 26 27 25 23 21 20
12 16 19 22 20 16 20 21 21 21 23 23 23 22 23 25 28 30 32 31 30 28 29 31 30 31 31 33 32 33 32 32 32 32 32 29 29 29 30 29 27 26 24
10 10 9 11 16 19 19 19 19 22 26 26 25 26 25 22 23 26 29 30 30 29 29 28 30 30 31 30 27 26 29 31 31 34 35 33 33 33 33 33 32 30 28
8 8 8 6 5 5 8 13 16 16 18 23 26 26 23 25 24 24 25 26 24 24 25 28 32 30 28 27 13 5 4 13 25 33 37 37 38 37 36 35 35 33 32
9 7 5 3 2 4 5 8 9 9 9 11 11 12 12 14 17 19 21 23 23 22 24 25 28 29 25 23 24 15 2 4 3 11 22 31 39 40 39 36 34 34 35
7 5 5 5 4 1 2 4 6 8 10 10 10 12 14 12 12 13 16 20 22 23 22 22 22 25 25 21 18 22 28 16 3 6 9 15 19 24 32 35 35 34 35
9 6 4 4 3 3 2 1 2 3 4 5 5 7 9 12 14 15 14 15 18 21 22 21 20 20 20 20 20 18 20 22 20 5 10 5 12 15 17 22 30 33 35
9 7 4 3 3 3 2 2 0 1 2 3 2 2 3 3 3 6 6 8 12 17 19 20 18 18 17 17 18 19 18 10 7 10 7 10 12 18 21 23 23 25 28

GFSSE_925_spd_066.txt.gz
Wind_Speed
18 24 21 20 18 16 15 13 12 11 9 9 10 11 11 10 11 12 13 13 13 13 13 12 13 14 14 14 14 14 14 14 13 14 15 12 12 11 11 7 6 8 9
28 25 22 20 18 16 14 12 11 11 10 10 11 10 9 10 11 12 12 13 12 12 11 11 12 13 13 14 14 14 14 14 14 14 13 12 12 10 8 7 8 8 8
31 26 23 20 18 17 15 14 13 12 12 10 7 7 9 9 11 12 11 11 11 10 10 11 11 12 12 12 12 11 11 12 12 12 11 12 11 9 9 9 8 6 5
28 26 23 20 19 17 17 16 14 14 12 8 4 5 9 10 11 12 11 10 9 9 9 10 10 11 11 10 9 9 8 9 10 10 10 8 10 8 7 8 7 7 4
28 27 23 20 20 18 18 17 13 9 7 4 2 7 9 11 12 11 11 8 7 7 9 10 10 10 10 9 8 7 6 7 7 10 14 13 12 8 7 8 12 13 9
27 25 23 21 19 18 18 15 11 7 3 4 9 8 10 11 12 11 10 7 6 7 9 10 10 10 9 8 6 6 8 8 8 13 13 14 11 11 11 10 11 12 14
27 24 23 21 19 19 16 13 8 3 6 11 10 9 9 11 11 14 10 7 5 6 8 9 9 9 9 7 5 6 6 8 9 9 8 8 6 6 6 7 7 6 5
27 24 20 18 18 18 15 12 7 4 7 13 13 10 11 10 10 8 9 6 4 5 6 7 7 7 7 5 4 5 5 4 4 4 3 2 2 4 4 4 3 4 3
25 23 20 17 18 16 14 11 8 5 6 12 14 11 10 9 8 8 8 6 3 3 4 4 5 5 5 4 3 2 2 2 1 0 1 3 4 4 4 4 4 4 3
24 22 21 18 17 16 14 10 8 4 5 8 13 12 10 11 10 9 7 6 4 2 2 4 3 3 3 3 3 3 1 4 4 3 2 2 3 2 3 4 4 3 3
23 23 21 19 19 17 14 11 8 6 5 5 7 10 10 9 10 9 8 7 5 4 4 4 4 4 4 5 6 7 5 4 6 6 5 3 2 1 2 4 3 3 2
19 22 21 21 21 18 17 16 12 10 8 7 6 7 10 10 9 9 9 9 8 7 6 6 6 6 6 6 6 8 9 8 7 8 7 6 4 4 4 5 6 4 3
22 21 20 21 20 20 19 17 16 13 11 10 9 8 9 11 11 11 11 11 12 10 10 9 10 9 8 7 7 9 10 11 10 10 10 9 8 6 6 6 6 5 3
21 20 18 21 21 20 19 17 16 15 13 12 11 11 11 11 12 12 12 11 12 12 11 11 12 11 11 9 9 10 11 12 12 11 11 11 11 9 8 8 7 6 5
20 19 19 20 21 20 20 18 17 16 15 13 13 14 13 13 13 12 12 11 11 12 12 13 13 14 13 13 12 13 13 13 14 14 13 12 14 14 11 10 9 8 8
20 19 19 19 20 20 20 20 19 18 17 16 15 15 15 15 14 14 14 13 13 13 12 13 14 15 16 16 16 16 17 18 18 18 16 16 16 17 16 13 12 12 11
20 20 20 20 20 21 20 20 20 20 20 19 17 16 15 15 16 16 16 16 15 16 16 16 16 17 18 18 20 18 19 19 21 20 20 19 19 19 19 18 15 14 14
19 20 18 20 22 23 22 22 23 22 21 21 19 18 17 17 17 19 20 19 18 18 19 21 21 21 22 22 23 23 23 23 23 24 24 24 23 22 22 22 21 18 16
16 19 20 21 20 19 21 25 26 25 25 24 22 20 20 21 21 22 23 23 23 23 24 24 25 25 26 27 27 28 28 28 27 28 29 29 27 26 25 25 24 23 21
14 15 16 16 17 17 19 19 19 22 24 24 25 24 22 22 23 25 26 26 26 26 26 25 26 28 29 30 30 31 31 30 29 30 31 33 32 30 28 28 27 27 26
11 11 12 14 19 19 16 16 19 22 22 23 22 23 23 22 21 20 22 24 25 26 27 27 27 26 28 28 25 25 28 26 24 26 28 31 34 34 33 31 29 29 29
10 10 10 9 8 9 12 16 15 14 16 18 20 22 22 22 22 23 23 23 24 24 26 27 25 25 25 24 13 6 4 8 15 18 19 25 29 32 33 33 31 30 29
11 9 8 7 6 5 6 7 8 9 10 11 10 9 9 12 14 16 19 21 22 22 23 22 21 20 21 19 19 12 2 4 3 11 12 13 20 23 25 28 30 28 30
11 10 8 7 5 3 4 5 5 7 9 8 8 9 9 9 9 10 11 14 17 18 20 21 20 19 18 19 16 18 23 13 2 3 3 8 15 22 23 22 20 22 25
11 10 9 7 4 3 2 2 3 3 4 5 5 6 5 5 5 6 8 9 11 14 16 18 18 18 16 16 17 14 14 15 15 7 4 5 8 13 20 20 20 19 21
11 9 9 7 6 4 3 2 1 2 2 2 2 2 3 3 4 5 6 7 8 9 12 15 17 16 15 15 16 15 14 8 5 8 5 8 9 14 15 16 16 18 20

GFSSE_925_spd_069.txt.gz
Wind_Speed
18 24 21 20 19 17 15 14 14 11 10 11 12 11 11 13 14 13 14 14 15 15 15 16 16 16 16 16 16 15 15 14 15 15 14 13 12 12 10 9 11 10 10
27 23 23 21 19 17 15 13 11 10 11 10 11 9 11 12 13 13 14 14 13 14 14 15 15 15 16 15 14 15 15 15 14 14 14 14 12 10 9 10 10 9 8
28 22 22 21 19 17 15 13 12 12 10 9 9 9 10 11 12 12 13 13 12 13 13 13 14 15 14 13 12 13 13 13 12 12 12 11 11 11 11 10 10 8 7
25 23 21 21 19 18 16 15 13 13 11 7 6 8 10 11 12 10 11 11 12 12 12 12 13 13 12 11 11 10 10 11 12 11 8 10 10 10 9 9 11 9 4
24 24 21 20 19 18 18 16 15 11 7 3 5 10 12 11 11 11 9 9 11 12 12 12 12 11 11 9 9 8 8 8 11 13 13 12 9 8 11 14 16 16 12
24 24 21 20 19 19 18 16 11 7 4 4 8 10 12 10 11 10 7 8 10 12 12 11 11 10 9 9 9 10 10 9 12 14 13 10 9 9 8 9 10 13 10
26 23 21 20 18 18 17 13 8 4 7 11 9 9 11 10 9 10 7 7 9 10 11 10 9 9 8 8 8 9 9 10 10 9 8 7 7 7 8 8 8 6 5
26 23 20 19 17 17 15 11 8 6 11 15 11 7 9 10 10 7 7 6 7 8 9 8 8 7 6 6 7 7 7 6 6 6 5 5 6 7 6 6 6 6 4
24 23 20 18 17 16 13 10 8 8 12 15 13 11 9 8 6 5 6 5 5 6 6 6 6 5 4 3 4 4 3 2 2 3 3 5 5 5 6 6 7 7 6
24 23 21 18 18 16 13 10 8 7 9 14 14 12 10 9 7 6 6 4 3 3 3 4 4 3 2 2 2 1 0 1 1 1 2 3 4 3 5 7 7 7 6
21 21 21 19 18 16 15 12 9 7 8 10 10 10 11 10 9 7 6 4 3 2 2 3 3 2 2 3 4 4 4 3 3 3 4 4 3 3 6 8 8 7 5
15 18 19 20 18 17 16 13 10 8 7 7 7 8 9 9 8 8 7 7 6 5 4 4 4 4 4 4 5 6 7 6 4 5 6 6 5 4 5 8 8 7 5
15 16 20 18 18 17 17 15 12 10 8 7 6 6 7 8 9 9 9 9 9 8 7 6 7 7 6 6 6 7 7 9 8 8 8 8 8 6 7 7 9 7 5
17 21 20 19 20 17 17 16 13 11 10 9 8 8 8 8 9 9 10 10 10 10 9 8 8 8 9 9 9 9 8 9 9 10 10 9 10 10 8 8 9 8 6
19 19 19 19 20 18 17 15 14 13 12 10 10 10 10 9 9 9 10 10 9 9 9 9 10 10 10 11 11 12 11 12 11 11 12 11 12 12 13 11 10 9 9
19 19 17 18 19 19 18 17 16 14 13 13 12 10 11 11 11 10 11 11 10 10 10 10 10 11 12 13 13 14 14 14 15 16 15 15 14 15 16 15 13 12 11
19 18 18 17 18 19 18 17 16 15 15 15 13 12 12 12 12 13 12 12 12 12 13 14 14 14 15 15 16 15 15 16 17 17 17 18 18 18 18 19 17 15 14
17 17 16 18 17 18 17 16 16 16 16 16 16 15 14 14 14 15 16 15 14 15 16 16 17 18 19 19 19 19 19 19 19 20 21 22 23 22 21 20 20 19 17
16 16 16 16 17 18 18 18 18 18 19 19 18 18 18 17 17 17 19 19 18 19 19 19 20 20 21 21 23 24 24 24 23 23 25 26 27 27 26 24 22 22 22
14 16 17 17 18 16 15 16 18 20 22 22 22 22 21 20 19 20 21 21 21 21 22 22 22 22 22 20 20 23 25 26 25 25 24 25 26 27 28 27 25 24 24
11 14 16 17 16 16 17 17 17 19 18 19 19 20 21 22 20 19 20 20 20 21 22 22 21 21 19 21 16 17 21 19 22 22 19 19 19 22 23 24 26 25 25
10 10 11 13 16 18 18 16 13 11 15 18 17 16 18 19 20 21 21 21 21 21 22 22 21 15 17 19 8 5 4 8 13 15 16 14 17 15 15 17 19 23 24
10 9 9 9 9 10 11 13 12 11 11 11 10 9 9 11 13 16 18 19 19 19 21 22 21 20 14 17 15 9 2 4 2 10 10 12 13 12 15 15 15 14 15
10 9 9 8 7 6 6 7 8 8 7 6 6 7 7 8 8 9 10 11 13 16 18 19 19 20 19 16 14 17 21 9 3 2 4 7 13 13 13 15 17 14 16
12 10 9 8 6 4 3 3 4 4 4 4 4 5 4 5 5 6 7 8 9 11 13 14 15 17 19 18 16 9 10 11 11 7 2 5 5 13 17 16 17 16 13
12 11 10 8 6 4 3 3 3 3 3 3 3 3 2 2 2 3 4 5 6 7 8 9 12 15 18 18 17 15 13 6 4 6 4 7 6 7 9 15 14 13 13

GFSSE_925_spd_072.txt.gz
Wind_Speed
17 20 22 20 18 16 15 13 12 11 11 10 11 11 13 13 13 14 14 15 15 16 16 17 17 17 17 16 16 16 15 15 15 14 13 13 12 12 11 12 12 11 11
23 22 23 21 19 16 14 14 11 10 10 10 10 11 12 13 14 14 14 14 14 15 15 15 16 16 16 15 15 15 14 14 14 15 17 14 12 12 12 12 12 9 8
25 21 21 20 19 16 14 13 12 12 11 9 9 10 12 13 13 13 13 13 13 14 14 14 15 14 13 13 13 14 13 13 12 14 16 11 11 11 12 12 10 7 8
24 22 21 21 19 17 15 14 14 12 9 8 8 10 11 12 12 12 13 13 13 13 13 13 14 13 12 12 11 11 12 12 13 14 11 11 11 12 16 17 14 8 10
23 22 21 21 19 16 16 15 14 11 6 5 8 11 11 12 11 11 11 12 12 12 12 12 12 12 11 11 10 9 9 12 17 13 12 12 11 11 13 14 15 12 10
23 21 20 22 20 18 17 17 13 8 5 4 9 12 11 12 12 8 10 11 12 12 12 11 11 10 10 11 11 11 9 12 11 10 9 10 9 10 11 9 9 11 11
23 20 20 21 20 19 17 13 8 5 7 10 8 12 12 12 12 7 8 10 11 11 11 11 10 10 9 10 10 10 10 10 7 7 7 7 8 9 10 9 7 5 7
22 20 19 19 19 19 16 11 7 8 14 12 10 10 13 10 10 5 7 8 8 8 9 9 8 7 7 8 8 8 7 6 6 5 6 6 8 8 9 10 9 9 7
20 20 20 17 17 17 14 10 7 12 14 12 11 11 11 10 6 3 6 6 6 6 6 6 6 5 4 5 5 4 3 3 3 3 4 5 6 6 8 9 9 8 8
19 19 19 17 17 15 13 11 9 11 14 13 11 11 11 9 5 5 6 4 4 4 4 4 3 2 2 2 1 1 0 2 1 2 3 2 4 4 6 8 9 9 7
18 17 17 17 17 15 12 11 10 9 13 13 10 11 9 6 6 4 7 4 3 2 3 3 2 2 1 2 2 3 2 2 2 3 3 5 3 2 6 8 8 8 7
17 17 16 15 16 15 13 12 10 9 8 9 8 8 6 6 5 6 6 6 5 4 3 3 4 4 2 2 3 4 3 4 4 5 4 7 5 3 5 8 8 8 8
15 13 16 15 14 14 12 12 10 9 8 7 7 7 6 6 5 5 5 5 5 6 3 3 4 4 4 4 4 4 5 5 6 7 7 8 7 6 6 8 9 9 8
15 13 15 15 14 14 12 12 10 8 8 7 6 6 6 5 6 6 6 6 6 5 5 5 5 6 6 6 6 6 6 6 7 8 8 10 9 9 8 8 9 10 9
16 15 16 15 15 15 13 11 10 9 8 7 7 6 6 5 5 6 6 6 5 5 6 5 6 6 6 7 8 8 8 8 9 9 9 12 11 11 11 11 10 11 10
14 15 16 15 16 15 14 12 10 9 8 8 7 6 7 6 6 6 6 6 6 6 6 6 6 6 6 7 8 9 10 10 10 10 10 11 13 13 13 14 13 13 13
15 14 15 14 15 16 15 13 11 10 9 8 8 7 7 7 7 7 7 7 6 6 7 7 8 8 8 9 10 10 11 11 12 11 12 12 12 14 15 16 16 16 15
12 13 13 13 14 15 14 13 11 10 10 9 9 8 9 9 9 8 8 8 8 8 8 9 9 10 11 11 12 12 12 12 13 13 14 14 13 13 14 17 18 19 18
10 12 13 13 13 14 13 12 11 11 11 11 10 10 10 11 10 10 10 10 10 11 11 11 11 12 13 13 14 14 14 15 15 14 16 16 16 16 15 16 21 20 21
8 11 11 13 13 14 12 12 12 11 12 13 13 12 12 11 12 12 12 13 12 13 14 13 14 13 14 14 15 15 16 16 16 15 16 15 15 13 13 14 14 15 18
7 8 10 12 13 14 13 12 11 12 11 12 12 13 12 12 13 13 14 14 13 14 15 14 14 14 15 14 12 14 14 12 14 15 12 11 11 9 9 9 10 12 14
7 7 8 11 12 13 12 11 9 7 9 9 8 8 10 12 13 13 14 15 14 15 15 14 14 14 13 12 8 5 5 10 14 8 7 6 9 8 6 7 8 9 11
8 8 8 8 10 12 13 12 12 11 10 7 5 6 10 11 13 14 15 17 16 17 19 19 18 16 14 11 14 9 4 7 3 7 7 8 7 5 5 7 8 8 8
7 7 7 8 8 8 9 8 8 8 7 5 5 7 8 8 8 9 10 10 10 10 12 13 13 16 17 15 12 16 17 8 4 4 3 6 4 6 4 8 9 8 8
8 6 7 7 7 7 7 6 5 5 4 5 5 4 5 6 7 7 8 9 9 10 9 11 12 12 16 18 16 9 12 11 11 6 2 6 6 8 12 10 8 8 6
11 11 8 8 6 6 6 5 4 4 4 4 3 3 3 3 4 5 6 6 7 8 9 10 9 10 14 14 17 18 13 5 8 6 4 7 7 8 8 5 7 8 7

GFSSE_925_spd_075.txt.gz
Wind_Speed
18 21 21 20 15 14 13 12 10 10 10 11 11 13 13 13 14 15 16 16 19 18 18 18 17 17 17 16 16 15 16 17 17 15 13 13 15 14 15 14 14 12 12
23 22 22 20 17 15 14 12 10 10 10 11 11 13 13 14 15 15 15 15 15 16 16 17 17 16 15 15 15 15 16 17 18 17 16 17 16 14 14 14 11 11 10
23 22 21 20 17 15 13 12 11 11 10 10 11 12 13 14 14 14 14 14 14 15 15 15 15 14 13 14 15 15 14 15 18 16 15 12 14 18 19 14 11 12 12
24 22 21 21 18 16 14 12 13 12 9 10 11 12 13 13 13 13 13 14 14 14 14 14 13 13 12 12 12 13 17 19 17 16 13 13 12 16 17 18 14 12 11
22 22 21 22 19 16 14 14 13 10 7 8 12 13 13 12 12 12 13 14 14 14 13 12 12 12 12 12 11 11 17 18 16 14 13 12 12 13 14 12 13 14 16
22 21 22 21 19 16 17 16 13 7 5 7 12 13 12 12 10 11 13 14 14 13 12 11 11 11 12 11 11 11 14 13 13 10 10 11 11 11 12 11 9 11 12
22 21 20 20 18 18 18 15 10 6 6 9 11 12 11 13 10 9 12 13 13 12 11 10 10 10 11 10 11 11 10 12 10 9 9 9 10 11 11 11 9 8 7
21 19 18 19 18 18 16 11 7 9 13 12 11 12 11 10 8 6 10 11 10 10 9 8 8 8 9 9 8 7 7 8 7 7 7 6 9 9 10 11 11 10 9
19 21 18 16 17 17 13 9 9 15 12 12 13 14 10 9 5 3 8 8 7 7 7 6 5 5 5 5 4 4 4 6 6 4 5 4 6 6 9 10 11 10 10
18 19 19 17 16 14 11 9 11 14 13 15 13 13 13 9 4 4 5 6 5 4 4 3 3 2 1 1 1 2 2 4 2 2 2 2 5 4 7 9 10 10 10
18 16 19 19 17 14 12 10 11 14 13 13 14 13 9 7 6 5 6 3 3 3 2 2 1 1 0 2 3 3 2 2 2 2 3 5 5 3 6 7 9 10 9
18 18 18 17 17 16 12 11 9 10 11 10 9 10 7 6 6 6 4 5 3 3 3 3 4 3 1 2 5 5 3 4 4 4 5 8 7 4 5 8 8 9 9
17 19 17 18 16 14 12 12 10 8 9 9 9 9 7 7 4 6 4 3 4 3 4 4 4 3 4 4 4 4 5 5 5 5 7 10 8 7 6 8 9 9 9
15 11 16 16 17 17 12 12 11 10 9 8 8 8 7 6 6 5 5 5 5 5 5 6 6 6 6 6 6 6 6 6 6 6 7 12 10 9 8 8 9 11 10
14 13 13 16 15 15 14 12 10 10 9 8 7 7 7 6 5 5 5 5 5 5 5 6 6 6 6 6 7 7 7 7 8 8 8 12 13 11 11 10 10 10 11
17 18 17 15 15 15 14 13 12 10 9 9 8 7 7 5 5 6 5 5 6 6 6 6 6 6 6 6 7 8 8 8 9 9 10 11 14 13 13 13 13 12 12
12 12 16 15 13 14 15 13 12 10 9 9 9 8 7 7 6 6 6 6 6 6 7 7 7 8 8 8 9 9 9 10 11 11 12 12 12 15 15 15 16 15 14
12 14 13 12 12 14 14 13 12 10 10 10 9 8 9 8 8 7 6 7 7 7 8 8 8 9 9 10 11 11 11 11 12 13 14 15 14 14 15 16 15 16 17
12 14 13 12 13 13 12 12 11 10 11 10 9 9 9 9 9 9 8 8 8 9 9 10 10 11 12 13 13 13 12 14 15 15 16 16 16 16 16 15 16 17 18
10 13 13 13 13 13 12 12 11 11 11 11 10 10 9 10 10 10 10 10 10 11 12 12 13 14 14 14 13 14 15 16 15 16 16 16 15 15 11 11 11 13 14
7 11 14 13 13 13 12 13 13 12 11 11 11 10 10 10 10 11 11 11 12 13 14 14 14 15 15 14 14 13 17 15 15 16 13 13 11 8 7 8 7 9 9
7 10 11 12 13 13 12 11 11 9 10 8 7 7 7 8 9 10 11 12 13 14 15 15 15 15 15 13 6 6 4 12 15 12 8 7 7 8 5 5 5 7 8
8 8 8 9 10 11 10 9 10 7 7 5 5 6 8 8 11 14 15 16 17 17 18 20 18 17 15 16 14 9 3 4 8 6 8 8 7 6 4 5 6 7 7
9 8 7 7 8 8 11 9 10 9 9 5 4 7 6 5 7 7 8 9 9 9 11 11 11 14 13 14 13 16 18 14 3 5 7 6 5 6 7 6 6 7 7
12 10 10 9 7 6 6 7 7 6 5 4 3 4 4 5 6 7 8 8 7 9 8 9 9 10 12 16 15 14 12 15 14 8 3 6 7 7 6 8 7 4 5
16 13 13 12 10 8 7 6 5 5 4 4 3 3 3 3 4 6 6 6 6 7 7 7 9 10 10 12 15 17 17 7 6 7 5 8 4 8 11 6 3 4 5

GFSSE_925_spd_078.txt.gz
Wind_Speed
25 29 23 18 17 15 14 14 12 13 13 13 15 15 16 17 17 18 19 21 22 21 19 20 19 19 18 18 18 18 19 20 20 20 20 20 19 18 16 15 12 15 14
28 29 25 20 18 16 16 14 14 13 14 13 16 16 17 17 17 17 17 18 19 18 18 19 18 18 17 17 17 19 21 20 18 19 20 21 22 21 16 16 17 15 13
29 27 26 21 18 17 16 14 14 14 14 14 16 16 16 16 16 17 17 17 17 17 17 16 16 16 16 16 17 18 19 17 13 11 11 17 18 22 20 17 16 14 13
30 27 25 22 19 17 15 15 15 14 13 15 16 14 15 15 16 16 16 16 17 17 17 15 16 15 14 15 19 20 20 21 20 19 18 15 15 16 16 15 16 19 16
26 26 23 22 19 17 16 16 15 13 14 15 17 14 14 14 15 16 16 16 16 16 15 15 15 15 14 14 17 19 17 16 13 12 9 10 12 14 13 11 11 14 17
26 25 23 21 19 16 17 17 14 11 12 16 17 15 14 11 14 15 16 16 16 14 14 14 15 14 14 14 15 15 13 15 12 13 11 11 14 13 13 11 9 9 11
28 24 23 20 18 17 17 15 11 9 11 16 17 15 15 9 13 14 15 15 14 14 13 13 13 13 12 13 12 11 13 14 11 10 7 11 12 12 12 12 12 11 8
27 25 22 19 17 17 16 12 8 10 14 15 17 16 16 10 11 12 13 14 13 12 12 11 11 10 10 9 9 8 8 8 10 7 4 8 10 10 11 12 12 11 11
28 23 21 19 17 17 12 8 10 15 15 16 16 15 13 10 8 8 11 11 11 10 9 8 7 7 6 6 5 5 6 8 10 5 3 6 8 7 9 11 11 11 10
24 22 20 18 19 16 12 9 13 13 13 15 16 15 15 11 7 8 8 9 8 7 7 6 5 4 3 2 2 2 4 6 4 4 3 4 7 5 6 8 10 10 10
23 21 21 17 16 13 11 12 15 13 15 14 14 14 12 7 9 8 8 5 5 5 4 3 2 2 2 3 5 4 2 4 4 2 5 6 7 5 5 6 8 9 9
23 18 22 20 18 15 12 13 13 14 14 13 13 12 10 8 9 10 4 4 3 2 2 1 1 1 2 2 4 5 4 4 3 4 7 9 8 6 4 7 7 7 8
16 16 19 17 20 16 15 15 13 12 13 13 12 7 6 9 7 6 2 1 2 1 1 1 2 3 1 2 4 6 5 7 4 5 8 10 10 8 6 5 8 8 8
15 18 19 18 18 18 12 14 17 11 13 13 11 8 8 9 6 5 7 2 2 4 1 4 5 4 3 6 6 7 7 8 7 6 8 10 11 10 9 7 7 9 9
19 18 20 20 20 20 15 15 14 14 13 10 11 10 8 8 7 8 7 6 5 5 6 6 5 5 7 7 8 9 9 8 9 9 10 11 12 12 10 10 10 9 10
17 21 16 19 19 19 18 16 10 12 11 11 10 10 9 7 8 8 7 8 7 7 6 6 6 6 6 7 8 8 9 10 11 11 12 13 13 13 13 12 13 12 12
19 17 22 20 21 20 17 15 15 10 11 12 9 9 9 9 8 7 8 7 6 7 6 7 8 9 9 10 10 10 11 11 12 12 12 15 14 15 15 14 14 15 14
16 17 20 19 16 20 18 17 16 10 11 10 11 11 10 9 8 8 7 7 7 7 8 8 9 10 11 11 12 12 13 13 12 14 15 15 16 17 15 16 13 15 14
15 17 17 18 18 17 17 17 16 9 13 12 11 10 10 11 10 9 8 7 8 9 9 10 10 11 12 13 13 14 14 16 18 17 16 16 14 17 18 16 12 13 13
12 14 15 17 16 15 17 14 14 12 10 10 11 11 11 10 11 10 9 9 9 10 11 12 13 14 14 15 16 16 17 18 19 18 18 19 15 14 10 7 9 11 11
8 10 15 16 18 16 17 17 14 13 13 13 10 8 8 7 7 7 9 9 10 12 13 12 14 15 16 15 14 16 17 16 18 18 20 13 11 7 9 7 6 6 7
9 11 13 16 16 18 16 15 14 14 13 12 13 11 11 11 13 13 13 12 14 15 15 14 15 15 16 16 8 10 3 9 14 16 14 8 5 6 6 3 6 6 6
11 12 12 11 14 15 14 14 14 11 9 10 9 9 10 11 12 13 13 14 15 15 17 18 18 17 17 19 17 11 3 3 4 2 3 4 4 0 3 7 3 2 5
16 15 14 13 16 16 17 14 14 11 7 7 11 11 10 7 7 7 7 8 9 9 10 10 10 12 12 14 14 13 18 15 2 3 3 7 4 5 0 3 4 3 2
22 22 18 16 16 17 16 15 13 10 9 11 9 8 6 5 5 6 6 7 7 8 8 10 10 9 10 12 14 16 17 17 18 7 3 7 7 3 4 1 2 2 5
20 18 21 17 16 14 14 14 12 12 10 8 7 7 5 4 5 5 4 4 4 6 7 8 8 9 10 10 12 14 16 11 5 8 5 8 8 4 2 4 5 5 4

GFSSE_925_spd_081.txt.gz
Wind_Speed
31 29 25 22 20 18 17 16 15 16 17 19 19 18 18 19 21 25 25 25 23 22 21 20 20 19 19 21 22 22 21 21 22 22 22 23 18 16 18 19 18 16 15
38 31 26 23 20 19 18 16 18 17 20 20 19 19 19 19 20 20 21 21 21 20 19 19 19 18 19 22 22 21 20 19 19 20 20 22 22 19 18 19 17 15 14
37 31 27 23 22 21 18 17 17 17 21 19 21 19 19 19 19 18 19 19 18 18 18 17 17 17 20 21 21 18 16 14 11 11 16 16 20 17 17 19 20 16 15
38 33 27 24 22 20 18 18 17 17 22 20 20 19 19 19 19 18 19 19 18 17 17 15 16 18 20 21 20 19 19 18 18 16 13 13 14 13 14 14 17 16 17
36 32 27 23 22 19 19 19 17 18 21 20 18 17 19 18 18 18 19 19 18 16 15 16 16 17 20 20 19 17 14 12 12 10 10 12 15 13 12 11 12 13 13
32 30 26 24 20 19 20 18 17 18 20 20 18 16 17 19 19 18 18 19 17 16 15 16 16 16 18 17 15 14 16 16 9 9 11 13 14 13 13 12 11 10 10
28 28 25 22 20 20 19 16 15 16 20 20 18 17 14 17 19 18 18 17 16 15 15 15 15 15 16 14 13 14 13 11 8 8 10 11 12 12 12 12 12 11 10
30 28 24 21 20 20 18 14 12 15 18 20 19 17 13 15 16 17 17 16 15 15 14 13 13 13 12 11 10 10 8 9 7 5 7 11 9 10 10 12 12 11 11
29 28 24 21 21 20 14 11 12 16 18 19 17 18 13 12 13 14 15 15 14 13 12 11 10 10 9 8 7 7 7 8 7 4 4 8 8 7 8 10 10 10 10
28 26 24 22 21 18 13 12 17 16 19 20 18 16 14 11 10 11 11 12 11 11 10 8 8 7 6 5 4 4 6 5 3 1 3 5 8 5 5 7 8 9 9
27 26 22 22 19 16 13 15 16 14 16 18 16 17 13 9 10 10 9 8 7 7 7 6 5 5 5 6 6 4 4 3 3 1 4 6 8 6 5 5 6 7 7
29 25 21 19 18 14 13 16 17 18 15 17 16 15 12 11 8 9 6 5 5 4 3 3 2 2 4 3 2 3 1 1 2 4 7 8 8 8 6 6 5 5 5
27 25 24 22 18 15 14 15 16 18 17 16 14 14 14 11 10 7 3 4 5 4 4 3 4 4 3 0 1 2 3 4 5 5 6 8 9 10 7 5 7 6 5
24 21 24 22 21 17 14 15 16 17 17 16 13 11 11 15 8 5 6 4 3 3 3 3 2 2 4 3 4 3 5 7 7 6 8 9 10 10 10 8 7 7 8
21 23 26 22 21 19 15 15 17 16 15 16 14 11 13 11 9 9 8 8 4 4 5 6 5 4 5 6 7 7 8 8 9 9 10 11 11 12 11 10 10 8 9
19 21 24 24 25 24 16 17 11 20 16 18 17 15 11 11 10 10 10 8 8 8 8 7 6 7 6 6 8 8 9 10 11 11 13 14 14 13 12 11 11 11 11
17 17 21 25 24 24 20 18 13 19 17 18 16 14 15 12 12 11 11 9 9 9 7 8 8 8 8 10 10 10 10 11 13 13 12 12 15 16 15 13 13 11 11
25 22 20 20 21 23 21 22 17 15 17 17 14 13 11 14 13 11 10 9 8 7 8 8 9 9 10 10 11 12 13 14 11 12 12 14 15 16 16 16 14 10 11
24 23 22 22 19 21 22 21 21 15 15 16 12 14 12 12 11 11 10 8 8 8 9 10 10 10 11 12 13 12 13 15 14 15 19 16 14 15 15 14 9 8 7
20 20 18 23 24 22 22 20 20 18 14 17 17 15 15 13 12 12 10 9 8 9 10 11 12 13 14 12 14 17 18 19 19 19 18 18 17 12 12 4 2 4 3
13 17 23 22 23 21 24 22 20 19 17 14 13 12 10 14 13 13 11 10 11 11 11 11 12 12 15 15 13 17 16 16 18 22 22 21 16 8 4 3 5 4 3
15 16 22 26 24 24 23 22 21 21 18 16 15 12 12 14 13 12 10 12 13 14 14 14 15 15 17 17 13 14 3 7 14 12 11 10 9 7 6 5 2 3 5
18 19 22 23 24 25 23 23 19 18 17 18 18 18 14 14 15 15 15 14 15 15 17 18 18 16 16 19 18 9 3 2 3 3 5 1 2 5 5 3 5 5 4
23 21 20 18 24 25 25 25 25 22 16 13 16 16 14 14 12 12 12 14 15 15 14 13 11 11 11 12 13 10 11 8 2 3 3 2 1 1 4 7 10 7 3
26 26 25 22 19 19 24 22 21 16 14 14 15 15 12 9 8 7 7 7 8 8 9 9 9 9 9 10 10 10 10 13 15 8 3 6 2 2 5 10 10 6 2
27 25 23 25 24 20 18 18 18 19 19 19 17 14 11 9 7 6 5 6 6 7 7 7 8 8 8 9 10 12 11 9 5 6 3 7 5 4 7 5 4 1 1

GFSSE_925_spd_084.txt.gz
Wind_Speed
31 29 26 24 22 20 20 18 17 20 18 18 17 19 21 24 26 26 26 24 22 20 19 19 19 20 20 20 21 22 21 21 21 23 20 18 17 16 16 16 16 15 14
37 32 28 25 22 22 20 19 19 22 21 20 18 19 20 22 24 24 23 22 19 19 18 18 19 19 19 20 22 19 18 17 18 19 20 18 17 16 18 17 15 15 13
35 32 28 25 24 22 21 21 22 20 21 19 19 19 20 20 22 21 20 19 18 17 18 18 18 19 21 20 19 16 14 10 11 13 13 16 15 15 18 17 15 16 15
35 32 28 26 25 22 21 21 23 22 23 19 19 19 20 20 20 21 20 19 18 16 17 19 20 21 20 21 19 15 13 15 13 10 11 11 12 12 11 13 13 13 14
33 30 27 25 24 21 22 22 23 22 21 18 19 19 20 19 20 20 20 19 16 16 17 19 20 21 19 18 15 12 12 13 12 11 13 13 13 12 11 9 9 11 12
31 29 26 25 21 21 21 22 24 23 21 19 18 19 19 20 21 21 20 19 17 18 17 19 20 20 18 17 15 15 13 10 9 11 12 13 13 12 11 11 10 8 8
29 28 25 22 20 22 20 21 23 22 21 19 18 18 19 19 19 19 19 19 18 17 18 18 18 18 16 14 13 12 10 8 8 10 12 11 11 11 11 11 10 9 9
29 26 25 21 20 21 18 18 21 22 21 20 17 17 18 18 19 18 18 17 16 16 16 16 17 16 14 13 11 10 8 6 6 6 9 10 8 9 10 10 10 9 9
26 25 23 22 22 20 17 16 18 21 21 20 18 14 15 16 18 18 17 16 14 13 13 13 13 13 11 10 9 8 7 5 4 3 5 7 7 6 7 8 8 9 9
27 24 22 22 23 19 15 14 18 21 21 18 19 15 14 15 15 16 15 14 13 12 11 10 9 8 8 7 6 6 6 3 1 1 0 4 6 5 5 5 6 7 8
27 27 24 24 22 17 15 17 18 20 22 19 18 14 13 13 13 13 12 11 10 10 9 8 7 6 6 6 6 5 5 2 0 1 2 3 5 6 5 4 5 5 6
25 29 27 26 22 18 17 20 18 19 20 20 17 16 11 11 11 10 9 8 7 6 6 5 4 4 4 4 3 3 2 1 3 3 4 4 5 6 6 6 5 5 5
32 30 27 25 21 18 18 20 19 18 19 19 18 16 13 12 11 9 6 7 7 6 6 4 4 4 4 1 1 2 2 3 4 5 5 6 6 7 7 6 7 7 6
7 26 28 24 22 17 17 20 20 20 19 18 18 16 15 12 12 10 8 6 6 6 6 6 4 4 4 4 2 3 5 5 6 6 6 7 7 8 8 7 7 7 9
19 25 26 28 25 20 17 18 20 20 18 17 17 17 16 14 14 10 8 8 6 6 6 5 5 5 5 7 7 7 8 8 8 9 10 10 11 10 9 8 8 8 9
36 18 20 29 28 24 20 18 17 20 20 17 16 15 14 15 13 10 10 9 9 7 6 6 5 6 6 6 6 8 8 9 10 11 11 12 13 13 13 11 9 9 9
35 41 34 24 26 26 23 17 17 17 21 21 19 17 16 15 14 12 11 10 8 7 7 7 7 7 7 8 10 10 10 10 13 16 15 12 12 13 14 13 12 12 10
33 38 34 29 19 21 22 20 20 15 23 23 22 19 18 17 15 14 13 12 10 8 8 8 8 10 10 10 10 11 12 13 14 12 12 11 13 15 15 12 12 10 9
27 27 25 29 20 18 20 21 20 18 17 24 23 17 15 15 17 15 13 11 10 9 10 10 10 10 11 12 13 13 13 14 17 18 17 18 16 13 14 13 7 8 6
22 25 25 25 26 28 25 27 21 19 14 23 21 18 19 14 14 13 11 11 10 10 11 12 12 12 14 13 13 14 18 20 19 18 19 19 17 13 13 8 7 6 3
20 24 27 28 31 32 29 22 22 23 18 21 24 21 22 19 16 16 15 12 12 11 11 12 11 12 14 13 13 18 20 18 20 18 20 21 17 13 11 10 8 4 3
20 24 23 28 28 30 28 27 25 25 22 20 17 18 18 21 20 20 18 15 13 12 13 12 12 15 18 17 17 16 3 8 10 6 5 6 5 10 12 11 8 5 6
16 21 23 26 24 27 24 25 25 23 21 20 19 19 17 18 20 19 16 14 13 15 15 17 16 17 18 17 15 7 2 3 3 4 4 5 3 10 9 10 8 7 5
20 21 23 26 26 27 24 22 26 25 24 23 23 23 21 18 15 13 12 13 15 16 19 19 17 14 11 14 12 11 13 8 3 3 2 3 2 3 8 10 9 8 6
25 23 23 25 24 25 25 26 27 27 25 24 24 21 19 16 13 12 12 12 12 12 12 12 11 11 11 12 12 10 8 11 13 7 5 6 2 4 8 12 11 8 4
27 22 22 22 23 24 28 30 29 26 22 20 20 22 19 15 13 11 10 9 10 10 10 11 11 11 11 11 11 11 10 7 3 4 4 6 4 5 9 10 8 6 2

GFSSE_925_spd_087.txt.gz
Wind_Speed
28 28 24 22 20 19 18 16 17 18 16 17 19 21 22 23 24 24 22 19 19 18 18 18 18 18 19 19 18 19 19 22 21 20 20 18 15 15 15 15 15 14 12
34 30 26 22 21 19 18 18 18 20 17 18 19 22 24 25 26 24 22 19 18 18 18 19 19 19 19 18 16 16 16 18 19 17 17 17 18 17 17 17 18 16 14
35 31 27 23 22 20 19 19 20 21 18 17 18 20 23 24 23 22 19 18 17 18 18 18 19 18 16 15 13 12 11 13 14 13 13 14 15 16 15 15 15 15 16
34 30 26 23 22 20 20 20 20 18 17 17 18 19 21 21 20 19 18 17 17 18 18 18 18 18 18 14 12 14 15 13 12 12 11 11 12 11 11 12 12 13 15
31 29 26 24 22 20 19 20 20 18 18 18 18 19 19 20 20 19 18 17 17 18 19 20 19 18 16 12 11 13 13 13 13 13 13 13 13 12 11 9 8 10 11
30 28 25 24 21 19 20 22 20 18 17 18 18 19 20 20 19 19 17 16 17 19 19 19 18 17 14 13 13 12 11 12 12 13 13 13 13 11 11 11 10 9 9
29 26 24 23 20 20 19 22 20 18 16 18 18 19 19 20 19 18 18 16 17 18 18 18 17 15 13 11 10 9 9 9 10 11 11 11 11 10 11 10 10 10 9
27 25 23 20 19 19 20 21 20 19 16 17 18 18 19 19 19 17 16 17 16 17 17 16 15 13 11 9 7 7 6 6 7 8 9 10 9 9 10 10 10 10 9
25 24 22 20 20 17 18 21 21 18 17 14 16 17 19 19 18 17 16 16 15 15 14 14 12 11 9 7 5 4 5 4 4 4 5 7 7 7 8 8 9 9 9
23 23 21 20 20 17 16 17 21 19 16 15 14 14 15 16 16 16 15 13 13 14 12 11 11 9 7 6 5 4 2 2 2 2 2 4 5 6 6 7 7 8 8
20 21 19 20 20 16 14 16 20 20 18 16 13 12 13 14 14 14 13 12 11 9 9 9 7 7 5 4 3 4 3 1 2 3 2 2 3 5 6 6 6 7 7
16 19 20 20 19 15 14 17 19 21 20 18 15 13 12 12 12 12 11 10 9 7 6 6 6 5 5 4 2 3 3 2 3 3 3 4 3 4 6 7 6 6 7
14 19 21 20 18 14 14 19 18 22 21 20 17 14 12 12 11 10 9 9 8 7 6 6 5 5 4 3 2 3 3 3 4 4 5 5 5 5 6 7 8 8 8
14 4 3 17 20 15 15 18 19 20 22 20 19 16 13 13 12 10 8 7 8 7 6 6 5 4 4 3 3 3 4 5 5 6 6 6 7 7 7 7 7 8 9
19 13 21 11 18 18 17 19 19 20 21 20 19 18 15 13 12 10 10 8 7 7 7 6 6 5 5 5 6 7 7 7 8 8 9 9 10 10 10 9 8 8 8
27 18 30 18 18 21 19 19 20 20 20 20 19 19 17 14 13 13 12 10 10 8 7 7 6 7 6 6 6 6 7 8 9 10 11 12 12 12 12 12 11 10 10
28 30 32 21 23 24 24 20 19 21 22 22 21 19 17 16 16 15 12 11 9 9 8 8 7 7 6 6 8 9 9 9 11 12 16 14 15 12 12 12 13 9 10
36 34 32 25 18 26 21 22 23 22 22 23 22 21 19 18 16 16 13 11 9 9 9 8 7 7 8 9 9 9 11 13 14 12 14 14 11 13 15 13 11 11 10
40 37 38 31 33 24 23 22 21 23 23 26 25 24 21 19 17 16 14 12 11 10 9 9 9 9 8 10 12 13 14 14 15 19 20 19 17 15 13 10 10 11 9
36 37 37 31 35 39 34 35 25 21 19 26 25 26 24 20 17 17 15 13 12 11 10 9 10 11 12 13 13 13 16 18 19 19 19 19 19 17 13 13 12 10 6
33 35 39 37 41 38 36 30 22 23 27 23 27 28 25 21 19 17 15 14 14 13 9 11 12 10 12 13 11 17 19 22 24 22 17 17 15 13 12 12 12 9 6
24 30 33 34 33 31 33 28 30 29 34 30 23 24 18 21 22 20 18 17 15 12 10 11 11 13 14 14 12 10 3 7 9 4 3 7 8 3 9 13 12 11 8
13 22 28 30 30 33 34 28 27 28 22 24 23 23 25 21 23 20 17 18 16 14 14 15 15 14 14 15 14 6 2 3 3 4 5 7 3 4 9 11 11 9 7
16 16 21 25 27 30 28 30 28 24 18 23 22 22 20 19 19 20 19 20 17 15 14 14 15 15 15 14 10 10 13 8 3 3 2 3 3 4 7 11 10 9 7
19 16 18 20 24 25 26 28 31 31 27 24 22 21 14 11 11 14 14 13 13 11 12 10 10 10 10 11 11 9 7 9 12 6 8 5 1 2 7 9 11 8 6
21 21 16 18 21 23 25 25 27 25 24 20 20 21 19 13 14 11 10 10 9 8 7 8 9 9 9 11 12 11 9 5 3 4 3 7 4 4 7 9 9 9 7

GFSSE_925_spd_090.txt.gz
Wind_Speed
24 27 24 22 19 17 15 16 15 14 16 19 21 21 22 22 23 23 20 18 18 19 20 20 19 20 19 18 18 19 20 19 19 19 18 16 18 16 18 20 19 16 14
32 29 25 23 19 18 16 17 17 16 15 20 22 22 23 23 24 21 18 19 19 19 20 20 20 19 18 16 16 15 17 17 16 17 19 21 18 17 18 18 18 13 15
33 29 25 21 20 18 17 17 18 16 17 17 23 23 24 25 23 22 18 17 19 19 20 20 19 18 15 14 13 12 13 14 13 14 14 16 17 16 15 13 17 19 17
32 29 26 22 21 19 19 17 17 16 17 17 21 24 24 23 21 19 17 17 18 19 19 19 17 17 15 15 15 14 14 14 14 13 13 13 12 11 12 13 14 14 15
31 29 25 22 22 19 21 18 16 15 16 18 20 20 20 19 17 17 17 17 18 17 17 17 17 15 14 13 13 13 14 15 15 15 15 15 15 12 12 11 11 12 13
30 26 23 22 21 19 19 18 15 15 15 17 19 19 18 18 16 16 16 17 18 17 16 16 16 14 13 14 12 12 13 14 14 14 15 14 14 12 13 12 11 10 9
27 25 22 22 19 18 19 18 16 15 15 15 15 16 16 16 16 16 15 16 17 16 16 16 15 12 12 11 10 9 10 11 12 13 13 13 12 11 11 12 11 11 9
26 24 23 20 19 17 20 18 16 14 15 15 15 16 16 16 15 15 14 14 14 16 16 15 13 11 10 9 8 7 7 7 8 10 11 11 10 9 10 11 11 11 10
24 24 22 19 18 17 17 18 16 14 12 15 17 17 17 15 14 13 12 13 12 13 12 12 11 9 7 6 6 6 5 5 5 6 7 8 8 7 9 9 10 10 10
24 23 21 19 18 17 18 18 15 15 12 12 15 17 16 14 13 12 12 11 11 12 11 10 8 6 5 4 2 3 3 3 3 3 4 5 6 6 7 8 8 9 9
21 23 20 20 17 15 14 18 16 13 13 12 12 13 15 15 13 12 12 11 10 10 9 8 7 5 4 3 2 1 1 1 3 3 1 2 4 3 6 6 7 7 8
18 19 20 19 18 14 13 14 18 16 15 14 11 12 12 12 12 11 10 9 8 8 7 7 6 5 4 3 1 1 1 2 3 3 2 2 3 2 5 7 7 7 7
21 15 16 19 16 13 12 14 18 19 17 16 14 13 12 12 12 11 10 9 8 7 7 6 6 5 4 3 2 2 3 2 3 3 3 3 3 3 4 6 7 8 8
24 26 18 14 10 8 8 14 18 20 19 18 17 14 13 13 13 11 9 8 8 7 6 6 5 4 4 3 2 2 3 4 4 4 4 4 5 6 5 6 6 7 9
23 26 14 6 4 6 9 14 16 19 21 20 18 17 14 14 13 11 10 9 8 8 6 7 5 5 4 4 5 5 5 5 6 7 7 6 7 8 9 9 8 9 10
31 23 17 3 11 9 13 16 18 19 19 21 19 19 16 15 13 12 11 10 9 7 7 7 6 6 6 6 5 5 5 6 7 7 8 10 11 11 11 11 11 11 11
32 16 20 7 20 15 12 17 19 19 19 21 21 20 18 17 15 13 13 12 10 10 9 8 7 6 6 6 6 7 7 7 9 12 11 13 11 12 10 11 12 9 9
24 23 24 28 13 24 18 15 17 17 21 21 22 21 20 19 18 16 15 14 11 11 10 9 8 7 7 7 8 8 8 11 11 13 12 14 17 14 13 13 12 10 11
27 28 31 34 26 27 16 11 17 20 20 23 24 23 23 21 19 19 18 14 13 12 11 9 9 8 6 7 9 11 12 13 13 15 17 18 16 16 14 10 8 8 11
34 28 34 33 29 27 23 11 13 20 25 26 26 25 27 24 22 22 19 16 15 14 12 10 9 8 9 9 10 12 12 15 16 21 21 19 19 18 16 13 11 9 7
34 33 34 29 27 25 30 28 27 35 32 26 23 23 27 29 24 22 20 17 16 15 12 10 9 10 10 10 10 12 13 19 19 17 13 9 8 8 9 10 10 13 14
26 31 32 36 33 35 37 36 28 30 34 34 25 24 25 26 26 24 22 20 19 17 14 11 10 10 9 8 4 4 2 7 3 1 1 4 7 7 3 8 12 13 11
21 31 30 37 39 38 39 32 31 28 27 25 28 24 26 29 23 24 22 19 15 13 15 12 12 14 12 9 8 5 2 2 3 3 2 3 2 1 3 8 11 10 9
17 22 32 36 38 35 35 32 28 30 24 30 29 30 30 29 27 25 18 13 10 17 14 12 10 9 10 8 5 7 10 7 1 4 0 2 3 2 4 7 8 8 8
10 12 14 18 23 28 26 28 33 35 27 15 16 22 26 21 19 17 20 16 12 17 15 8 7 6 6 6 5 4 5 6 9 7 4 3 1 2 5 8 9 9 7
12 14 13 13 15 17 21 22 23 24 20 13 15 17 17 10 10 10 12 12 11 10 7 5 4 5 5 5 6 6 6 4 2 3 2 4 5 5 6 8 10 10 8

GFSSE_925_spd_093.txt.gz
Wind_Speed
20 25 27 24 20 17 16 15 15 16 19 22 22 23 23 23 23 21 19 19 20 21 20 19 19 18 19 19 20 19 18 18 19 18 20 19 19 17 17 15 16 15 14
27 25 26 23 21 18 18 15 15 16 20 23 24 23 24 23 23 20 19 19 20 20 20 20 18 18 18 17 18 17 15 16 18 20 20 19 18 16 16 21 19 15 14
28 26 24 23 22 19 20 18 16 14 20 24 25 24 24 24 22 18 19 19 20 21 21 20 18 16 15 14 14 14 14 14 14 14 15 14 15 15 14 16 17 15 15
27 26 23 23 22 19 20 20 17 14 17 23 24 25 25 24 22 18 18 19 19 20 20 18 17 15 15 16 15 13 15 14 13 13 13 12 11 11 12 12 14 14 15
25 24 24 24 22 21 19 19 18 17 16 20 22 23 24 24 20 18 18 19 19 20 19 18 16 14 14 15 15 15 15 15 15 15 16 15 12 12 12 11 12 12 14
24 24 24 24 21 22 21 18 17 18 17 18 21 22 21 17 17 18 18 19 19 19 18 17 15 14 14 13 13 14 14 13 13 14 14 14 12 12 12 12 11 11 10
25 23 23 24 21 22 20 17 16 16 17 18 18 18 18 16 16 17 16 18 17 16 16 15 13 13 13 11 11 11 11 11 12 13 13 11 11 11 11 12 11 11 10
24 24 22 22 21 20 20 17 15 15 15 16 18 15 15 15 15 15 14 14 14 15 15 13 11 11 10 9 8 8 8 8 9 10 11 10 10 9 10 10 11 10 10
25 25 23 21 21 21 21 19 15 13 16 17 16 16 16 16 15 15 14 13 13 14 14 13 10 9 7 6 6 6 6 5 5 6 7 8 8 7 8 9 9 10 10
29 27 25 22 22 22 20 19 17 14 16 19 17 18 16 15 14 14 14 13 12 13 12 12 9 7 5 4 4 3 3 3 3 2 3 5 6 5 6 7 7 7 8
27 29 26 24 21 21 22 18 17 15 14 17 19 19 18 15 13 13 14 14 13 12 10 9 8 7 5 3 2 2 2 1 3 2 1 2 3 2 5 6 5 6 6
20 24 27 24 21 20 22 20 17 18 15 13 15 17 17 17 15 14 14 13 12 11 10 9 7 6 4 4 2 1 2 1 2 2 0 1 1 1 3 5 6 6 6
20 22 25 25 21 18 19 20 19 17 16 13 12 14 15 15 15 14 14 13 12 10 9 8 6 5 5 4 2 2 2 1 2 2 2 2 3 3 3 5 6 6 6
18 27 28 25 22 17 15 16 18 18 18 16 13 13 14 14 14 14 13 11 11 10 9 8 6 5 5 4 2 2 2 3 3 3 3 4 4 5 5 6 7 7 8
15 25 30 27 22 18 14 15 16 18 17 16 16 15 14 14 14 12 11 9 9 9 8 8 7 6 5 4 4 4 4 4 4 4 4 4 5 7 9 9 10 10 10
24 17 25 27 24 15 13 13 16 17 17 18 18 17 15 14 13 13 10 9 8 8 7 7 7 6 6 5 4 4 4 5 4 5 6 7 9 10 10 10 10 11 10
28 18 23 27 25 16 11 12 14 15 17 19 19 19 18 16 15 12 12 10 10 9 8 8 8 7 6 6 5 6 6 5 6 7 9 8 11 10 10 10 11 12 8
36 33 30 23 22 18 15 12 13 14 16 17 20 20 20 20 18 16 13 13 11 11 11 9 8 8 7 7 6 6 7 9 10 9 11 12 15 14 13 12 12 12 12
38 32 16 23 11 14 16 15 14 12 14 16 18 21 22 22 21 20 17 15 13 12 12 11 10 8 7 7 7 8 9 10 12 12 12 16 16 15 15 13 10 8 9
36 24 17 12 13 14 15 14 12 14 17 18 19 23 23 23 23 22 18 17 16 15 14 12 11 10 8 9 10 10 10 12 13 16 18 18 17 15 15 14 13 10 9
30 28 30 31 19 14 20 22 16 18 21 18 22 25 27 25 26 24 23 20 19 18 16 14 11 10 9 10 9 7 11 17 16 10 10 7 5 6 8 7 9 10 13
33 24 32 31 30 29 27 21 14 10 10 11 17 22 21 22 25 25 24 21 21 19 17 14 12 8 6 5 2 4 3 4 3 1 4 3 4 5 5 3 7 11 12
24 28 27 35 34 33 28 27 25 10 12 21 23 24 27 21 25 22 21 18 18 15 11 10 7 6 6 7 8 4 3 2 3 4 3 3 3 3 2 3 8 10 10
21 27 30 34 28 27 26 27 23 19 19 23 22 19 20 19 23 20 20 19 14 4 2 5 8 8 7 5 5 7 10 6 2 3 1 1 1 1 2 4 6 8 8
12 18 26 29 35 36 34 33 26 26 29 29 25 27 25 18 18 21 13 16 14 7 4 4 8 11 8 6 5 4 6 7 7 8 5 2 3 5 5 6 8 8 8
8 13 15 20 26 28 28 27 28 33 33 28 29 29 23 13 14 5 11 18 17 12 12 8 11 10 11 7 6 7 7 4 3 5 5 5 6 6 8 9 9 10 10

GFSSE_925_spd_096.txt.gz
Wind_Speed
18 23 27 23 19 18 16 16 15 15 21 20 21 22 22 22 22 21 19 22 20 22 19 18 19 19 18 18 17 16 17 17 18 18 18 17 16 16 16 15 14 13 13
23 25 28 24 19 18 17 17 17 19 22 23 24 23 23 22 22 20 20 20 19 19 19 18 18 17 17 16 15 15 16 18 18 19 17 16 15 17 16 17 15 13 13
24 26 26 24 20 20 18 18 18 21 23 23 25 24 24 23 22 21 20 20 19 19 19 19 17 14 14 14 14 13 15 14 14 15 16 12 12 14 14 15 14 14 13
24 25 23 24 21 21 19 18 18 22 24 24 26 25 24 24 22 21 20 21 21 20 19 17 14 14 13 13 13 14 13 12 12 13 10 10 10 11 11 12 12 13 13
24 24 23 25 22 21 20 19 16 22 25 25 24 25 25 24 21 20 21 21 21 20 18 16 15 15 15 14 14 14 14 14 15 12 11 11 10 10 10 10 9 10 13
24 23 24 26 22 23 21 21 18 20 23 23 24 24 25 22 20 20 22 22 21 19 17 15 14 14 13 13 13 13 13 13 13 10 10 11 10 10 9 10 9 8 8
24 22 24 26 23 24 22 22 21 21 23 24 26 25 21 20 20 21 21 21 21 19 16 15 15 14 12 11 11 11 11 12 9 8 8 8 8 9 9 9 9 9 8
24 23 24 26 26 24 22 22 23 22 23 24 25 21 19 19 20 21 21 20 19 18 16 14 14 13 11 9 8 8 8 9 7 7 7 7 7 7 8 8 9 9 9
25 24 25 24 24 23 20 20 22 24 24 22 20 19 19 19 19 20 19 19 18 17 15 13 12 10 9 8 7 6 5 6 4 4 5 5 6 5 6 7 8 8 8
24 24 25 25 23 22 20 19 19 21 22 22 20 21 20 19 18 18 19 17 17 18 16 13 11 9 7 5 5 4 3 4 1 1 2 2 5 4 5 5 6 7 7
20 22 24 25 23 23 22 19 18 20 23 23 21 21 21 17 16 17 15 16 16 16 14 12 10 8 6 4 4 3 2 1 0 1 2 2 2 1 3 4 4 4 4
21 24 22 23 24 24 22 22 19 18 18 18 20 19 17 16 15 14 14 14 14 14 13 11 9 7 5 4 3 3 3 2 1 1 2 3 2 1 3 3 3 3 3
18 21 22 22 24 24 21 21 21 18 17 18 19 18 15 15 13 12 11 11 9 10 8 8 6 5 6 5 4 3 3 3 2 2 2 2 3 4 4 5 4 5 5
16 22 22 21 22 24 21 19 19 19 16 16 16 17 16 13 13 12 11 11 10 9 8 7 6 6 6 5 4 4 3 3 3 3 4 4 4 5 6 7 8 9 9
15 15 26 22 22 21 21 19 17 15 17 15 14 14 14 13 13 12 11 10 9 8 8 7 6 6 6 5 4 5 5 5 5 4 4 6 6 8 9 10 11 11 11
22 10 23 24 22 20 19 19 19 17 15 16 15 12 12 11 12 11 11 9 8 8 7 7 7 6 6 5 5 5 4 5 5 5 5 7 9 9 11 11 12 11 11
30 19 15 14 19 19 20 20 18 18 17 15 16 14 13 11 10 11 9 8 8 8 8 8 7 7 6 6 6 5 5 6 6 7 8 8 9 12 13 11 11 12 14
25 20 21 19 16 17 17 21 20 18 16 15 16 15 15 14 12 10 9 9 8 9 9 9 8 8 8 6 6 6 6 6 8 9 9 11 11 13 14 15 14 14 13
31 36 32 22 15 13 16 19 22 20 17 16 16 15 15 15 15 13 10 10 10 10 10 10 9 9 8 7 6 6 7 8 8 9 11 12 13 14 14 15 16 13 11
32 32 34 30 24 16 14 14 14 18 16 15 15 14 15 14 15 15 12 12 12 11 11 11 10 9 7 6 6 7 8 9 9 9 11 12 10 9 8 8 9 7 9
32 26 24 24 22 16 18 14 12 12 13 13 14 14 13 13 13 13 13 12 12 13 13 12 10 9 8 7 6 7 7 10 10 5 5 4 7 6 6 6 4 3 4
23 24 24 22 28 22 19 10 6 6 9 10 11 10 13 12 15 15 13 12 13 13 13 12 11 9 8 5 5 5 4 5 1 1 2 3 4 5 5 3 1 2 3
15 26 23 22 26 21 12 11 8 3 3 6 5 4 4 7 12 14 16 18 14 12 12 9 8 5 5 3 3 5 3 3 5 5 3 1 2 3 2 2 1 3 5
27 29 22 26 24 22 21 16 10 14 6 6 7 5 4 5 8 10 13 16 17 19 14 9 6 2 3 4 3 5 7 6 4 4 2 2 1 2 2 2 2 2 4
29 31 30 30 23 30 24 20 14 13 15 17 17 13 18 17 20 16 16 19 16 14 13 7 6 5 3 5 4 5 6 6 8 7 6 5 4 3 4 4 4 4 6
14 14 19 21 24 24 27 23 25 29 25 23 22 25 23 26 21 14 16 21 20 16 13 19 17 16 15 9 7 9 8 6 6 7 6 8 8 8 5 5 5 6 7

GFSSE_925_spd_099.txt.gz
Wind_Speed
16 26 27 22 19 17 15 15 15 18 19 19 19 20 20 20 20 20 20 19 20 18 16 18 17 19 17 14 16 16 17 17 18 18 17 18 17 17 15 14 12 13 12
18 24 27 22 18 17 15 14 15 18 21 21 21 21 20 21 20 20 19 18 20 19 17 18 17 16 16 15 15 16 17 19 19 17 17 16 18 15 15 15 14 13 15
23 25 25 22 20 18 17 16 18 19 22 23 23 23 22 21 20 20 19 19 19 18 18 17 16 15 14 13 14 14 15 16 17 14 13 11 12 13 13 16 14 14 16
22 23 24 23 20 19 19 16 19 22 23 24 25 25 23 22 20 20 20 19 21 18 18 15 14 13 13 12 13 12 12 13 14 12 11 11 10 11 12 13 13 14 14
19 21 22 23 22 20 19 16 19 23 23 25 24 25 23 23 21 20 21 22 21 19 16 15 15 15 14 14 14 14 15 17 15 12 11 11 11 11 10 10 10 11 12
20 20 22 23 22 20 20 16 19 23 24 25 24 24 25 23 21 22 22 22 21 18 17 16 15 14 14 14 14 13 14 14 13 10 11 11 11 11 11 11 9 9 9
21 20 21 24 22 21 21 17 19 24 24 24 25 26 27 24 22 23 22 22 21 18 15 15 15 13 13 12 12 12 12 12 9 9 9 9 9 10 10 10 10 9 8
22 21 21 23 21 22 23 19 18 24 24 24 26 26 25 23 23 22 22 21 20 17 16 16 14 12 10 10 9 9 10 10 7 8 8 8 9 8 8 9 9 8 8
19 17 21 21 19 21 22 22 20 23 26 28 26 22 21 21 23 22 23 21 19 16 15 15 13 11 10 8 7 7 7 9 6 5 6 6 7 6 6 7 7 7 7
6 17 19 21 21 19 18 23 22 23 25 27 24 20 20 21 21 22 21 20 18 15 13 13 11 10 8 7 5 4 5 6 4 4 4 2 4 4 4 5 5 6 6
20 36 20 22 23 21 18 19 23 23 24 23 21 21 22 19 20 21 18 19 17 16 14 12 10 8 6 4 3 3 3 1 1 2 3 2 2 2 3 4 4 4 5
14 28 42 27 26 25 22 19 19 20 19 17 18 19 19 18 17 17 16 17 16 16 13 11 9 7 5 3 2 2 1 2 1 1 3 4 2 1 1 3 4 4 5
9 25 34 31 30 29 26 23 21 21 21 20 19 20 17 18 17 14 14 14 12 13 9 9 8 6 5 5 4 4 3 3 2 2 4 3 2 2 2 3 5 6 7
25 16 30 36 32 34 26 26 23 22 22 22 22 21 18 17 17 15 14 13 12 12 10 9 7 7 6 6 5 4 4 4 3 3 4 4 3 3 4 5 7 8 9
17 12 10 24 23 30 26 24 23 23 21 20 20 18 17 15 16 14 13 12 11 11 10 9 7 7 7 7 6 6 6 6 4 3 3 5 3 5 7 8 9 11 12
28 15 10 21 19 19 23 22 21 20 20 19 19 17 15 14 14 13 12 10 9 9 9 9 8 8 7 7 7 7 6 5 4 4 4 6 5 6 8 7 10 10 10
25 13 4 10 19 17 16 17 21 21 19 17 16 16 15 14 14 13 11 9 9 8 8 8 8 8 7 7 7 6 6 6 5 5 6 4 7 9 8 11 12 10 12
19 24 16 16 18 16 16 17 17 17 19 18 18 16 15 14 14 14 12 11 10 10 9 9 9 8 8 8 7 7 6 6 6 7 7 6 8 8 10 14 9 13 12
21 28 33 30 18 19 15 16 16 17 17 18 17 17 17 15 14 13 11 11 11 11 11 10 10 9 8 8 8 7 6 7 6 6 7 8 9 10 10 11 11 13 10
26 26 28 23 17 13 14 15 13 16 16 17 18 17 17 17 16 13 10 9 10 11 11 11 11 10 9 8 5 6 7 7 7 7 6 6 4 5 4 4 5 6 5
26 25 26 26 20 14 12 17 14 16 14 16 16 16 17 16 15 14 11 10 11 11 12 12 12 12 11 7 8 8 9 7 8 3 3 2 4 2 4 4 3 4 5
25 26 21 25 18 19 17 18 15 15 13 13 12 13 13 14 13 13 11 9 8 10 11 13 12 11 11 11 6 1 3 4 7 2 2 4 2 3 4 4 2 1 3
22 22 20 19 19 20 17 14 12 13 11 8 11 10 10 10 12 14 12 12 13 13 15 13 11 9 9 5 3 2 2 2 3 5 4 1 3 4 1 2 1 2 5
11 12 19 11 13 15 16 16 15 11 9 11 12 10 11 8 10 10 9 8 10 13 16 12 10 4 6 4 1 1 4 5 2 2 4 6 3 3 4 3 2 1 1
6 9 16 15 19 21 25 22 16 13 6 7 11 10 10 10 8 9 6 5 11 16 18 19 15 11 6 4 3 1 2 4 5 3 4 2 5 5 5 4 5 3 4
12 11 15 22 23 22 19 18 19 22 19 15 13 15 15 14 12 9 10 6 10 22 22 11 19 21 17 18 14 13 11 5 4 6 5 6 8 7 6 4 5 4 4

GFSSE_925_spd_102.txt.gz
Wind_Speed
25 26 25 20 18 18 16 15 15 16 17 18 18 16 18 18 19 18 19 19 19 17 18 21 20 16 16 17 18 18 18 19 20 19 20 19 17 17 18 12 14 14 14
27 26 25 21 17 16 15 14 15 17 17 19 19 19 19 20 20 19 20 19 18 20 19 19 18 17 16 17 17 17 19 20 20 21 17 18 18 18 16 15 15 16 17
27 27 26 21 18 15 15 13 14 17 18 20 21 20 20 20 21 19 19 20 18 19 19 18 17 16 15 15 15 18 18 16 13 10 14 14 16 15 16 16 17 17 17
26 25 23 19 17 16 15 14 14 19 20 21 22 22 22 20 21 20 21 20 19 21 19 17 15 14 15 15 15 15 16 16 18 19 17 12 13 14 13 14 17 16 15
23 23 22 19 17 15 15 15 17 21 21 22 23 23 23 22 21 20 20 21 19 19 15 15 14 14 15 14 15 17 18 15 16 14 15 12 12 12 12 11 11 12 13
22 22 22 21 18 16 14 14 18 21 21 23 24 23 24 23 22 22 23 21 19 16 15 15 16 15 15 15 15 16 14 15 15 14 10 10 14 12 12 11 10 10 10
21 22 21 21 19 16 15 14 18 21 22 22 24 24 25 24 23 26 22 20 18 16 15 15 15 15 14 14 14 14 13 14 12 12 8 10 12 11 11 11 11 11 10
19 22 21 19 20 17 17 14 18 22 24 23 24 25 25 24 25 23 23 21 19 14 15 14 13 13 12 11 12 13 13 11 11 8 5 9 10 10 10 10 11 10 11
22 19 20 21 18 17 17 13 17 24 24 23 25 27 27 23 23 23 22 21 18 15 16 15 12 11 10 9 9 10 11 10 11 6 5 7 8 8 8 9 9 9 9
18 14 15 4 15 17 18 13 15 23 24 25 26 27 26 25 23 23 22 20 17 14 15 13 11 10 8 8 7 7 10 9 7 6 2 2 5 6 6 7 7 7 8
11 12 14 16 13 12 16 18 16 24 27 28 26 25 24 25 23 24 23 20 17 14 13 12 10 8 6 5 4 5 6 5 4 4 4 1 2 4 4 5 5 5 6
14 18 11 19 24 20 14 20 21 27 30 30 27 24 24 24 23 21 22 20 18 16 13 11 9 7 5 3 2 3 4 5 3 3 2 2 1 1 1 2 2 3 4
14 17 39 25 16 29 36 27 23 26 28 26 27 25 23 25 24 23 21 20 18 17 14 11 9 7 5 5 6 1 1 4 3 4 4 2 2 2 2 2 3 4 4
19 15 8 22 37 33 33 33 28 25 24 24 26 29 26 26 24 20 23 20 19 18 13 9 6 6 4 7 6 4 4 3 3 4 5 2 2 3 3 3 4 5 8
21 19 18 24 19 31 28 33 29 28 28 29 26 24 26 25 23 20 19 18 14 13 13 9 10 9 8 8 6 7 6 6 4 6 4 6 4 3 4 6 6 7 6
21 21 8 6 14 34 26 36 31 28 25 25 25 25 25 21 24 22 22 19 18 15 12 11 10 9 9 8 8 8 6 5 5 5 7 7 6 3 6 7 6 8 6
21 25 9 23 17 5 24 27 27 31 29 26 23 23 22 23 21 22 20 19 18 16 14 13 11 10 9 10 9 7 7 6 7 5 6 7 4 7 7 6 7 8 8
14 21 24 28 27 15 16 27 28 20 30 28 24 22 21 23 21 22 20 19 17 16 16 13 12 11 8 8 8 10 9 8 7 6 5 3 5 6 6 8 8 8 11
17 16 28 24 27 30 17 15 17 24 25 27 25 26 23 22 21 23 18 16 13 13 12 11 11 11 11 10 11 10 9 7 6 2 1 3 5 6 8 8 7 7 9
24 24 20 25 32 31 24 18 14 18 19 24 25 24 23 22 21 20 16 14 14 13 12 12 10 11 12 13 15 7 6 5 5 4 5 3 5 7 2 3 6 6 5
23 24 24 25 28 27 23 23 18 17 15 13 16 19 24 20 19 18 16 15 13 14 13 13 12 12 13 8 5 6 9 11 9 6 2 3 3 1 3 3 4 3 4
19 19 22 23 28 28 20 19 18 19 17 17 17 16 15 18 17 18 17 14 14 14 12 12 13 14 11 13 6 3 1 4 8 5 7 6 3 2 3 2 1 1 3
19 24 23 22 18 17 8 4 9 11 15 16 16 17 18 17 17 18 18 17 15 14 14 13 11 10 11 11 10 4 1 2 2 10 11 6 5 2 2 2 2 3 4
17 23 21 22 15 12 8 4 8 10 6 11 17 17 20 19 18 19 19 16 16 16 16 18 18 15 12 8 5 6 1 1 2 1 7 8 7 7 5 1 1 4 5
22 19 12 15 11 12 9 6 6 4 2 5 7 6 7 8 8 8 14 15 17 16 16 19 21 24 19 15 17 8 4 4 5 3 2 2 9 9 8 7 4 4 6
18 17 6 5 3 3 7 8 13 12 11 7 4 10 10 9 9 8 14 14 13 15 16 17 17 18 21 24 18 20 15 6 10 7 4 8 6 7 9 9 7 7 5

GFSSE_925_spd_105.txt.gz
Wind_Speed
21 26 25 25 20 19 19 18 18 17 17 17 16 15 18 17 18 19 21 20 16 16 20 19 17 18 19 19 18 19 20 21 20 20 19 19 18 19 15 17 17 17 17
27 27 24 23 23 19 18 17 18 18 18 18 18 17 18 18 19 20 20 19 19 21 21 18 17 19 18 18 19 20 21 21 21 17 17 19 18 18 17 17 18 18 17
27 28 25 22 22 20 17 16 17 19 18 18 18 18 18 19 19 21 19 19 21 20 19 18 18 18 18 17 20 19 16 12 10 15 14 16 17 16 18 17 18 18 17
26 29 27 21 20 19 17 15 16 20 19 20 19 19 20 20 20 20 20 19 20 20 18 18 17 16 17 19 19 17 16 21 15 15 13 13 15 14 14 15 15 15 15
23 27 26 22 18 17 16 14 14 21 20 21 21 21 21 21 20 22 22 20 21 19 18 16 15 16 17 17 18 17 17 16 14 12 11 12 14 12 12 12 13 13 13
25 24 23 22 18 17 15 16 15 21 21 22 23 22 22 23 21 22 22 20 19 16 16 16 16 16 18 20 19 17 16 14 13 9 9 13 14 12 12 12 12 12 12
22 21 22 19 18 17 15 14 17 21 20 22 24 24 23 23 22 22 23 21 17 15 16 16 16 16 17 18 17 15 16 13 11 9 10 12 13 12 12 12 12 12 12
25 21 20 17 17 15 14 13 16 20 21 22 24 25 26 24 24 25 22 18 17 16 16 15 15 15 15 15 15 15 14 14 9 8 9 10 11 10 10 10 11 11 11
25 26 20 17 16 13 13 12 13 19 22 22 24 25 27 24 28 26 22 20 18 16 16 14 14 13 13 12 13 13 11 11 8 6 8 8 8 8 8 8 8 9 9
22 24 25 17 15 13 11 10 10 18 22 23 24 25 27 28 25 26 24 22 18 19 17 15 13 12 11 10 10 11 11 10 7 5 4 5 6 6 6 6 6 6 7
20 22 24 22 14 8 7 4 8 18 22 22 24 29 29 29 27 26 24 23 19 16 17 15 13 11 10 9 8 11 9 7 7 5 3 2 2 4 4 3 3 4 5
19 21 21 20 9 10 9 7 6 19 23 26 30 30 31 30 28 27 25 22 19 16 15 14 12 10 8 7 6 8 8 6 5 4 4 1 2 2 2 0 1 3 3
17 17 19 22 15 8 12 15 16 17 28 32 32 33 31 30 29 27 27 24 21 19 16 14 12 9 9 7 6 6 4 4 5 5 3 1 1 2 2 2 3 4 5
19 18 17 18 23 22 27 29 26 26 31 35 33 31 31 30 29 29 28 26 24 21 18 14 11 10 8 5 6 4 7 5 6 8 4 4 1 2 2 3 4 6 7
17 19 19 17 18 19 36 29 28 26 28 37 36 29 30 32 32 30 28 26 24 23 19 16 13 11 9 7 9 7 7 6 7 8 7 4 4 2 3 4 5 6 6
15 18 18 16 15 24 27 31 28 29 38 29 32 33 28 32 33 31 30 28 24 23 20 16 14 12 11 11 10 9 9 9 7 7 7 7 4 7 3 3 4 6 7
17 17 17 15 15 24 19 28 22 32 34 32 32 34 34 33 31 28 28 28 23 21 16 17 15 14 12 12 12 13 11 8 8 8 9 8 7 7 5 5 5 7 7
12 15 17 14 20 23 11 18 31 35 33 32 35 35 34 33 32 29 27 24 23 21 20 18 17 15 13 12 12 10 10 10 7 7 5 5 6 4 4 5 5 6 9
13 14 16 12 27 21 17 32 29 29 36 36 31 33 33 32 28 26 28 25 24 22 21 18 17 14 14 12 11 11 12 13 11 7 7 5 3 2 4 6 3 6 8
18 17 17 21 20 24 24 30 25 23 33 35 32 28 27 27 26 26 24 25 23 21 19 19 16 14 14 13 12 12 9 8 7 7 7 6 4 6 7 5 5 5 4
19 21 25 26 25 24 27 27 27 26 25 26 29 32 26 26 25 26 22 21 21 22 20 19 17 15 15 13 10 12 9 7 7 9 9 8 6 5 4 5 3 2 2
21 21 21 24 26 25 28 27 25 21 18 24 27 28 29 27 25 24 23 22 23 22 19 19 19 17 15 15 7 3 1 1 8 10 10 9 6 5 5 4 4 2 2
13 17 18 26 26 26 23 25 23 23 23 28 25 22 30 26 27 27 26 23 23 22 21 20 21 19 15 12 15 6 2 3 4 9 11 9 9 8 7 6 6 6 5
15 12 15 19 24 24 15 14 19 19 19 17 26 29 23 23 26 25 25 24 22 24 23 23 23 22 20 17 12 14 7 5 3 2 9 10 9 10 10 6 6 7 7
20 15 22 17 21 16 12 12 14 13 12 13 12 15 17 19 21 22 23 21 18 17 16 19 18 21 25 26 22 16 12 7 3 2 3 5 10 10 9 8 8 9 9
25 21 24 21 16 14 10 9 8 8 10 10 8 8 11 13 13 13 14 11 17 15 15 18 19 18 22 20 22 22 19 10 10 4 1 4 6 8 12 9 10 10 9

GFSSE_925_spd_108.txt.gz
Wind_Speed
17 28 25 21 22 21 21 21 20 18 19 19 17 17 17 17 16 18 20 19 21 21 20 16 19 19 19 19 19 19 20 19 18 17 18 18 17 16 17 16 18 17 17
27 29 25 22 21 22 21 21 21 19 18 18 18 17 18 17 17 20 18 15 17 20 17 17 18 18 19 19 19 19 20 18 17 16 17 18 17 18 17 17 19 18 18
30 29 26 23 22 21 21 21 21 20 19 18 17 18 18 18 19 20 18 19 22 20 17 16 17 17 19 19 18 16 13 14 15 14 15 17 17 17 17 17 18 18 17
31 30 27 24 21 20 18 19 21 19 19 20 18 18 20 20 21 19 20 21 19 19 19 18 17 16 18 18 16 16 13 12 12 13 13 15 15 14 15 14 13 13 13
30 30 28 24 21 18 17 16 18 20 19 19 19 19 21 20 23 20 20 20 20 20 19 18 17 18 19 17 16 15 16 15 13 11 12 13 14 12 12 12 12 12 12
30 29 27 24 21 18 16 14 15 20 19 21 20 20 21 22 21 23 22 21 19 19 18 18 17 17 17 17 15 13 13 12 11 10 13 14 14 12 12 11 11 11 11
30 27 25 22 19 18 16 15 14 20 20 20 21 21 22 21 24 24 23 20 18 17 18 18 18 18 20 17 15 12 12 11 10 11 12 13 13 12 11 11 11 11 11
30 27 26 21 17 17 14 15 16 20 21 22 22 22 23 22 23 24 23 20 17 17 17 18 19 18 18 16 14 12 11 10 9 9 10 11 11 10 10 10 10 10 9
27 29 26 21 18 14 12 12 15 18 20 21 23 23 24 23 23 24 23 19 17 18 18 17 17 17 17 15 14 12 10 9 7 8 8 8 8 8 8 8 8 8 7
27 22 26 24 20 18 14 9 11 16 19 21 22 22 25 23 24 25 23 19 18 18 17 17 16 15 14 14 12 11 10 9 7 7 5 5 5 6 6 6 6 6 6
25 25 28 26 21 16 13 11 9 14 18 20 22 24 25 24 27 24 22 20 18 18 17 16 14 13 12 12 12 12 10 7 7 6 4 3 3 3 4 4 3 4 4
21 24 25 27 25 19 12 11 8 11 16 21 23 26 27 30 28 25 23 22 21 20 18 16 14 13 11 11 12 12 10 7 7 7 5 2 3 3 3 2 1 0 1
26 26 25 26 27 24 17 14 6 4 6 21 26 30 33 31 30 28 26 23 22 20 19 17 15 13 12 11 10 12 9 7 7 7 5 2 3 4 3 3 3 4 4
19 25 28 27 25 27 21 14 11 11 13 15 30 34 36 34 33 31 28 27 24 22 21 18 16 13 13 11 10 10 9 9 8 9 7 6 3 4 3 4 5 6 6
16 20 25 25 27 29 26 27 27 27 13 15 33 37 38 37 36 32 31 28 26 23 23 20 17 15 14 11 11 11 10 9 11 10 11 7 7 5 4 4 4 5 6
16 20 21 22 22 23 25 27 25 24 20 18 25 38 37 38 37 36 34 30 28 27 24 20 18 17 15 13 13 12 12 11 11 12 12 12 6 7 6 4 4 5 7
21 20 22 22 21 21 22 26 26 28 20 18 26 35 37 37 37 36 35 31 31 29 25 20 19 16 15 13 14 14 13 12 11 13 14 12 11 9 9 8 7 8 10
20 22 21 21 18 21 23 25 25 33 29 22 35 29 33 36 36 36 35 35 34 30 27 23 20 19 17 16 16 15 15 14 13 13 12 8 10 11 11 9 9 10 10
23 20 20 23 20 21 23 23 27 31 29 28 25 31 30 32 28 34 31 37 32 30 27 23 22 20 19 17 16 16 16 15 15 14 13 11 8 9 8 8 10 9 9
26 23 19 19 19 20 17 17 27 32 33 24 28 37 32 32 40 37 34 31 32 29 28 24 23 21 19 19 16 16 15 16 17 15 13 11 10 9 8 7 6 6 6
26 21 16 21 20 23 19 15 10 20 29 30 33 32 37 36 36 31 31 32 30 29 27 24 21 21 19 17 14 14 13 12 15 18 16 14 13 11 8 7 6 5 4
24 22 22 23 21 26 23 24 24 22 28 25 30 29 36 37 35 33 33 33 29 27 25 25 25 20 19 19 8 3 2 5 11 14 16 15 14 12 9 7 6 5 3
24 26 26 21 24 22 23 23 20 19 17 23 23 32 31 32 33 32 31 30 28 27 27 26 25 23 21 19 18 6 1 4 2 10 15 15 14 13 11 8 6 7 6
23 22 22 20 25 25 23 25 25 19 14 15 23 26 28 32 31 32 30 29 27 27 28 26 26 25 20 19 19 19 7 4 3 1 8 14 13 12 13 9 8 8 7
19 19 20 17 25 28 25 24 29 20 16 18 19 18 20 26 29 33 32 31 29 28 28 25 23 19 19 21 17 9 13 11 11 5 4 6 10 12 13 11 12 11 7
16 20 18 15 13 21 20 15 23 25 24 21 19 18 19 17 16 23 28 27 21 20 18 16 17 16 17 24 23 33 23 8 10 7 2 3 9 11 12 13 15 12 9

GFSSE_925_spd_111.txt.gz
Wind_Speed
16 28 26 21 21 21 22 20 20 18 17 18 18 18 17 17 17 20 21 19 19 18 18 18 16 16 15 16 16 18 17 16 16 17 17 16 16 15 15 16 17 16 16
25 29 27 23 21 22 21 19 18 19 18 18 18 17 17 17 18 19 19 21 21 17 17 20 18 17 16 16 17 17 17 17 17 16 16 16 16 17 16 16 17 16 16
29 30 26 24 23 22 21 21 19 18 18 17 17 17 17 17 19 19 16 19 20 17 17 16 17 18 17 16 15 13 14 15 15 15 17 18 16 16 15 16 15 14 13
31 31 29 25 24 23 22 21 19 18 18 17 17 18 17 18 19 18 19 23 20 17 16 17 18 19 17 14 11 9 11 13 12 12 14 15 15 14 13 12 11 11 11
29 29 29 26 23 22 21 20 19 18 19 18 18 18 19 20 20 20 21 20 19 19 17 17 17 19 17 15 12 13 13 10 10 10 11 11 12 10 10 10 10 10 10
27 27 27 27 25 21 19 19 20 19 18 18 18 18 20 20 21 20 23 21 20 20 18 17 18 18 17 13 10 12 12 10 10 11 11 11 11 9 9 10 10 10 10
30 29 26 24 23 21 19 17 19 20 19 19 19 19 20 20 21 21 22 19 19 19 17 18 18 17 16 13 10 11 11 10 10 10 11 11 10 9 9 9 10 9 9
26 27 27 24 22 20 18 17 16 20 19 20 20 20 20 20 21 23 21 18 18 18 17 18 18 18 16 13 11 10 10 9 9 9 10 10 10 9 8 8 8 8 8
17 23 23 22 19 18 16 16 15 18 21 20 20 20 21 20 22 23 21 18 18 18 18 18 18 19 15 12 10 9 10 7 8 8 7 8 8 7 7 6 6 6 6
17 19 23 22 21 19 15 13 14 15 19 20 21 21 21 22 23 24 21 18 17 18 19 18 17 17 15 13 10 8 8 7 6 6 5 5 6 5 5 5 5 4 4
15 20 23 24 23 21 18 15 13 14 17 18 20 22 22 23 24 24 23 19 16 18 19 18 17 16 15 13 12 9 8 7 7 6 4 4 4 4 3 3 2 2 3
13 20 25 27 27 24 21 16 11 11 15 16 20 23 24 25 26 27 24 19 18 18 17 17 16 15 14 14 14 12 10 8 7 7 6 4 4 5 4 3 2 1 2
11 17 21 25 27 26 23 20 16 11 14 16 18 22 26 27 28 27 25 22 21 19 18 17 16 16 15 14 13 14 11 9 7 8 8 6 5 6 5 5 4 4 4
16 18 21 23 22 23 23 22 20 14 8 11 19 23 28 29 31 29 28 28 25 25 22 20 18 16 14 13 12 14 12 11 9 10 9 8 6 5 5 6 6 7 7
16 23 23 23 24 23 22 22 22 19 15 12 15 23 30 32 34 34 31 30 28 27 25 23 20 17 15 15 13 13 13 12 12 12 12 11 10 7 6 6 6 7 8
15 20 24 26 23 26 25 24 19 19 20 19 19 22 32 36 38 37 35 32 31 28 24 24 21 18 16 15 14 15 14 13 12 13 12 14 14 9 9 8 7 7 8
18 19 23 26 28 28 28 28 28 27 22 22 24 26 39 36 37 39 37 36 33 29 25 23 20 18 18 16 16 16 16 15 15 15 17 18 19 18 13 12 11 11 12
20 21 23 24 25 26 29 28 26 25 26 24 25 27 41 42 41 40 34 36 34 29 27 25 22 21 19 18 17 17 17 16 16 17 15 17 18 18 16 14 12 13 13
25 23 26 26 27 28 27 25 24 25 25 27 27 29 36 40 30 38 33 32 32 31 30 26 25 23 21 19 17 17 17 18 18 18 18 16 15 14 14 14 13 14 13
26 24 25 25 27 26 23 22 22 21 27 27 29 28 33 32 25 22 23 30 33 34 30 28 27 25 23 20 17 18 16 18 20 19 19 19 17 14 13 13 12 11 10
25 27 27 26 26 27 24 21 20 23 27 29 31 31 32 28 26 21 24 29 32 37 31 31 26 23 24 17 15 16 17 17 18 18 17 17 17 15 14 11 10 9 8
27 29 29 27 26 27 27 26 16 16 22 27 26 30 35 33 26 31 29 30 33 29 29 30 29 23 22 20 8 3 2 6 15 15 18 19 18 16 13 11 10 9 7
27 30 30 28 27 27 26 26 17 12 11 15 20 24 29 33 36 37 33 40 36 33 35 31 29 27 22 20 19 6 1 4 0 10 19 20 19 17 14 13 12 10 7
29 30 30 29 29 25 24 22 20 17 10 17 19 25 28 34 35 40 42 38 29 34 31 29 29 28 24 20 14 20 11 1 2 2 7 19 19 19 18 16 14 12 10
25 29 30 30 23 20 23 23 22 21 20 19 24 19 24 27 32 35 29 30 32 33 31 29 29 27 24 20 17 8 11 7 7 1 3 5 15 19 20 19 18 15 12
13 22 24 24 17 15 22 23 25 25 22 18 20 19 13 12 10 21 28 27 31 31 32 31 26 21 20 20 20 19 20 9 9 10 5 7 7 12 19 19 18 17 15

GFSSE_925_spd_114.txt.gz
Wind_Speed
13 27 25 23 21 23 22 20 19 19 19 19 18 18 16 15 15 18 19 17 18 17 16 15 15 15 16 16 15 13 13 14 15 15 15 15 15 15 15 15 16 15 16
17 26 25 23 22 23 22 20 19 18 18 18 17 16 16 17 18 18 17 18 17 18 18 17 16 16 17 17 15 14 14 15 15 15 16 16 16 16 15 16 16 14 14
21 25 24 22 22 22 22 20 19 18 17 18 17 16 16 18 18 19 19 19 16 19 19 18 17 16 16 16 15 13 14 14 14 15 16 17 15 15 15 14 12 12 11
23 26 25 23 23 21 21 20 19 18 17 16 16 16 16 17 19 19 20 19 18 18 17 18 18 16 15 14 12 12 12 12 12 13 15 15 14 12 11 11 9 10 10
25 26 26 23 23 22 20 20 19 18 18 16 16 17 16 18 18 15 21 20 17 18 17 20 19 17 14 12 11 12 10 10 10 10 10 10 11 9 9 9 9 10 10
22 25 26 24 24 23 23 22 19 18 17 16 16 16 17 18 18 18 22 21 17 19 17 19 18 16 15 13 13 13 10 9 9 10 9 9 9 9 9 9 9 9 10
22 21 22 21 22 22 21 21 21 20 19 17 17 16 17 18 17 20 22 19 19 18 18 18 18 15 14 12 12 12 10 9 8 9 10 10 9 8 8 8 8 8 8
19 19 19 19 20 19 19 19 20 20 19 19 18 18 18 19 17 21 22 17 19 18 18 18 18 16 12 11 11 11 9 9 9 8 8 9 8 7 6 6 7 7 7
12 16 19 19 18 17 16 17 18 20 19 19 19 19 17 18 19 21 20 18 18 18 18 18 19 18 14 12 11 11 9 8 8 7 7 7 7 5 5 5 5 5 6
10 16 20 20 19 17 16 15 14 16 18 19 19 19 19 19 20 22 21 19 18 19 19 19 19 19 16 13 11 10 9 8 7 6 5 5 5 3 3 3 3 3 4
5 13 18 20 21 19 19 17 17 15 18 17 18 18 18 20 21 22 22 20 19 19 20 20 19 18 15 13 11 9 9 9 7 6 5 4 4 4 3 2 1 1 3
11 10 16 19 21 21 21 18 17 18 19 18 17 19 20 21 23 24 22 20 19 20 21 20 20 18 16 15 13 11 9 8 7 7 6 5 5 5 4 3 3 2 2
14 14 13 18 19 20 21 18 16 17 18 19 17 18 21 23 25 25 24 22 20 21 22 21 19 19 18 16 14 13 11 10 8 9 8 7 6 7 7 6 5 5 5
13 14 17 19 21 21 19 20 17 15 15 15 15 18 20 23 26 27 27 26 24 23 23 23 22 19 18 16 15 15 13 12 10 9 9 9 8 6 8 7 7 8 8
16 14 18 20 21 21 21 20 18 16 14 13 13 19 21 23 24 27 28 27 27 25 25 24 22 21 18 16 15 15 15 14 12 11 11 11 11 9 7 6 6 7 8
21 16 17 22 24 23 24 25 24 20 16 14 13 20 24 27 28 28 30 30 29 28 27 25 23 21 18 17 16 15 15 14 14 13 14 14 14 13 13 11 10 9 9
25 18 18 22 26 27 26 25 26 22 17 17 18 18 25 29 33 35 32 34 34 31 29 25 23 19 18 17 18 16 16 15 15 14 14 15 16 17 17 15 14 12 12
27 23 19 21 27 30 29 29 30 27 23 22 21 20 23 30 32 35 38 38 37 35 32 28 24 21 19 18 17 16 17 17 16 16 17 17 17 17 19 19 17 15 15
29 28 25 22 26 28 31 32 32 30 26 24 23 23 23 27 32 35 38 39 39 38 36 29 25 23 20 19 17 16 16 18 18 18 19 18 19 18 18 17 17 16 15
32 29 29 25 25 26 25 26 26 25 26 25 24 25 24 26 31 37 30 27 30 27 32 29 27 24 22 19 17 19 18 18 20 20 18 18 18 17 18 16 16 15 15
29 24 27 28 25 25 21 20 23 21 21 24 26 24 25 27 31 35 30 30 29 24 26 24 24 25 24 18 15 17 20 19 21 21 20 19 20 18 18 16 15 14 12
30 27 27 29 28 27 26 22 17 17 21 22 21 22 27 30 32 36 31 28 24 18 25 31 28 26 24 19 7 3 3 7 22 20 17 17 16 17 17 16 15 13 11
25 26 27 29 30 23 26 21 18 15 14 14 20 21 26 27 34 37 30 28 28 24 21 21 31 30 20 17 22 8 1 4 3 6 16 16 17 18 17 17 16 14 13
23 25 29 28 26 25 26 23 21 18 14 16 18 24 28 25 32 33 31 31 29 27 28 33 34 31 25 21 16 22 12 2 2 3 4 10 16 19 20 20 18 17 16
19 24 28 28 29 25 24 24 24 24 20 14 17 19 20 22 25 31 34 34 29 32 33 33 37 31 28 27 24 11 20 13 8 4 3 4 9 21 24 25 23 23 21
18 20 24 27 24 24 21 24 27 28 26 18 15 15 16 16 24 30 30 30 31 28 27 35 31 29 32 30 29 24 18 7 9 7 4 7 13 18 25 29 28 26 24

GFSSE_925_spd_117.txt.gz
Wind_Speed
7 19 23 21 21 20 20 19 18 20 19 18 17 17 17 15 14 16 15 18 18 16 15 14 16 17 15 14 15 15 16 14 15 15 15 15 15 16 15 15 15 14 15
12 21 22 21 20 19 19 18 17 17 17 17 15 15 15 14 15 16 16 16 17 15 15 14 14 16 15 15 14 15 15 15 16 16 18 16 16 16 15 15 15 13 12
16 23 21 20 20 21 18 18 17 17 16 16 15 14 15 15 17 16 16 17 19 17 16 16 15 16 15 13 14 15 15 15 15 17 17 14 14 15 13 11 10 12 12
13 17 20 22 21 21 20 19 17 16 17 17 15 14 15 16 17 17 18 16 18 19 18 17 16 15 15 13 13 14 14 14 14 14 13 12 10 10 10 9 10 11 12
14 19 19 20 19 20 20 19 19 17 15 16 17 14 15 17 17 19 19 18 19 18 17 18 16 16 13 11 13 13 12 12 12 12 12 10 9 8 9 10 10 10 11
15 19 19 19 18 18 19 19 19 19 18 16 14 16 14 16 16 17 19 20 19 17 17 18 16 14 13 13 13 11 11 11 11 9 9 8 8 9 9 10 9 9 9
15 18 18 19 20 18 18 19 19 19 18 17 17 17 16 15 13 16 21 19 17 17 20 18 16 14 13 13 14 11 10 11 10 10 10 9 8 8 8 8 8 8 8
12 17 17 16 16 17 17 18 18 17 18 17 17 17 16 15 14 19 22 18 16 17 20 18 16 14 12 12 12 11 10 10 11 10 10 9 8 7 7 6 6 7 7
8 11 17 17 16 16 16 17 18 17 17 17 17 16 15 16 17 17 20 16 16 17 18 18 17 15 12 11 11 10 9 9 9 9 9 8 8 6 5 5 5 6 6
5 11 17 17 17 18 16 16 17 18 17 17 16 16 15 16 17 19 20 16 17 17 18 18 18 16 13 11 10 10 8 8 8 7 7 7 7 4 3 3 4 4 4
5 5 11 18 18 18 18 18 16 16 18 18 17 16 16 16 18 18 20 18 17 17 18 18 18 17 14 12 11 11 9 8 7 6 6 6 6 5 4 2 2 1 2
15 9 9 11 18 19 21 19 18 18 18 19 18 18 18 18 19 19 20 19 16 17 18 18 18 18 16 15 13 12 11 10 8 7 6 5 5 6 5 4 3 1 2
17 15 11 13 15 18 18 18 18 17 15 19 19 18 18 19 20 21 20 19 17 17 16 17 17 16 18 17 15 13 12 11 9 9 9 8 7 7 7 6 4 4 4
19 18 14 13 16 18 17 18 18 17 18 20 20 19 21 21 22 24 21 23 18 18 19 19 17 19 18 17 16 15 14 12 11 9 10 10 9 8 8 9 8 7 8
22 20 16 15 18 21 21 19 20 18 17 18 20 21 22 23 24 25 23 24 21 20 21 22 21 20 19 18 16 15 16 15 13 12 11 11 11 10 8 7 7 7 7
23 24 19 17 19 21 23 22 21 18 16 17 18 19 21 23 24 25 27 25 24 24 23 23 23 21 20 18 17 16 15 15 14 13 14 14 14 13 13 13 10 9 10
27 25 23 19 18 23 25 26 25 23 21 18 13 12 16 20 23 22 26 30 30 28 27 24 23 22 21 20 19 17 16 16 17 16 15 16 15 15 16 17 16 14 13
29 29 24 21 20 22 29 28 27 25 24 23 19 16 18 19 22 26 25 27 33 32 32 26 26 23 22 20 19 18 18 18 18 18 18 17 17 18 19 20 21 18 17
29 30 27 24 22 22 27 29 28 26 25 24 22 20 20 21 23 27 30 27 28 33 31 30 27 23 23 22 19 20 19 20 19 19 20 19 19 19 18 19 19 21 20
28 30 29 26 25 22 24 29 30 28 28 29 26 23 21 23 23 26 30 31 30 26 28 32 31 24 25 23 18 21 20 22 21 21 21 20 19 19 19 18 19 19 19
28 30 30 26 26 24 21 19 19 24 30 28 29 27 25 23 22 24 27 30 34 29 30 32 32 26 30 25 13 15 21 25 24 23 21 20 21 20 20 20 20 18 18
26 31 32 25 23 27 26 25 18 19 21 26 22 22 22 25 24 24 27 29 31 27 29 28 30 23 21 21 10 4 5 8 17 22 24 21 20 20 20 17 17 18 17
24 32 33 30 26 26 23 19 20 15 13 14 21 22 22 22 26 28 27 28 29 30 29 31 33 31 23 19 22 10 2 5 3 5 14 20 19 18 18 19 20 20 19
25 26 28 28 27 25 24 23 22 19 17 19 18 20 18 20 24 26 28 30 31 32 28 30 34 29 23 15 18 24 26 12 3 2 3 7 15 17 21 23 23 22 22
16 19 24 24 24 22 23 24 21 19 20 18 18 18 18 19 23 24 30 30 30 29 31 30 30 26 21 21 21 16 22 17 14 7 7 7 13 21 23 24 27 23 24
12 15 19 21 21 20 21 22 21 20 19 19 17 17 18 18 19 25 29 31 31 30 27 29 29 27 29 30 28 31 29 11 12 8 6 11 11 15 19 22 26 29 31